GFSWCAN_prec_cloud_003.txt.gz
Cloud_Cover
100 100 100 100 100 100 100 100 100 100 96 82 93 65 39 76 52 49 6 17 7 32 5 5 5 5 5 5 5 5 5 10 93 100 44 67 96 79 66 28 86 73 100 57 91 100 58 5 90 70 88 100 99 43
100 100 100 100 100 100 100 100 100 100 100 100 100 100 100 100 100 100 97 78 72 90 48 68 94 54 5 5 5 4 5 5 6 72 83 90 98 77 61 99 100 86 99 63 99 67 96 100 100 100 94 88 100 100
100 100 100 100 100 100 100 100 100 100 100 100 100 100 100 100 100 100 100 100 100 100 100 100 100 91 40 5 5 5 6 5 5 5 45 86 88 94 89 100 100 100 100 97 100 73 100 99 50 100 100 100 100 100
100 100 100 100 100 100 100 100 100 100 100 100 100 100 100 100 100 100 100 100 100 100 100 43 90 17 5 6 16 12 5 5 5 28 100 100 100 100 100 100 100 100 100 100 82 83 68 100 100 100 100 100 100 100
100 100 100 100 100 100 100 100 100 100 100 100 100 100 100 100 100 100 100 97 100 98 100 90 23 7 5 51 75 91 96 100 95 100 100 100 100 100 100 100 100 100 97 100 100 98 100 100 100 100 100 89 70 100
100 100 100 100 100 100 100 100 100 100 100 100 100 100 100 100 100 98 100 100 100 16 99 100 100 100 100 100 100 100 100 100 100 100 100 100 100 100 100 100 100 100 100 100 100 100 100 100 100 100 100 100 100 88
100 100 100 100 100 100 100 100 100 100 100 100 100 100 100 100 100 100 100 100 84 100 100 100 93 98 100 100 100 100 95 99 39 99 100 97 100 100 100 100 100 100 100 100 100 99 100 84 93 95 98 58 50 100
100 100 100 100 100 100 100 100 100 100 100 100 100 100 100 100 100 100 100 100 100 100 91 100 100 100 100 100 100 100 100 100 95 100 100 100 73 100 100 100 100 100 100 100 88 88 99 89 28 79 99 69 63 94
100 100 100 100 100 100 100 100 100 100 100 100 100 100 100 100 100 100 98 100 100 100 100 100 100 100 100 97 100 100 100 100 100 100 100 100 100 100 100 67 100 100 100 87 80 90 75 95 100 100 100 100 68 18
100 100 100 100 100 100 100 100 100 100 100 100 100 100 100 100 100 100 100 100 100 100 100 100 100 100 100 100 100 100 100 100 100 94 92 100 100 100 100 100 99 54 5 5 5 80 100 99 8 29 98 100 100 94
100 100 100 100 100 100 100 100 100 100 100 100 100 100 100 100 100 100 100 100 100 100 100 100 100 100 100 100 100 100 100 100 100 61 99 90 99 20 16 5 5 5 5 6 43 70 34 82 100 84 46 93 78 24
100 100 100 100 100 100 100 100 100 100 100 100 100 100 100 100 100 100 100 100 100 93 98 100 100 100 100 100 100 100 97 100 82 89 100 93 46 9 15 43 52 94 98 97 100 99 100 100 100 38 5 5 4 6
100 100 100 100 100 100 100 100 100 100 100 100 100 100 100 100 100 100 100 98 97 97 100 100 100 100 100 100 100 100 100 94 94 99 70 94 81 39 62 90 100 100 87 100 100 100 85 15 5 1 2 1 28 100
100 100 100 100 100 100 100 100 100 100 100 100 100 100 100 100 99 100 100 100 100 100 100 100 100 100 98 100 100 97 40 75 100 100 100 89 5 54 78 94 100 95 100 100 90 5 2 0 0 0 4 4 8 51
100 100 100 100 100 100 100 100 100 100 100 100 97 100 100 97 89 100 100 100 100 100 100 100 100 87 100 100 100 91 89 99 100 99 27 10 27 22 20 25 8 6 6 5 2 0 0 0 0 0 0 0 5 45
100 100 100 100 100 100 100 100 100 100 100 100 59 89 100 100 99 99 100 100 100 100 100 100 87 50 72 78 43 100 98 100 90 10 5 7 76 37 5 9 6 2 0 0 0 0 0 0 2 5 5 5 5 15
69 100 100 100 100 100 100 100 100 100 100 97 91 98 82 100 100 100 100 100 100 100 100 93 89 96 51 74 91 99 100 41 5 5 44 12 5 5 5 2 0 0 0 0 0 0 4 5 5 5 5 5 5 5
100 99 100 100 100 100 100 100 100 100 100 100 100 100 100 100 100 100 100 100 100 100 100 94 24 40 38 47 89 43 5 5 5 5 5 2 1 4 3 0 0 0 0 0 1 5 5 8 20 8 6 8 14 9
100 100 100 100 100 97 88 100 100 100 76 73 73 77 85 91 100 99 92 93 100 100 100 100 8 10 22 23 5 5 7 6 5 1 4 2 5 5 3 1 0 0 0 2 5 5 40 89 27 63 92 94 100 75
100 100 100 100 90 73 77 74 20 55 8 5 33 22 8 7 60 92 100 54 25 95 99 90 33 80 5 5 5 5 5 5 5 5 1 2 5 5 5 5 4 0 5 5 5 51 22 45 75 42 91 100 100 100
100 100 98 99 100 100 97 64 100 68 8 5 11 6 27 96 100 85 100 100 84 100 97 46 5 5 5 4 5 5 5 5 5 5 4 5 3 5 5 0 0 5 21 45 83 28 51 100 92 100 100 100 100 100
100 100 100 100 100 97 97 88 72 27 6 14 14 70 100 97 100 98 87 100 54 5 5 4 0 0 0 1 0 3 0 2 5 4 1 5 6 5 0 3 33 67 26 100 100 100 100 100 98 99 100 100 100 100
100 100 100 100 100 78 88 7 23 32 63 72 100 68 14 56 36 74 96 94 8 20 8 3 2 0 0 0 2 3 5 5 5 5 4 0 0 4 12 27 83 13 5 6 94 100 100 99 100 86 100 100 100 100
100 100 100 100 87 71 68 99 76 74 63 88 81 93 33 59 41 92 76 54 57 44 5 5 5 5 5 5 5 5 2 4 5 3 0 4 5 6 12 5 5 7 45 57 100 100 100 100 100 100 81 91 100 100
99 98 61 94 100 97 86 100 99 99 100 99 94 66 42 40 12 78 39 6 5 5 1 5 5 5 5 5 5 5 5 4 2 1 5 5 43 74 41 5 5 60 44 80 72 100 100 100 100 100 100 94 83 86
42 80 95 100 99 61 88 100 100 97 99 84 69 25 51 8 11 5 5 5 5 5 5 2 5 5 5 5 5 12 5 5 7 32 6 56 8 10 8 6 48 99 100 99 100 100 100 100 100 100 100 100 99 74
96 94 98 99 98 100 83 64 49 40 92 38 11 5 8 5 11 5 5 6 5 5 5 49 98 75 65 48 23 5 5 8 5 6 5 27 65 96 83 67 81 72 83 98 100 100 100 100 100 100 99 100 100 100
95 95 100 100 91 97 38 62 34 34 5 31 5 17 5 6 5 5 5 6 5 5 75 79 34 45 10 4 2 29 84 99 68 60 69 80 98 92 77 92 100 98 95 100 100 100 100 100 100 100 96 100 100 100
100 100 92 75 36 42 13 7 5 5 57 48 83 94 93 73 24 19 62 35 16 37 34 8 89 96 51 59 98 86 42 75 85 98 95 74 88 98 99 75 100 100 96 100 100 100 97 84 85 86 97 100 100 100
100 100 99 100 100 93 69 74 10 5 61 100 99 71 15 5 9 80 60 29 38 37 67 92 96 90 82 99 92 90 100 93 100 99 100 90 81 74 68 89 92 100 100 100 100 87 56 31 32 34 68 100 100 100
76 64 46 66 15 5 28 26 38 61 37 25 61 30 29 15 81 92 95 90 93 98 100 98 93 88 99 100 100 100 100 91 88 100 98 90 100 96 95 93 89 91 100 97 100 98 89 67 75 70 83 98 100 100
98 40 57 30 35 50 84 80 51 45 66 78 16 31 44 92 96 96 98 81 100 100 100 100 100 100 100 99 100 100 97 99 100 100 100 100 100 92 76 68 61 73 82 97 94 100 88 64 59 71 74 90 100 98
65 68 91 96 69 52 5 5 12 53 61 63 4 21 17 84 100 100 100 98 99 100 100 100 100 100 100 100 99 99 100 100 100 100 100 100 100 94 82 85 55 59 68 80 83 88 90 83 78 64 66 86 98 99

GFSWCAN_prec_cloud_006.txt.gz
Cloud_Cover
100 100 100 100 100 100 100 100 100 100 100 100 100 100 100 100 100 100 99 59 35 17 5 5 5 5 5 5 7 69 5 5 86 100 86 100 21 5 8 37 6 5 66 42 90 100 68 64 79 95 70 36 68 98
100 100 100 100 100 100 100 100 100 100 100 100 100 100 100 100 100 100 85 17 12 22 11 5 5 5 5 5 5 6 6 9 10 83 60 87 93 87 92 100 34 84 57 94 100 52 70 11 92 99 100 76 54 100
100 100 100 100 100 100 100 100 100 100 100 100 100 100 100 100 100 99 83 60 19 100 9 25 8 11 5 25 6 6 32 5 25 15 24 62 18 13 95 99 82 98 84 74 100 96 97 100 93 80 62 94 100 100
100 100 100 100 100 100 100 100 100 100 100 100 100 100 100 92 100 68 77 89 89 100 100 93 98 93 85 48 96 24 5 5 9 34 100 100 100 50 100 98 100 96 90 88 100 34 40 43 74 100 100 100 100 100
100 100 100 100 100 100 100 100 100 100 100 100 100 100 100 100 100 100 100 100 100 100 100 100 100 100 100 96 6 19 5 5 100 100 100 100 76 79 100 100 100 94 99 68 15 100 100 100 96 100 100 100 100 97
100 100 100 100 100 100 100 100 100 100 100 100 100 100 100 100 100 100 100 100 100 100 100 100 100 100 94 68 97 91 5 11 40 99 100 100 100 100 100 100 100 93 77 21 64 100 100 100 100 100 100 100 95 73
100 100 100 100 100 100 100 100 100 100 100 100 100 100 100 100 100 100 100 100 100 100 100 97 93 100 100 100 100 65 96 47 82 98 100 100 100 100 100 100 100 40 83 100 100 100 98 93 100 100 100 100 60 5
100 100 100 100 100 100 100 100 100 100 100 100 100 100 100 100 100 100 100 100 100 100 100 100 100 100 100 100 100 100 100 97 96 100 100 100 100 100 100 91 93 89 100 100 100 52 10 73 88 61 40 51 42 66
100 100 100 100 100 100 100 100 100 100 100 100 100 100 100 100 100 100 100 100 100 100 100 100 100 100 100 100 100 100 100 100 100 100 100 100 100 100 96 97 89 100 74 8 5 17 49 40 30 61 74 99 91 58
100 100 100 100 100 100 100 100 100 100 100 100 100 100 100 100 100 100 100 100 100 100 100 100 100 100 99 100 100 100 100 100 100 100 95 100 100 100 100 93 48 5 5 6 65 83 99 79 72 91 20 5 34 54
100 100 100 100 100 100 100 100 100 100 100 100 100 100 100 100 100 100 100 100 100 100 100 100 100 100 100 100 100 100 100 100 99 23 93 94 100 100 48 15 22 8 9 12 67 92 97 100 53 5 5 5 5 4
100 100 100 100 100 100 100 100 100 100 100 100 100 100 100 100 100 100 100 100 100 75 100 100 100 100 100 100 100 100 92 98 100 88 98 84 40 10 28 97 94 45 85 71 5 21 23 8 9 51 81 27 1 0
100 100 100 100 100 100 100 100 100 100 100 100 100 100 100 100 100 100 64 98 100 100 100 100 100 100 100 100 100 97 100 99 91 79 98 100 99 23 93 100 100 99 15 5 55 74 78 38 16 3 0 0 0 2
100 100 100 100 100 100 100 100 100 100 100 100 100 100 100 100 93 99 100 100 100 100 100 100 100 100 100 100 100 100 100 100 100 100 100 100 88 99 100 100 85 5 49 10 5 0 0 0 0 0 1 3 5 5
100 100 100 100 100 100 100 100 100 100 100 100 100 100 100 100 100 100 100 100 100 100 100 100 100 100 100 100 100 100 100 100 100 100 100 97 100 100 93 9 5 6 4 0 0 0 0 0 1 4 5 5 5 6
94 99 100 100 100 100 100 100 100 100 100 100 100 100 100 100 100 100 100 100 100 100 100 100 100 100 100 100 100 100 100 100 95 20 23 89 100 97 15 5 5 5 3 0 0 0 0 0 5 5 5 5 5 5
100 100 100 98 100 100 100 100 100 100 100 100 100 100 100 100 100 100 100 100 100 100 100 100 100 100 100 100 100 100 100 38 6 44 98 84 6 5 5 5 5 5 5 0 0 0 2 5 5 5 7 5 5 5
100 100 100 100 74 100 100 100 100 100 100 100 100 100 100 100 100 100 100 100 100 100 100 100 100 100 100 96 100 85 7 66 100 95 50 9 5 5 3 5 5 5 4 0 0 3 5 5 5 10 10 6 73 94
100 100 100 100 100 83 83 100 100 100 100 100 100 100 100 100 100 100 100 100 100 100 100 100 100 100 100 100 100 100 100 53 5 5 5 8 5 5 5 5 5 5 4 0 3 5 5 5 17 95 83 82 100 100
100 100 100 100 100 100 94 72 100 100 100 100 100 100 100 100 100 100 100 100 100 100 100 100 100 100 100 100 100 100 46 5 5 5 1 5 5 5 5 5 5 3 0 3 7 65 95 94 22 53 100 100 100 100
100 100 100 100 92 97 71 62 14 60 68 100 100 97 100 100 100 100 100 100 100 100 100 100 100 100 100 100 58 5 5 5 5 5 4 1 4 5 5 0 0 0 35 58 10 22 94 100 100 100 100 100 100 100
100 100 100 96 98 84 51 12 6 15 8 16 16 36 59 73 94 100 98 100 90 7 52 38 26 4 4 2 2 4 3 3 5 5 5 5 5 5 5 2 61 50 71 11 5 5 36 100 100 100 100 100 100 100
100 100 100 100 91 31 50 15 26 50 78 63 72 28 41 58 57 99 100 100 33 11 5 5 3 3 0 1 2 3 3 3 5 5 5 5 5 5 24 5 46 92 26 5 5 79 100 100 100 100 100 100 100 100
100 100 98 64 69 78 76 95 100 89 82 82 75 95 35 71 74 100 97 74 75 15 9 5 5 5 5 5 5 5 5 5 5 5 5 5 4 5 5 5 34 7 5 6 12 88 100 74 90 100 100 100 100 100
92 99 92 96 100 100 100 92 97 98 99 98 98 86 29 55 60 99 96 17 5 5 4 6 5 5 5 8 6 5 5 5 5 5 5 5 28 44 41 9 6 15 83 77 9 55 87 100 83 100 100 100 88 100
97 97 97 100 100 100 71 100 100 99 100 100 98 55 39 35 10 5 5 5 5 5 5 5 5 5 5 7 13 5 4 5 9 48 3 5 10 84 45 38 23 19 69 98 98 90 96 96 100 100 100 100 99 87
96 96 100 99 45 14 90 70 73 62 95 84 13 63 47 20 27 5 5 6 5 5 5 5 5 5 29 33 30 5 5 5 5 5 42 16 11 52 97 93 99 76 96 100 99 98 100 100 100 100 96 99 97 95
64 78 99 82 93 84 29 91 69 92 75 54 5 40 5 5 5 5 32 89 50 5 5 5 5 5 5 4 2 50 78 92 100 87 79 92 100 99 100 99 97 99 99 100 100 100 100 100 98 99 100 100 100 99
100 100 98 100 97 98 47 66 32 7 97 95 94 96 94 91 100 94 20 14 75 95 40 13 6 68 42 70 40 34 73 95 100 100 100 100 84 57 94 91 80 84 100 100 100 100 100 91 80 85 97 88 82 58
72 86 70 83 61 50 75 97 18 27 36 73 87 45 52 35 83 65 67 89 95 100 96 92 99 98 87 99 94 87 96 100 100 100 100 99 86 73 89 100 100 98 98 100 100 100 98 52 75 74 62 38 58 35
76 77 80 83 71 8 37 43 46 65 44 24 52 6 5 18 90 97 92 80 88 100 99 75 97 99 100 100 100 100 97 98 97 88 78 75 73 87 93 100 100 100 100 100 100 100 100 93 79 63 46 62 98 95
100 82 59 93 20 5 82 95 86 73 60 37 6 60 37 92 100 95 93 88 92 100 99 96 99 100 100 100 100 100 100 100 90 100 100 99 84 88 100 100 100 100 94 85 93 81 78 72 62 65 82 76 96 100
89 99 100 100 87 80 33 45 77 95 83 80 9 77 70 77 83 100 100 100 100 100 100 100 100 100 100 100 100 100 100 100 100 100 100 100 100 99 77 64 58 25 17 58 58 66 56 54 70 65 67 73 82 87

GFSWCAN_prec_cloud_009.txt.gz
Cloud_Cover
100 100 100 100 100 100 100 100 100 100 100 100 100 100 100 100 100 100 100 100 100 100 99 67 50 71 78 56 14 8 60 8 91 100 95 99 22 18 13 29 6 5 71 69 84 95 61 48 100 99 85 98 87 100
100 100 100 100 100 100 100 100 100 100 100 100 100 100 100 100 100 100 100 100 100 100 100 91 46 6 8 46 92 83 13 5 6 78 64 97 99 92 67 20 20 47 22 95 100 35 60 64 81 85 100 100 100 100
100 100 100 100 100 100 100 100 100 100 100 100 100 100 100 100 100 100 100 100 100 100 100 98 49 36 32 19 5 5 5 5 5 11 9 47 18 82 89 81 34 13 16 47 88 28 34 54 51 87 100 100 61 100
100 100 100 100 100 100 100 100 100 100 100 100 100 100 100 100 100 100 100 100 100 100 100 100 83 5 5 5 12 38 68 40 79 26 100 100 100 5 83 20 45 87 98 47 97 34 59 100 100 100 100 100 85 19
100 100 100 100 100 100 100 100 100 100 100 100 100 100 100 100 100 100 100 98 71 57 64 81 5 5 14 37 85 77 89 98 100 100 100 100 96 86 100 100 78 44 88 99 91 100 100 100 100 100 100 100 100 42
100 100 100 100 100 100 100 100 100 100 100 100 100 100 100 100 100 100 83 67 76 71 91 93 73 80 77 100 100 100 100 100 100 100 100 100 100 82 100 100 86 91 100 100 100 100 100 100 100 100 50 6 18 28
100 100 100 100 100 100 100 100 100 100 100 100 100 100 100 100 100 100 100 100 100 100 100 100 100 100 100 100 100 100 100 100 64 100 100 100 100 99 100 100 100 100 98 64 100 99 69 100 71 30 35 30 52 21
100 100 100 100 100 100 100 100 100 100 100 100 100 100 100 100 100 100 100 100 100 100 100 95 100 100 100 100 100 100 100 100 100 100 100 100 81 98 100 100 100 85 94 96 100 91 83 95 66 17 23 18 89 97
100 100 100 100 100 100 100 100 100 100 100 100 100 100 100 100 100 100 100 100 100 100 100 100 100 100 100 100 100 100 100 100 92 100 100 100 100 100 100 99 56 84 98 97 100 93 89 100 100 44 75 100 99 41
89 100 100 100 100 100 100 100 100 100 100 100 100 100 100 100 100 100 100 100 100 100 100 100 100 100 100 100 100 100 100 100 100 99 100 100 100 100 100 99 100 100 99 79 90 100 93 61 55 100 100 96 55 34
100 89 31 62 100 100 100 100 100 100 100 100 100 100 100 100 100 100 100 100 100 100 100 100 100 100 100 99 100 100 100 100 100 83 99 100 94 100 100 100 100 100 100 100 91 44 53 100 18 5 6 74 82 27
100 100 99 66 100 100 100 100 100 100 100 100 100 100 100 100 100 100 100 100 100 95 100 100 100 100 100 100 100 100 100 100 95 89 92 98 80 81 84 76 68 99 98 72 54 99 100 37 5 5 5 4 4 4
100 100 100 100 100 100 100 100 100 100 100 100 100 100 100 100 100 100 100 100 100 98 100 100 100 100 100 100 100 94 84 92 79 91 56 18 46 86 86 47 93 55 26 34 98 42 5 5 6 22 4 5 5 5
100 100 100 100 82 100 100 100 100 100 100 100 100 100 100 100 100 62 100 100 100 100 100 100 100 100 100 100 100 90 94 91 99 100 65 78 28 24 92 100 100 88 90 100 100 5 5 6 98 8 4 5 5 5
100 100 100 100 100 100 100 100 100 100 100 100 100 100 100 100 100 100 100 100 100 100 100 100 100 100 100 100 100 100 100 88 98 100 94 100 100 100 100 100 100 100 100 90 29 9 75 94 14 5 5 5 5 5
100 100 92 100 100 100 100 100 100 100 100 100 100 100 100 100 100 100 100 100 100 100 100 100 100 100 100 100 99 100 100 100 100 100 71 23 98 100 100 100 100 75 40 9 87 84 29 6 3 5 5 5 5 5
100 100 81 38 100 100 100 100 100 100 100 100 100 100 100 100 100 100 100 100 100 100 100 100 100 100 100 100 100 100 100 100 100 99 98 100 100 100 100 100 98 98 100 100 96 12 5 0 5 5 6 5 5 5
100 100 100 48 100 100 100 100 100 100 100 100 100 100 100 100 100 100 100 100 100 100 100 100 100 100 100 100 100 100 100 100 100 100 100 100 100 100 100 100 100 100 89 19 5 1 0 7 28 45 50 7 8 71
100 100 100 100 97 100 100 100 100 99 100 100 100 100 100 100 100 100 100 100 100 100 100 100 100 100 100 100 100 100 100 100 98 83 97 100 100 100 100 100 75 6 5 5 0 0 6 41 81 93 79 79 100 100
100 100 100 100 100 100 76 66 68 99 67 99 100 100 100 100 100 100 100 100 100 100 100 100 100 100 100 100 100 100 100 100 96 100 100 100 100 100 62 1 2 5 5 2 4 67 5 5 5 14 100 100 100 100
100 100 100 100 100 76 74 48 8 8 11 13 74 100 100 100 100 100 100 100 100 100 100 100 100 100 100 100 100 100 100 100 100 100 68 1 2 5 2 5 5 5 5 5 15 14 32 5 5 65 99 100 100 100
100 100 100 100 100 100 17 15 5 24 8 16 13 34 82 89 97 98 93 100 100 68 63 84 100 100 100 100 100 100 89 86 36 5 5 5 5 5 5 5 5 5 5 5 6 13 5 5 64 100 100 68 98 100
100 100 100 100 100 80 91 59 34 28 5 22 34 6 34 61 71 98 100 100 69 9 5 5 2 0 3 4 5 4 4 5 5 5 5 5 5 5 5 5 5 5 28 6 5 5 6 42 100 100 97 95 100 100
100 100 100 100 92 85 60 42 54 83 90 86 64 96 13 66 92 100 100 94 19 5 5 4 5 5 5 4 5 5 5 5 5 5 5 5 5 5 5 5 5 5 24 5 5 10 19 76 96 100 100 100 100 100
91 96 43 77 52 65 100 100 96 89 96 99 100 97 41 89 84 100 100 37 5 5 5 2 5 5 5 5 5 5 5 5 5 5 3 5 5 5 5 5 5 87 100 81 64 88 76 95 100 100 100 100 100 100
84 83 21 44 89 9 84 100 100 99 100 100 100 92 64 50 62 22 5 5 5 5 5 4 4 3 1 5 5 19 100 99 94 40 3 5 5 5 5 5 5 92 91 100 89 82 98 92 100 100 94 99 91 100
100 100 100 66 12 22 96 95 99 85 100 99 88 100 62 54 45 5 5 5 5 5 5 23 8 5 4 3 5 5 5 5 5 5 11 25 24 64 75 76 85 90 95 88 97 89 90 100 100 100 94 99 100 100
100 97 44 84 95 45 55 87 96 88 36 46 6 21 6 6 5 48 97 97 96 47 10 45 100 98 16 5 5 5 7 68 99 100 94 99 100 93 88 85 89 97 99 97 95 100 100 100 96 96 100 98 100 95
100 71 57 98 100 100 66 99 96 68 44 23 9 28 84 95 99 98 88 87 77 99 88 92 70 24 7 6 64 50 100 100 100 100 100 100 100 99 99 98 88 82 94 99 100 100 100 100 100 97 90 87 84 73
73 82 78 100 91 86 95 64 20 86 97 92 92 90 68 80 100 76 54 30 72 99 92 98 99 93 93 93 68 82 98 95 100 100 100 100 100 100 95 100 94 100 100 100 100 99 92 68 55 48 40 49 82 79
96 100 94 90 81 25 6 80 66 68 65 47 75 18 5 90 96 94 91 77 23 48 31 46 84 96 99 100 98 100 100 99 100 100 100 100 100 100 97 93 94 95 99 99 83 89 97 85 68 58 60 68 70 84
100 90 98 100 50 6 81 88 96 68 84 74 7 74 64 95 97 97 98 85 38 46 82 100 100 100 100 100 100 100 100 100 100 100 100 100 100 100 97 84 72 87 100 80 79 77 68 69 72 77 77 83 79 86
98 100 100 100 90 33 28 23 22 72 100 74 19 98 100 77 91 99 100 95 100 100 100 100 100 100 100 100 100 100 100 100 100 100 100 100 100 100 100 100 97 68 25 41 58 35 34 26 73 74 74 76 81 82

GFSWCAN_prec_cloud_012.txt.gz
Cloud_Cover
100 100 100 100 100 100 100 100 100 100 100 100 100 100 100 100 100 100 100 100 100 100 100 100 100 100 100 100 14 19 5 5 52 100 100 57 98 70 30 64 5 31 13 76 83 100 91 45 92 100 25 10 85 96
100 100 100 100 100 100 100 100 100 100 100 100 100 100 100 100 100 100 100 100 100 100 100 100 100 100 100 100 85 68 19 8 6 41 84 94 100 95 91 47 56 6 5 5 7 5 91 100 100 52 5 72 100 100
100 100 100 100 100 100 100 100 100 100 100 74 67 100 100 100 100 100 100 100 100 100 100 100 100 100 100 100 99 42 7 11 5 5 6 90 100 15 100 39 79 80 5 5 38 5 76 82 70 27 58 96 100 96
100 100 100 100 100 100 100 100 99 100 100 100 69 9 90 100 100 100 100 100 99 100 100 100 100 100 100 100 96 93 83 10 7 5 100 100 100 62 96 5 36 53 18 22 55 23 64 80 81 80 94 100 98 90
100 100 100 100 100 100 100 100 100 100 100 100 94 98 5 31 82 100 100 100 100 100 100 100 100 100 100 100 100 93 81 54 39 100 100 92 100 29 65 89 88 98 28 85 98 89 99 100 99 100 100 83 78 33
100 100 100 100 100 100 100 100 100 100 100 100 100 100 100 98 97 91 100 100 100 100 100 100 99 99 100 100 43 49 38 59 32 32 88 48 5 6 100 100 100 68 84 81 54 100 100 100 75 68 80 80 23 90
99 100 100 100 100 100 100 100 100 100 100 100 100 100 100 100 100 100 100 100 100 100 100 100 71 100 100 74 49 71 100 100 70 78 99 91 28 74 100 100 96 41 55 100 100 100 100 97 99 19 44 5 5 5
100 100 100 100 100 100 100 100 100 100 100 100 100 100 100 100 100 100 100 100 100 100 100 100 97 100 100 100 100 100 100 100 89 94 100 98 75 100 100 82 80 57 79 100 93 100 100 85 11 44 76 20 5 5
100 100 100 99 100 100 100 100 100 100 100 100 100 100 100 100 100 100 100 100 100 100 100 100 100 100 100 100 100 100 100 100 82 100 100 100 100 100 98 100 77 99 100 100 90 84 5 38 77 25 33 14 18 46
100 100 100 100 100 100 100 100 100 100 100 100 100 100 100 100 100 100 100 100 100 100 99 100 100 100 100 100 100 100 100 100 100 96 99 100 100 100 100 100 100 100 100 100 59 29 28 68 99 79 32 57 92 74
100 100 100 100 100 99 100 100 100 100 100 100 100 100 100 100 100 100 100 100 100 100 100 100 100 100 100 100 100 100 100 100 100 96 100 100 100 100 100 100 100 100 100 88 24 51 76 9 12 44 74 56 6 20
100 100 100 100 100 99 100 100 100 100 100 100 100 100 100 100 100 100 100 100 100 100 100 100 100 100 100 100 100 100 100 100 100 74 98 100 100 100 100 100 100 100 54 10 45 28 5 5 15 53 7 5 5 50
100 100 97 100 100 100 100 100 100 100 100 100 100 100 100 100 100 100 100 100 100 100 100 100 100 100 100 100 100 100 100 100 45 100 78 100 70 61 95 95 99 20 21 5 5 8 47 89 68 24 18 6 5 60
87 98 100 100 99 100 100 100 100 100 100 100 100 100 100 100 100 100 100 100 100 100 100 100 100 100 100 100 100 100 98 93 100 100 51 72 26 18 50 50 74 47 5 5 6 36 24 5 25 60 24 38 27 5
74 86 27 100 100 100 100 100 100 100 100 100 100 100 100 100 100 100 100 100 100 100 100 100 100 100 100 100 97 98 98 87 89 100 83 28 6 22 14 38 14 5 5 6 11 22 33 74 94 91 90 50 17 6
37 98 48 86 100 100 100 100 100 100 100 100 100 100 100 100 100 100 100 100 100 100 100 100 100 100 100 100 100 100 100 100 100 57 45 26 40 90 100 20 5 27 70 91 96 74 100 66 40 97 100 15 5 19
66 100 94 17 62 100 100 100 100 100 100 100 100 100 100 100 100 100 100 100 100 100 100 100 100 100 100 100 100 100 100 91 16 20 80 100 100 96 64 91 100 100 100 100 100 100 98 90 91 73 17 5 29 84
100 100 100 99 100 100 100 88 98 98 100 100 100 100 100 100 100 100 100 100 100 100 100 100 100 100 100 100 100 100 100 76 98 100 100 100 100 100 100 100 100 100 100 100 100 98 100 100 92 6 5 5 92 100
75 100 100 100 100 100 100 100 100 99 68 95 100 100 100 100 100 100 100 100 100 100 100 100 100 100 100 100 100 80 100 100 100 100 100 100 100 100 100 100 100 100 100 100 55 68 27 5 5 5 7 36 93 99
100 100 100 100 99 98 98 100 100 96 96 100 100 100 100 100 100 100 100 100 100 100 100 100 100 100 100 100 100 100 100 100 100 100 100 100 100 100 100 100 100 60 31 9 5 5 5 5 5 12 49 69 99 55
100 100 100 100 100 96 78 39 6 70 100 91 97 100 100 100 100 100 100 100 100 100 100 100 100 100 100 100 100 100 100 100 100 100 100 100 100 100 99 6 2 5 5 5 30 5 5 9 5 21 79 86 100 97
100 100 100 100 100 100 100 98 7 5 6 51 63 90 99 100 100 100 99 100 100 100 100 100 100 100 100 100 100 100 100 100 100 100 94 68 23 4 5 4 5 8 5 50 5 53 17 5 18 30 32 97 96 91
100 100 100 100 100 100 96 38 23 5 16 72 53 41 45 82 76 80 98 92 24 5 5 19 8 23 33 23 11 15 21 26 7 0 3 5 2 3 5 5 5 48 24 6 5 13 33 7 19 96 86 87 100 100
100 100 100 100 100 100 100 100 100 66 62 34 6 5 5 58 88 100 87 71 5 5 3 1 0 1 3 5 2 0 4 4 5 5 4 5 1 0 1 5 5 5 5 5 13 52 61 99 73 88 98 100 100 100
100 100 100 100 100 100 74 90 94 100 80 88 89 45 65 89 78 96 63 3 5 2 19 0 0 0 0 0 0 0 0 0 8 5 5 76 92 26 5 5 5 5 6 97 99 90 98 100 92 90 99 100 100 100
100 100 100 100 100 95 88 91 98 97 97 90 86 87 91 82 25 3 0 2 5 5 72 68 3 0 0 1 0 2 5 72 66 5 1 5 5 19 62 100 91 93 96 79 99 99 100 100 99 93 100 100 100 100
90 83 91 35 42 47 73 95 85 90 98 82 66 92 84 18 5 0 0 10 7 36 15 11 8 5 5 20 38 79 87 72 46 9 6 28 66 83 90 93 100 100 100 99 100 100 90 98 100 100 100 100 100 100
95 77 52 83 66 44 15 36 28 61 7 5 23 43 5 5 2 24 55 83 96 92 98 100 100 94 88 78 75 96 100 100 100 100 100 100 100 100 100 100 100 100 100 100 100 97 98 100 100 100 100 100 100 100
100 92 60 99 100 89 39 5 5 5 4 5 5 13 83 54 96 91 90 97 99 85 62 46 54 94 96 95 99 94 100 99 97 85 100 100 100 100 100 100 100 100 100 100 93 90 96 85 91 94 93 96 100 100
79 80 76 100 99 44 5 5 5 36 35 55 74 72 87 99 100 100 100 99 94 100 100 99 100 100 100 100 99 100 100 100 100 100 100 100 100 100 100 100 100 100 100 100 100 100 100 87 77 99 88 93 100 100
89 100 96 87 68 16 47 80 76 78 45 9 33 11 44 100 100 100 100 100 100 100 100 100 100 100 100 100 100 100 100 100 100 100 100 100 100 100 100 100 100 100 100 100 100 100 100 99 100 100 100 100 100 100
95 98 98 99 44 46 51 58 70 68 33 8 29 82 100 100 100 100 100 100 100 100 100 100 100 100 100 100 100 100 100 100 100 100 100 100 100 100 100 100 100 100 100 100 100 100 100 100 100 100 100 100 100 100
99 100 100 99 100 34 37 4 2 4 12 5 73 100 100 100 99 100 100 99 100 100 100 100 100 100 100 100 100 100 100 100 100 100 100 100 100 100 100 100 100 100 100 100 100 100 100 100 100 100 100 100 100 100

GFSWCAN_prec_cloud_015.txt.gz
Cloud_Cover
100 100 100 100 100 100 100 100 87 100 100 100 100 100 100 100 100 100 100 100 100 100 100 100 96 32 64 100 100 100 100 100 100 100 96 54 97 5 5 5 7 32 37 75 71 92 86 22 60 74 35 56 98 31
100 100 100 100 100 100 100 100 100 100 100 100 100 100 100 100 100 100 100 100 100 100 100 100 100 100 100 100 100 100 100 100 100 100 98 85 100 90 37 5 5 11 7 7 52 43 86 100 100 100 96 70 86 76
100 100 100 100 100 100 100 100 100 100 100 100 100 100 100 100 100 100 100 100 100 100 100 100 100 100 100 100 100 68 13 91 45 6 11 83 100 6 98 37 21 33 5 9 45 73 96 100 100 100 94 84 22 100
100 100 100 100 100 100 100 100 100 100 100 100 100 100 100 100 100 100 100 100 100 100 100 100 100 100 100 100 72 70 75 100 100 100 99 100 100 5 70 5 96 98 23 19 92 51 87 43 64 64 100 96 100 88
100 100 100 100 100 100 100 100 100 100 100 100 100 100 100 100 100 100 100 100 100 92 100 100 100 100 100 100 95 100 100 100 100 100 100 82 5 10 82 44 100 100 100 26 68 94 66 78 100 65 100 94 86 35
100 100 100 100 100 100 100 100 100 100 100 100 100 100 100 100 100 100 100 100 100 100 100 100 100 100 100 100 100 100 100 100 100 74 88 23 72 35 100 98 100 100 100 15 82 53 42 65 100 100 97 18 6 5
100 100 100 94 96 99 100 100 100 100 100 100 100 100 100 100 100 90 76 98 100 100 99 100 86 98 100 100 100 100 100 100 100 82 86 88 74 33 100 82 100 80 44 67 37 57 39 100 99 61 92 46 16 5
92 83 100 96 96 76 93 100 100 100 100 100 100 100 100 100 100 100 89 100 83 94 97 100 90 87 100 100 100 100 100 96 92 50 84 100 97 99 100 100 100 56 48 16 70 76 100 93 55 78 76 8 11 45
99 100 100 100 89 75 90 100 100 100 100 100 100 100 100 100 100 100 100 100 100 87 56 100 99 91 100 100 100 100 100 100 100 100 100 80 100 99 100 99 61 83 35 59 38 99 56 48 97 91 96 89 100 83
100 92 100 100 95 70 70 100 100 100 100 100 100 100 100 100 100 100 100 100 100 100 92 100 100 100 100 100 100 100 100 100 100 91 100 100 100 99 100 100 100 79 24 42 93 75 86 100 100 100 100 100 10 5
100 100 100 100 100 100 100 100 100 100 100 100 100 100 100 100 100 100 100 100 100 100 100 100 100 100 100 100 100 100 100 100 100 100 100 100 74 100 100 100 94 88 89 61 99 100 100 100 100 100 85 5 9 5
100 100 100 100 100 100 100 100 100 100 100 100 100 100 100 100 100 100 100 100 100 100 100 100 100 100 99 92 91 100 100 100 100 88 100 100 94 100 74 100 100 100 100 100 100 97 95 100 71 18 5 5 5 5
96 100 100 100 100 100 100 100 100 100 100 100 100 100 100 100 100 100 100 100 100 100 100 100 100 100 100 100 100 100 100 100 93 100 91 81 100 93 100 100 94 36 22 57 55 16 6 5 5 5 5 5 45 5
5 5 96 100 100 100 100 100 100 100 100 100 100 100 100 100 100 100 100 100 100 100 100 100 100 100 100 100 100 100 100 97 100 100 64 100 97 82 68 85 19 14 6 8 5 5 5 5 5 22 83 21 30 14
5 5 11 60 100 100 100 100 100 100 100 100 100 100 100 100 100 100 100 100 100 100 100 100 100 100 100 100 100 100 100 100 94 100 100 100 100 100 100 100 96 8 68 34 37 5 75 28 5 5 6 5 5 42
72 90 100 52 74 100 100 100 100 100 100 100 100 100 100 100 100 100 100 100 100 100 100 100 100 100 100 100 100 100 100 100 100 100 100 100 100 100 100 78 15 62 85 30 29 58 25 36 40 62 14 31 56 95
17 99 8 5 88 100 100 100 100 100 100 100 100 100 100 100 100 100 100 100 100 100 100 100 100 100 100 100 100 100 100 100 100 100 100 100 100 100 52 67 100 100 52 6 5 28 77 87 72 69 96 72 55 5
36 52 30 35 59 100 100 100 100 100 100 100 100 100 100 100 100 100 100 100 100 100 100 100 100 100 100 100 100 97 95 100 100 100 100 100 100 100 100 100 100 100 100 87 100 100 100 90 100 52 38 31 5 32
86 100 97 93 98 100 100 100 96 67 100 100 100 100 100 100 100 100 100 100 100 100 100 100 100 100 100 100 100 100 100 100 100 100 100 100 100 100 98 97 100 100 100 100 100 100 100 100 88 8 5 40 46 69
99 100 100 100 74 100 100 100 99 86 87 92 90 100 100 100 100 100 100 100 100 100 100 100 100 100 100 100 100 100 100 100 100 100 100 100 100 100 100 100 100 100 100 100 100 100 60 15 5 5 5 8 25 48
100 100 100 100 100 100 93 60 100 100 100 58 70 55 100 100 100 100 100 100 100 100 100 100 100 100 100 100 100 100 100 100 100 100 100 100 100 100 100 100 100 100 100 23 5 5 5 4 5 5 90 90 100 90
100 100 100 100 100 92 66 14 67 43 72 99 76 80 89 100 100 100 97 99 96 7 54 87 84 76 93 89 100 97 100 100 100 100 100 100 96 77 56 26 6 2 5 28 4 42 35 18 12 28 90 100 96 94
100 100 100 100 100 99 81 51 43 24 62 81 63 96 96 100 97 66 96 53 13 4 4 5 5 4 2 1 0 0 0 0 1 1 0 5 5 4 5 5 5 47 22 6 5 5 5 25 90 100 100 100 94 100
100 100 100 100 100 98 78 97 100 97 58 63 66 40 47 70 73 88 50 5 2 2 2 0 0 0 0 0 0 2 2 0 0 2 5 4 5 5 5 11 42 11 9 24 19 45 61 99 100 100 100 100 100 100
100 100 100 100 100 100 100 100 100 100 100 100 99 36 72 59 71 21 5 4 12 31 37 9 0 0 2 5 9 53 56 17 4 5 24 35 32 6 5 5 5 5 6 90 100 99 100 100 100 100 100 97 99 100
100 100 100 100 100 100 100 100 100 100 100 100 99 80 75 91 79 20 6 68 99 69 94 80 38 40 34 83 43 36 45 39 42 26 62 85 51 70 76 85 89 66 79 92 100 93 100 100 100 100 99 100 100 100
100 100 100 100 100 100 100 100 100 100 100 96 86 90 76 20 5 43 67 72 97 97 100 97 93 74 72 81 87 98 100 100 100 100 100 86 66 88 100 100 100 100 100 99 100 100 100 97 99 100 100 100 100 100
100 100 100 100 100 100 82 44 50 45 26 18 29 51 5 5 50 95 96 95 93 96 91 100 100 95 97 95 100 100 100 100 100 87 83 67 99 100 100 100 100 100 100 100 100 100 100 100 100 100 100 100 100 100
100 97 53 79 79 52 15 5 33 13 5 5 40 12 84 67 100 100 98 99 100 99 98 96 98 94 100 100 100 100 100 100 100 95 100 100 100 100 100 100 100 100 100 100 100 100 100 100 100 100 100 100 100 100
100 100 88 90 28 6 78 13 88 91 9 10 19 9 36 99 100 100 100 100 99 100 100 100 100 100 100 100 100 100 100 100 100 100 100 100 100 100 100 100 100 100 100 100 100 100 100 100 100 100 100 100 100 100
100 100 100 94 82 95 100 89 89 70 54 67 65 70 100 100 100 100 100 100 100 100 100 100 100 100 100 100 100 100 99 100 100 100 100 100 100 100 100 100 100 100 100 100 100 100 100 100 100 100 100 100 100 100
100 100 100 100 100 99 68 99 100 94 86 85 92 98 100 100 100 100 100 100 100 100 100 100 100 100 100 100 100 100 100 100 100 100 100 100 100 100 100 100 100 100 100 100 100 100 100 100 100 100 100 100 100 100
100 100 100 100 98 98 83 33 6 5 31 61 96 99 100 100 100 100 100 100 100 100 100 100 100 100 100 100 100 100 100 100 100 100 100 100 100 100 100 100 100 100 100 100 100 100 100 100 100 100 100 100 100 100

GFSWCAN_prec_cloud_018.txt.gz
Cloud_Cover
100 100 100 100 100 100 100 100 100 100 100 100 100 100 100 100 100 100 100 100 100 100 71 70 100 98 100 52 100 79 98 100 100 100 100 100 100 100 94 41 23 14 26 82 55 86 26 4 32 46 5 5 63 92
100 100 100 100 100 100 100 100 100 100 100 100 100 100 100 100 100 100 100 100 100 100 100 100 78 95 97 100 100 100 46 92 100 100 100 77 89 84 70 30 9 5 7 6 4 5 4 96 98 34 5 5 58 98
100 100 100 100 100 100 100 100 100 100 100 100 100 100 100 100 100 100 100 100 100 100 100 100 100 100 100 100 100 100 100 100 100 100 100 84 100 100 100 100 99 13 85 4 3 2 2 43 84 37 5 29 82 93
100 100 100 100 100 100 100 100 100 100 96 100 100 100 100 100 100 100 100 100 100 100 100 100 100 100 100 100 100 100 100 100 100 100 100 100 99 100 72 100 100 100 100 83 5 5 34 98 38 44 13 27 100 100
100 100 100 100 100 100 100 100 100 100 100 100 100 100 100 100 100 100 100 98 100 88 96 100 100 100 100 82 100 100 100 100 100 100 100 97 92 99 73 67 100 100 100 50 60 73 78 36 53 85 44 100 100 100
100 100 100 100 100 100 100 100 100 100 100 100 100 100 99 90 100 100 100 100 100 100 99 100 100 77 40 77 99 99 92 100 100 100 100 90 100 100 100 99 100 100 100 100 100 80 17 51 8 11 77 85 94 100
100 100 100 100 100 100 100 100 100 100 100 100 100 100 100 100 100 100 100 100 100 100 100 100 88 96 100 100 100 100 100 100 100 99 79 100 100 46 100 75 100 100 100 100 92 40 74 20 79 82 100 98 74 46
100 100 100 100 100 100 100 100 100 100 100 100 100 100 100 100 100 100 100 100 100 100 100 92 98 100 100 100 100 100 100 100 100 100 75 98 91 88 100 100 100 100 100 69 10 5 16 98 100 99 100 73 38 80
100 100 100 100 100 100 87 99 99 100 100 100 100 100 100 100 100 100 100 100 100 100 100 100 100 100 100 100 100 100 100 100 90 100 100 73 98 94 100 100 100 90 80 60 22 79 84 99 78 81 34 39 52 17
100 100 99 100 100 100 100 99 97 100 100 100 100 100 100 100 100 100 100 100 100 100 54 100 100 100 100 100 100 100 100 100 100 68 93 100 100 100 100 100 99 58 98 98 100 88 74 52 96 71 41 54 37 100
100 99 89 30 100 99 94 77 100 100 100 100 100 100 100 100 100 100 100 100 100 100 100 100 100 100 100 100 100 100 100 100 100 92 96 80 97 100 100 100 100 96 100 100 100 94 88 95 62 83 95 63 88 53
100 100 100 94 92 100 70 99 100 100 100 100 100 100 100 100 100 100 100 100 100 100 100 100 100 100 100 100 100 100 100 100 100 93 100 93 99 98 100 100 100 100 100 100 94 85 79 79 78 65 86 54 5 5
100 100 100 100 98 97 94 100 100 100 100 100 100 100 100 100 100 100 100 100 100 100 100 100 100 100 100 100 100 100 100 100 100 100 99 98 100 100 98 100 100 99 100 99 91 99 100 100 100 99 52 13 5 49
100 100 100 100 100 100 100 100 100 96 98 100 100 100 100 100 100 100 100 100 100 100 100 100 100 100 100 100 100 100 100 100 100 100 82 99 100 96 92 100 99 46 96 89 100 100 100 100 100 100 97 100 99 100
26 100 100 100 100 100 100 100 100 99 98 100 100 100 100 100 100 100 100 100 100 100 100 100 100 100 100 100 100 100 100 100 100 100 100 100 100 100 100 100 100 61 27 11 92 100 100 100 100 100 100 100 52 96
5 95 96 37 59 100 100 100 100 100 100 98 100 100 100 100 100 100 100 100 100 100 100 100 100 100 100 100 100 100 100 100 100 100 100 100 100 100 100 100 99 94 98 99 100 99 100 100 100 100 100 99 79 96
11 99 23 5 92 78 83 100 100 100 100 100 100 100 100 100 100 100 100 100 100 100 100 100 100 100 100 100 100 100 100 100 100 100 100 100 100 100 100 100 100 98 95 100 100 100 100 98 100 100 100 98 100 100
93 74 98 38 55 70 94 70 93 100 100 97 100 100 100 100 100 100 100 100 100 100 100 100 100 100 100 100 100 100 100 100 100 100 100 100 100 100 100 100 100 100 100 100 100 100 100 100 100 100 100 100 48 4
99 50 74 100 76 98 96 83 91 96 100 100 100 100 100 100 100 100 100 100 100 100 100 100 100 100 100 100 100 100 100 100 100 100 100 100 100 100 100 100 100 99 100 100 100 100 100 100 97 53 5 5 5 34
89 92 97 100 100 100 85 97 95 98 75 98 94 100 100 100 100 100 100 100 100 100 100 100 100 100 100 100 100 100 100 100 100 100 100 100 100 100 100 100 100 100 100 100 100 88 14 4 1 0 1 27 69 74
100 100 100 100 99 97 87 70 71 56 76 86 100 81 100 100 100 100 100 100 100 100 100 100 100 100 100 100 100 100 100 100 100 100 100 100 100 100 100 100 100 96 35 5 1 0 0 0 2 4 90 99 100 100
100 100 100 100 100 81 62 37 79 50 95 100 100 99 96 96 100 100 94 55 74 82 100 100 100 100 100 100 100 100 100 100 92 24 3 1 2 2 4 5 5 3 0 1 29 26 12 4 5 5 90 100 100 100
100 100 100 100 100 80 77 46 77 81 86 100 99 100 100 100 100 58 95 66 22 5 5 24 14 44 36 65 49 36 11 0 1 2 0 0 2 5 5 19 50 72 95 98 72 65 16 29 23 97 100 100 100 100
100 100 100 100 100 100 78 96 84 59 80 89 95 88 82 95 59 71 66 54 31 19 3 3 4 3 2 0 6 38 5 5 2 5 4 5 5 14 53 16 27 41 86 79 73 64 72 93 22 62 97 100 100 100
100 100 100 100 100 100 100 100 100 87 97 73 54 87 79 97 97 64 8 61 95 86 91 48 5 5 60 88 66 86 48 5 21 11 5 5 18 26 40 24 5 5 5 6 22 84 93 100 99 100 98 96 94 98
100 100 97 97 100 100 100 100 99 100 100 100 100 100 100 91 72 50 84 100 100 100 100 100 84 86 96 80 70 64 78 44 79 85 34 71 75 82 86 95 88 60 84 95 100 100 100 100 100 100 97 100 100 100
100 100 94 97 100 100 100 100 100 100 100 100 100 100 98 62 28 59 90 98 100 100 100 100 100 98 92 90 87 92 100 100 91 97 74 58 100 100 100 100 100 100 88 92 100 100 100 100 100 100 100 100 100 100
100 100 100 100 100 100 100 100 100 100 100 100 100 99 97 52 73 96 100 100 100 100 100 100 99 94 100 96 95 98 94 87 72 33 3 89 100 80 27 96 100 100 100 99 100 100 100 100 100 100 100 100 100 100
100 100 100 100 100 100 100 100 100 100 100 93 84 94 84 98 100 100 100 100 99 100 100 98 97 92 99 99 99 100 100 99 98 80 86 93 58 44 89 98 95 98 99 86 100 100 100 100 100 100 100 100 100 100
100 100 100 99 98 99 99 82 93 99 13 43 32 9 59 100 100 100 100 100 100 100 99 100 100 100 100 100 95 98 100 100 100 100 100 100 100 100 100 100 100 100 100 100 96 99 100 100 100 100 100 100 100 100
100 100 99 94 98 98 100 96 100 99 100 84 78 89 98 100 100 100 100 100 100 100 100 100 100 100 100 100 100 100 100 99 100 99 99 100 100 100 100 100 100 100 100 100 100 100 100 100 100 100 100 100 100 100
100 100 100 95 98 94 100 100 100 100 83 100 99 100 100 99 100 100 100 100 100 100 99 100 100 100 100 100 100 100 100 100 100 100 100 100 100 100 100 100 100 100 100 100 100 100 100 100 100 100 100 100 100 100
95 90 86 80 61 57 77 5 4 5 62 44 98 97 97 99 100 100 100 97 100 100 100 100 100 100 100 98 34 100 100 96 78 100 100 100 95 95 100 100 100 100 100 100 100 100 100 100 100 100 100 100 100 100

GFSWCAN_prec_cloud_021.txt.gz
Cloud_Cover
100 100 100 100 100 100 100 100 100 100 100 100 100 100 100 100 100 100 100 100 100 100 40 8 78 5 5 5 13 5 5 14 93 47 86 99 49 55 83 100 100 5 29 15 70 52 40 3 4 5 5 3 5 5
100 100 100 100 100 100 100 100 100 100 100 100 100 100 100 100 100 100 100 100 100 100 100 61 84 38 50 31 100 79 29 95 34 89 100 95 87 100 100 100 97 14 69 100 99 71 14 2 5 5 5 5 16 5
100 100 100 100 100 100 100 100 100 100 100 100 100 100 100 100 100 100 100 100 100 100 100 100 100 100 100 100 100 100 100 100 100 100 100 100 100 100 100 100 100 100 100 100 50 7 34 5 5 6 8 51 48 92
100 100 100 100 100 100 100 100 100 100 100 100 100 100 100 100 98 100 100 98 100 100 100 100 100 100 100 100 100 100 100 100 100 100 100 100 100 100 100 100 100 100 100 87 5 5 23 6 19 6 12 31 99 100
100 100 100 100 100 100 100 100 100 100 100 100 100 100 100 100 100 97 62 84 98 92 100 100 100 100 99 100 100 100 100 100 100 100 100 100 100 100 100 100 100 100 100 100 14 44 98 14 18 62 90 100 97 70
100 100 100 100 100 100 100 100 100 100 100 100 100 100 100 100 100 77 90 98 100 100 86 98 100 100 100 100 100 100 100 100 100 100 100 83 100 100 100 100 100 100 100 100 42 100 32 70 100 100 31 10 42 76
100 100 100 100 100 100 100 100 100 100 100 100 100 100 100 100 100 100 100 100 100 94 99 93 94 56 64 98 100 100 100 100 100 100 99 100 100 99 100 100 100 100 100 100 100 100 100 100 100 88 46 73 81 86
100 100 100 100 100 100 100 100 100 100 100 100 100 100 100 100 100 97 100 100 100 100 98 77 85 100 100 100 100 100 100 100 100 100 91 100 100 100 100 100 100 100 100 100 100 98 100 100 97 63 96 93 79 38
100 100 100 100 100 100 100 100 100 100 100 100 100 100 100 100 100 100 100 100 100 53 67 100 100 100 100 100 100 100 100 100 99 100 100 98 100 100 100 100 100 100 100 100 100 100 100 100 100 87 45 72 89 75
100 100 100 100 100 100 100 100 100 100 100 100 100 100 100 100 100 100 100 100 100 100 100 100 100 100 100 100 100 100 100 100 100 100 100 100 100 100 100 100 100 99 93 100 100 100 100 100 95 100 98 95 76 80
100 100 100 96 81 100 100 100 100 100 100 100 100 100 100 100 100 100 98 100 100 100 100 100 100 100 100 100 100 100 100 100 100 54 86 60 93 100 100 100 100 100 100 100 100 100 100 97 99 100 95 96 84 77
100 100 100 100 98 100 100 100 100 100 100 100 100 100 100 100 100 100 100 100 100 100 100 100 100 100 100 100 100 100 100 100 86 65 100 100 100 100 100 100 100 100 100 100 100 100 100 100 100 87 97 84 80 100
100 100 100 100 92 98 100 100 100 100 100 100 100 100 100 100 100 100 100 100 100 100 100 100 100 100 100 100 100 100 100 100 100 100 94 100 100 100 100 100 100 100 100 100 100 100 100 100 100 100 100 100 100 84
100 100 100 100 100 100 100 100 99 100 100 100 100 100 100 100 100 100 100 100 100 100 100 100 100 100 100 100 100 100 100 100 100 100 85 100 100 100 100 100 100 100 100 100 100 100 100 100 100 100 100 99 74 94
100 100 100 100 100 100 100 100 100 80 74 100 90 100 99 100 100 100 100 100 100 100 100 100 100 100 100 100 100 100 100 100 100 100 100 100 100 100 100 100 100 100 100 100 100 100 100 100 99 100 100 100 100 100
100 100 100 100 100 100 100 100 100 100 95 98 100 100 100 100 100 100 100 100 100 100 100 100 100 100 100 100 100 100 100 100 100 100 100 100 100 100 100 100 85 80 99 98 100 100 96 91 100 100 100 100 100 100
100 100 100 100 100 100 100 100 100 97 89 100 100 100 100 100 100 100 100 100 100 100 100 100 100 100 100 100 100 100 100 100 100 100 100 100 100 100 100 100 100 100 100 100 100 100 100 100 100 100 100 100 100 100
90 100 100 100 100 100 100 100 100 100 100 100 100 100 100 100 100 100 100 100 93 100 100 100 100 100 100 100 100 100 100 100 100 100 100 100 100 100 100 100 100 100 100 100 100 100 100 100 100 100 100 100 82 2
97 35 60 100 63 85 89 52 100 100 100 100 100 100 100 100 100 100 100 100 100 100 100 100 100 100 100 100 100 100 100 100 100 100 100 100 100 100 100 100 100 98 92 99 100 100 100 100 100 100 93 1 0 0
90 42 90 100 86 99 53 11 18 13 94 42 95 100 98 100 100 100 100 100 100 76 37 98 100 100 100 100 100 100 100 100 100 100 100 100 100 100 100 100 100 100 100 100 100 100 100 100 99 18 2 8 52 70
88 64 100 96 83 88 71 81 99 50 32 92 100 99 100 100 100 100 100 100 100 30 12 5 32 5 6 66 100 100 100 100 100 100 100 100 100 100 100 100 100 100 100 100 100 100 47 15 5 5 94 100 100 94
100 99 100 100 100 91 45 65 74 27 96 96 100 99 100 99 100 100 95 63 32 5 5 11 35 27 75 34 5 4 0 0 0 7 2 5 12 52 70 54 16 5 5 51 88 74 5 20 94 96 99 91 100 100
100 100 100 100 94 93 89 80 83 77 55 92 100 97 100 100 100 78 94 85 5 5 5 14 13 5 20 4 5 0 1 2 5 5 5 2 0 1 3 5 5 6 13 10 65 86 89 99 98 91 57 100 100 100
90 100 100 100 94 100 100 95 70 77 87 97 100 100 92 96 25 73 40 77 90 15 17 11 1 0 2 3 39 45 6 5 5 5 5 8 65 92 39 7 6 7 40 80 76 85 85 58 42 86 100 100 100 100
59 100 100 100 86 99 82 99 100 51 67 93 68 76 47 12 39 20 11 73 100 61 62 7 5 6 72 28 63 27 5 5 50 22 5 5 8 30 32 9 32 99 99 97 91 89 74 79 74 88 96 78 96 100
99 100 80 92 92 96 95 72 57 100 100 100 96 52 86 54 66 34 89 96 100 97 95 85 47 72 13 24 41 91 78 32 5 35 25 30 98 97 98 96 90 43 69 99 100 100 100 94 89 94 95 94 100 99
100 100 81 94 100 100 100 94 99 100 100 100 97 100 89 76 86 98 100 98 99 100 100 100 99 97 91 87 47 79 92 78 27 62 8 99 99 72 90 99 98 100 86 100 100 100 100 98 100 99 78 97 100 99
100 100 100 100 100 100 100 100 100 100 100 100 100 100 99 44 80 98 100 95 100 100 100 100 98 61 88 97 99 92 27 5 5 5 26 100 74 5 5 56 94 33 43 99 96 100 100 100 100 100 98 100 100 100
100 100 100 100 100 100 100 100 100 100 100 100 99 95 90 99 100 100 100 100 100 100 97 97 93 85 57 85 79 97 24 34 5 26 49 49 37 38 86 91 97 91 99 100 91 99 100 100 100 100 100 100 100 100
100 100 100 100 100 100 98 100 100 99 91 47 37 55 93 99 99 100 100 99 86 83 94 100 100 73 65 67 53 10 90 95 68 84 97 92 100 93 47 87 100 100 100 100 100 73 92 100 100 100 100 100 100 100
100 100 100 100 100 100 100 100 100 100 100 100 85 91 88 97 100 100 99 99 99 60 87 73 82 58 62 75 96 92 73 38 64 98 97 94 100 93 58 56 45 99 100 84 69 100 97 100 100 100 100 100 100 100
100 100 100 94 78 71 100 99 86 94 54 100 94 98 100 98 91 89 89 99 95 62 68 62 78 96 45 100 99 49 99 90 66 8 92 100 100 84 76 5 48 86 100 85 61 89 100 97 100 100 100 100 100 100
82 82 53 40 82 100 82 5 8 27 68 66 100 100 100 99 94 100 99 93 37 32 60 55 58 47 100 100 67 80 47 5 24 77 90 100 100 42 10 60 96 100 93 14 77 100 100 100 100 100 100 100 100 100

GFSWCAN_prec_cloud_024.txt.gz
Cloud_Cover
100 100 100 100 100 100 100 100 100 100 100 100 100 100 100 100 100 100 100 100 100 90 8 22 69 99 100 29 5 6 38 96 84 52 40 94 35 33 62 67 60 70 92 100 100 100 80 8 5 10 91 89 18 100
100 100 100 100 100 100 100 100 100 100 100 100 100 100 100 100 100 100 100 100 100 98 16 12 70 45 9 37 6 5 51 9 8 68 65 87 51 78 99 100 100 100 100 100 100 100 100 19 6 69 8 16 100 100
100 100 100 100 100 100 100 100 100 100 100 100 100 100 100 100 100 100 100 100 100 100 100 80 100 63 46 97 77 13 5 14 56 100 100 100 100 100 100 100 100 100 100 100 95 100 100 28 99 96 31 100 92 68
100 100 100 100 100 100 100 100 100 100 100 100 100 100 100 100 100 100 100 100 100 100 100 100 100 100 100 100 100 100 100 100 100 100 100 100 100 100 100 100 100 100 100 41 5 9 33 100 84 22 71 93 54 99
100 100 100 100 100 100 100 100 100 100 100 100 100 100 100 100 100 100 100 100 100 100 100 100 100 100 100 100 100 100 100 100 100 100 100 100 100 100 100 100 100 100 100 42 6 54 18 25 5 32 96 100 100 100
100 100 100 100 100 100 100 100 100 100 100 100 100 100 100 100 100 81 99 100 100 100 100 100 100 100 100 100 100 100 100 100 100 100 100 100 100 99 100 100 100 100 100 90 96 99 95 58 94 100 100 100 100 93
100 100 100 100 100 100 100 100 100 100 100 100 100 100 100 100 96 61 96 100 90 68 87 100 99 100 100 100 100 95 65 46 81 100 100 100 100 100 100 100 100 100 100 100 100 100 100 100 100 100 100 100 97 68
100 100 100 100 100 100 100 100 100 100 100 100 100 100 100 100 100 100 100 100 98 79 40 76 100 100 100 100 100 100 100 100 83 58 93 100 95 98 100 100 100 100 100 100 100 100 100 100 100 100 100 76 88 76
100 100 100 100 100 100 100 100 100 100 100 100 100 100 100 100 100 100 100 100 95 32 92 100 100 100 100 100 100 100 100 100 85 98 100 48 96 99 100 100 100 100 100 100 100 100 100 100 100 100 100 100 100 100
100 100 100 100 100 100 100 92 100 100 100 32 77 59 100 100 100 100 100 100 100 100 92 100 100 100 100 100 100 100 100 100 100 49 97 100 100 100 100 100 100 100 100 100 100 92 99 100 100 100 100 100 100 100
100 100 100 100 100 100 100 100 100 100 100 100 99 100 100 99 97 80 82 82 96 99 100 100 100 100 100 100 100 100 95 87 100 34 73 88 98 100 100 100 100 100 100 100 100 100 100 100 100 100 100 100 100 92
100 100 100 96 100 97 100 100 100 100 100 93 100 100 100 100 100 100 95 100 100 100 100 100 100 100 100 100 100 100 100 100 100 100 100 100 100 100 100 100 100 100 100 100 100 100 100 100 100 100 100 100 97 100
100 100 100 100 100 100 92 100 100 100 100 100 100 100 100 100 100 100 100 100 100 100 100 100 100 100 100 100 100 100 100 100 100 100 100 100 100 100 100 100 100 100 100 100 100 100 100 100 100 100 100 98 100 100
100 100 100 100 100 100 100 100 100 100 100 100 100 100 100 100 100 100 100 100 100 100 100 100 100 100 100 100 100 100 100 100 100 99 89 100 100 100 100 100 100 100 100 100 100 95 100 100 100 100 100 100 99 100
100 100 100 100 100 100 97 99 100 100 100 100 100 100 98 100 100 100 100 100 100 100 100 100 100 100 100 100 100 100 100 100 100 100 100 100 100 100 100 100 100 100 100 100 100 100 100 100 100 100 100 100 100 100
100 100 100 100 100 100 99 100 100 100 100 100 100 100 100 100 100 100 100 100 100 100 100 100 100 100 100 100 95 100 100 100 100 100 100 100 100 100 100 100 100 100 100 100 100 100 98 99 100 100 100 100 100 100
100 100 100 100 100 100 100 100 100 100 100 100 100 100 100 100 100 100 100 100 100 100 100 100 100 100 100 100 100 100 100 100 100 100 100 100 100 100 100 100 100 100 100 100 100 100 100 100 100 100 100 100 100 100
100 100 100 100 100 100 100 100 100 100 100 100 100 100 100 100 100 100 100 100 100 100 100 100 100 100 100 100 100 100 100 100 100 100 100 100 100 100 100 100 100 100 100 100 100 100 100 100 100 100 100 100 100 100
100 100 100 100 100 100 100 100 100 100 100 100 100 100 100 100 100 100 100 100 100 100 100 100 100 99 100 100 100 100 100 100 100 100 100 100 100 100 100 100 100 100 100 100 100 100 100 100 100 100 100 78 25 4
77 53 88 92 76 30 50 98 100 100 100 100 100 100 100 100 100 100 100 100 99 96 100 78 25 19 9 9 36 19 45 71 76 90 97 100 97 100 100 100 100 100 100 100 100 98 100 68 29 5 5 7 87 98
26 23 55 20 25 5 25 81 90 83 100 100 100 100 100 100 100 100 100 100 77 75 20 14 42 8 7 5 5 5 5 5 0 0 4 4 3 5 5 5 5 5 5 5 8 5 6 15 5 5 94 100 100 100
91 81 100 93 99 59 22 70 63 67 99 93 100 99 100 98 100 99 94 99 64 14 26 76 61 56 87 58 75 6 3 0 2 5 5 5 24 44 74 65 9 7 9 31 100 100 100 62 58 61 97 100 92 100
91 93 100 100 41 84 79 90 83 93 72 95 97 95 100 100 100 86 96 87 78 94 62 51 82 96 91 65 48 61 7 5 10 14 15 25 32 15 5 5 25 77 100 99 100 100 85 22 43 67 74 76 100 100
88 100 98 54 78 92 91 100 96 100 100 100 100 99 98 100 98 94 78 96 100 83 71 35 8 54 31 66 95 83 15 5 5 6 10 5 43 36 57 92 93 96 98 98 90 98 96 100 83 93 83 89 96 98
84 68 76 84 61 85 99 77 94 98 92 99 99 90 82 90 93 97 47 100 100 100 92 24 8 52 78 85 92 100 68 71 100 97 78 89 86 36 7 5 5 85 91 100 100 100 100 94 100 98 100 100 100 99
94 56 71 41 76 76 94 98 100 99 100 100 100 100 100 82 81 52 97 100 100 95 90 100 94 94 98 95 95 100 90 52 18 38 84 97 85 78 98 96 97 69 68 78 100 100 100 100 100 100 97 85 87 100
83 63 93 100 100 100 97 94 100 100 100 100 100 99 100 100 100 98 100 100 100 100 100 100 100 100 96 91 99 82 11 30 38 6 87 99 88 33 48 96 100 98 81 75 100 100 100 100 100 100 100 100 100 100
100 100 100 100 100 99 100 100 100 100 100 100 100 100 100 100 100 100 100 98 100 99 100 100 100 82 94 100 99 88 70 12 5 49 100 97 90 47 12 48 47 9 12 14 100 100 100 100 100 100 100 100 100 100
100 100 100 100 100 100 100 100 100 100 100 100 100 100 100 100 100 100 100 100 100 100 100 98 99 100 93 93 77 67 50 5 5 44 100 91 49 34 99 50 49 5 7 98 89 54 67 99 100 100 100 100 100 100
100 100 100 100 100 100 100 100 100 100 100 100 100 100 100 100 100 100 100 86 89 92 99 100 96 72 100 97 90 65 99 99 76 82 100 100 100 100 84 60 5 6 92 100 100 70 6 16 42 94 100 100 100 100
100 100 100 100 100 100 100 92 100 100 99 98 100 100 95 93 98 96 88 85 78 92 100 97 92 99 97 95 97 100 88 67 89 100 96 95 98 99 90 6 5 42 88 100 94 56 97 92 94 90 79 93 100 100
100 100 100 100 93 74 95 99 95 49 97 79 99 95 100 97 97 100 100 100 74 92 100 100 100 99 99 100 100 99 91 100 94 97 66 94 98 54 52 42 66 94 94 16 8 62 90 100 82 74 71 85 100 100
76 70 73 69 57 52 44 12 40 14 81 98 99 100 100 92 79 90 100 74 26 62 87 77 80 92 90 100 64 5 12 34 94 58 34 67 48 93 13 69 78 62 40 18 8 80 96 65 28 58 61 80 100 100

GFSWCAN_prec_cloud_027.txt.gz
Cloud_Cover
100 96 80 100 100 100 100 100 100 100 100 100 100 100 100 100 100 100 97 61 79 97 100 100 100 100 100 11 5 7 46 100 27 70 75 40 43 40 94 100 99 61 51 98 99 100 100 100 95 93 97 16 36 96
98 49 100 100 79 100 100 100 100 100 100 100 100 100 100 100 100 100 100 100 99 80 100 100 100 100 100 86 6 22 93 14 5 11 54 68 87 88 61 98 96 100 100 100 100 100 100 60 22 66 46 27 35 97
98 100 99 94 98 100 100 100 100 100 100 100 100 100 100 100 100 100 100 100 96 90 100 100 100 100 97 96 89 75 100 55 5 5 24 100 61 49 82 100 100 100 100 100 100 100 92 5 41 44 42 9 69 98
100 98 95 84 100 100 100 100 100 100 100 100 100 100 100 100 100 100 100 100 100 98 97 100 100 100 100 100 100 100 100 48 10 58 87 93 26 96 100 100 100 100 100 98 8 60 8 100 100 87 18 9 100 100
100 100 100 100 100 100 100 100 100 100 100 100 100 100 100 100 100 100 100 100 100 100 100 100 100 100 100 100 100 100 100 100 100 100 100 100 100 100 100 100 100 100 100 7 5 45 25 83 92 76 27 57 99 100
100 100 100 100 100 100 100 100 100 100 100 100 100 100 100 100 100 100 100 100 100 100 100 100 100 100 100 100 100 100 100 100 100 100 100 100 100 78 100 100 100 100 7 5 10 75 75 60 5 28 65 88 48 81
100 100 100 100 100 100 100 100 100 100 100 100 100 100 100 100 100 100 100 100 100 100 100 100 100 100 100 100 100 100 100 100 100 100 100 100 100 95 99 100 100 100 100 99 100 72 61 99 99 100 100 100 100 100
100 100 100 100 100 100 100 100 100 100 100 100 100 100 100 100 91 100 99 100 100 100 100 100 100 100 100 100 100 100 100 100 98 100 100 100 93 100 100 100 100 100 100 100 95 100 100 100 100 100 100 100 100 100
100 100 100 100 100 100 100 100 100 100 100 100 100 100 100 91 100 100 100 100 100 70 98 100 100 100 100 100 100 100 100 100 89 100 100 47 100 100 100 100 84 89 100 100 100 100 100 100 100 100 100 100 100 100
100 100 100 100 100 100 100 100 100 100 100 100 99 100 100 100 100 100 94 41 64 71 100 100 100 100 100 100 100 65 99 100 96 66 100 100 100 100 89 100 100 100 100 100 100 100 100 100 100 100 100 100 100 100
100 100 100 100 100 100 100 100 100 100 100 100 100 100 100 100 100 97 97 52 76 78 94 100 100 100 100 100 100 95 92 94 100 19 99 98 100 100 100 100 100 100 100 100 100 100 100 100 100 100 100 100 100 100
100 100 100 100 100 100 100 100 100 100 100 100 100 100 100 100 100 99 93 100 94 100 100 100 100 100 100 100 100 100 100 100 100 100 100 100 100 100 100 100 100 100 100 100 100 100 100 100 100 100 100 100 100 100
100 100 100 100 100 100 100 100 100 100 100 100 100 100 88 76 90 99 100 100 100 100 100 100 100 100 100 100 100 100 100 100 100 100 100 100 100 100 100 100 100 100 100 100 100 100 100 100 100 100 100 100 100 100
100 100 100 100 100 100 100 100 100 100 100 100 100 100 100 94 100 100 100 100 100 100 100 100 100 100 100 100 100 100 100 100 100 100 100 100 100 100 98 100 100 99 100 100 100 100 100 100 100 100 100 100 100 100
100 100 100 100 100 100 100 100 100 100 100 100 100 100 100 100 99 100 100 100 100 100 100 100 100 100 100 100 100 100 100 100 100 98 99 100 100 100 100 100 99 78 98 100 100 100 100 100 100 100 100 100 100 100
100 100 100 100 100 100 100 100 94 100 100 100 100 100 100 100 100 100 100 100 100 100 100 100 100 100 100 100 100 100 100 83 87 100 100 100 100 100 100 100 100 100 96 83 100 100 100 100 100 100 100 100 100 100
100 100 100 100 100 100 100 94 69 100 99 100 100 100 100 100 100 100 100 100 100 100 100 100 100 100 100 100 100 100 100 100 100 100 100 100 100 100 100 100 100 100 100 100 100 100 100 100 100 100 100 100 100 100
100 100 100 100 91 96 100 100 91 100 95 100 100 100 100 100 100 100 100 100 100 100 94 100 99 95 100 100 100 100 100 100 100 100 100 100 100 100 100 100 100 100 100 100 100 100 100 100 100 100 100 98 79 54
100 100 100 100 100 100 100 100 99 100 100 100 100 100 100 100 100 100 100 100 95 98 91 100 88 82 100 100 100 100 100 100 100 100 100 100 100 100 100 100 100 100 100 100 96 88 72 54 17 5 5 5 17 8
100 100 100 100 100 100 100 100 100 100 100 100 100 100 100 100 100 100 100 100 100 100 100 100 100 100 100 100 100 100 100 100 99 51 15 5 5 5 5 5 4 5 5 5 10 38 68 54 64 59 40 91 100 100
100 100 100 100 100 100 100 100 100 100 100 100 100 100 100 100 100 100 100 100 100 100 100 100 100 100 92 45 25 12 5 5 6 6 5 21 39 34 19 5 5 5 30 68 97 100 100 100 87 91 100 100 100 100
100 100 100 100 100 100 100 100 94 98 100 100 100 99 100 100 100 100 92 100 82 26 42 100 100 100 100 77 66 32 5 5 5 9 14 16 21 10 27 76 84 100 100 99 98 95 75 92 97 96 99 98 98 97
57 60 99 97 49 22 78 100 80 100 98 100 100 100 100 100 98 89 98 100 80 76 78 81 88 100 100 100 94 98 81 13 7 6 5 14 22 81 87 100 88 84 88 79 98 100 86 40 61 90 94 93 92 100
54 91 92 96 56 56 51 96 80 78 99 99 100 100 100 100 100 99 74 100 100 100 98 87 50 58 66 82 79 59 5 5 48 79 68 92 100 100 74 85 99 100 61 55 54 83 67 72 40 92 98 100 93 99
65 55 95 76 100 38 71 84 89 98 73 93 100 100 95 93 96 100 92 100 100 100 100 99 100 76 98 100 100 94 47 88 100 100 100 100 75 7 6 9 45 98 69 92 95 100 100 89 89 99 100 100 100 100
74 73 75 84 92 90 64 76 78 80 100 100 100 100 100 100 100 89 96 100 100 100 99 100 100 100 100 100 99 100 100 100 99 88 100 54 5 44 75 76 62 22 43 89 100 100 100 100 100 100 100 76 88 100
89 7 62 77 86 89 99 99 86 99 100 100 100 100 100 100 100 95 100 100 100 100 100 100 100 100 100 100 100 100 100 35 40 78 77 67 45 29 37 68 88 44 37 22 89 100 100 100 100 100 100 97 100 100
71 63 89 100 97 100 100 100 100 100 100 100 100 100 100 100 100 96 96 100 100 100 100 100 96 99 100 100 100 100 97 71 100 89 99 41 21 84 63 30 51 28 15 9 69 99 100 100 100 100 100 100 100 100
100 100 100 100 100 100 100 100 100 100 100 100 100 100 100 100 100 100 100 100 100 100 100 100 100 100 100 91 88 98 58 6 5 48 99 100 91 62 98 34 43 5 32 84 74 66 95 97 99 100 100 100 94 86
79 100 100 100 98 100 100 100 100 100 100 100 100 100 100 100 100 100 100 100 100 100 100 100 100 80 100 90 100 97 88 89 69 84 100 100 100 99 91 50 65 85 99 99 97 34 45 36 35 33 19 33 83 98
100 100 100 100 93 97 100 100 98 100 100 100 100 100 100 99 100 100 100 98 98 98 99 96 99 100 95 100 100 100 85 28 93 98 99 99 100 100 95 66 64 96 100 95 52 59 94 86 88 55 44 37 48 62
100 100 100 100 99 100 53 50 92 83 100 100 100 100 96 81 95 100 100 100 85 86 100 100 100 100 97 99 100 91 64 70 99 100 97 98 96 89 91 67 92 99 64 48 11 72 98 88 78 99 100 87 65 62
85 96 77 92 70 71 65 26 60 73 99 100 100 100 100 100 84 99 99 82 43 63 67 53 76 98 85 64 7 5 46 62 95 100 100 100 96 100 81 96 100 100 73 63 52 87 100 100 98 97 89 84 74 58

GFSWCAN_prec_cloud_030.txt.gz
Cloud_Cover
100 100 100 100 100 100 16 95 100 100 100 100 100 100 100 100 100 100 99 8 10 79 64 98 99 100 93 24 6 5 83 95 64 70 57 18 31 71 97 60 47 25 57 93 67 67 48 5 36 91 99 100 100 54
100 100 100 100 100 90 100 100 100 100 100 100 100 100 100 100 100 100 74 66 63 60 93 100 59 94 51 11 51 22 16 6 20 15 81 72 99 99 56 86 58 27 56 12 92 100 47 59 100 100 100 100 100 99
100 100 100 100 100 100 100 100 100 100 100 100 100 100 100 100 100 100 99 22 24 69 73 99 97 97 100 100 59 52 90 38 14 59 64 57 50 84 99 100 53 97 95 100 96 100 100 100 100 100 97 51 22 92
100 100 100 100 100 100 100 100 100 100 100 100 100 100 100 100 100 100 100 84 35 78 98 100 99 100 100 100 100 100 99 87 22 32 92 58 28 66 82 70 100 100 100 100 100 100 24 100 100 78 37 61 100 100
100 100 100 100 100 100 100 100 100 100 100 100 100 100 100 100 100 100 100 100 100 100 100 100 88 89 100 100 100 100 100 100 100 99 100 95 83 53 97 100 100 100 100 46 10 26 5 39 98 91 92 100 100 100
100 100 100 100 100 100 100 100 100 100 100 100 100 100 100 100 100 100 100 100 100 100 100 98 100 100 94 96 100 100 100 100 100 100 100 100 100 100 100 100 100 99 6 5 5 5 5 30 56 54 63 100 100 92
100 100 100 96 100 100 100 100 100 100 100 100 100 100 100 100 100 100 100 100 100 100 100 100 100 100 100 100 100 100 100 100 100 100 100 100 100 32 77 94 100 100 94 77 13 42 83 50 34 41 60 84 100 100
100 100 100 100 100 100 100 100 100 100 100 100 100 100 100 100 100 100 100 100 100 100 100 100 100 100 100 100 100 100 100 100 100 100 100 100 100 100 100 100 100 74 73 66 68 43 47 98 100 100 100 100 100 100
100 100 100 100 100 100 100 100 100 100 100 100 100 100 100 100 100 100 100 100 100 100 100 100 100 100 100 100 100 100 100 100 100 100 100 70 100 100 99 100 100 100 100 100 100 100 100 100 100 100 100 100 100 100
100 100 100 100 100 100 100 100 100 100 100 100 100 100 100 100 100 100 100 100 98 100 100 100 100 100 100 100 100 96 99 100 96 100 100 100 100 100 100 100 100 100 100 100 100 100 100 100 95 100 100 100 100 100
100 100 100 100 100 100 100 100 100 100 100 100 100 100 100 100 99 86 72 60 46 25 100 100 100 100 100 100 100 72 95 92 100 45 100 100 100 100 100 100 100 100 100 100 72 100 100 100 100 100 100 100 100 100
100 100 100 100 100 100 100 100 100 100 100 96 99 100 100 100 90 93 90 96 94 100 100 100 100 100 100 100 100 97 87 90 92 79 96 100 100 100 100 100 100 100 100 100 100 100 100 100 100 100 100 100 100 100
100 100 100 100 100 100 100 100 100 100 100 100 100 100 100 97 99 91 100 100 100 100 100 100 100 99 95 97 99 100 100 100 100 100 100 100 100 100 100 100 100 100 100 99 100 100 97 100 100 100 100 100 100 100
100 100 100 100 100 100 100 100 100 100 100 100 100 99 99 100 100 100 100 100 100 100 100 100 100 100 100 100 100 100 100 100 100 100 100 100 100 100 100 100 100 100 100 100 100 100 100 100 100 100 100 100 100 100
100 100 100 100 100 100 100 100 100 100 100 100 100 100 100 100 100 100 100 100 100 100 100 100 100 100 100 100 100 100 100 100 100 100 100 100 100 100 100 99 98 88 72 64 68 95 100 100 90 100 100 100 100 100
100 100 100 100 100 100 100 100 100 100 100 100 100 100 100 100 100 100 100 100 100 100 100 100 100 100 100 100 100 100 100 100 100 100 100 100 100 97 95 97 80 85 98 100 100 100 100 100 100 100 100 100 100 100
100 100 100 100 100 100 100 100 100 100 100 100 100 100 100 100 100 100 100 100 100 100 100 100 99 100 77 80 90 99 76 96 100 99 100 100 100 100 100 100 100 100 100 100 100 100 100 100 100 100 100 100 100 100
100 100 100 100 100 100 88 97 98 99 99 100 100 100 100 100 100 100 100 100 100 100 100 100 96 100 100 100 100 100 100 100 100 100 100 100 100 100 100 100 100 100 100 100 100 100 98 88 94 98 67 26 8 7
100 100 100 100 100 100 100 100 100 100 100 100 100 100 100 100 100 100 100 100 100 100 100 100 100 100 100 100 100 100 100 100 100 100 100 100 100 100 100 97 88 42 6 21 66 99 100 100 98 96 98 100 100 100
100 100 100 100 100 100 100 100 50 91 100 100 100 100 100 100 100 100 100 100 86 75 78 95 98 100 100 100 100 100 100 100 99 96 80 61 27 8 71 35 14 8 30 32 49 24 11 24 88 87 55 83 99 94
100 100 100 100 100 100 100 100 100 100 100 100 100 100 100 100 100 100 100 100 100 100 100 92 100 100 100 100 100 80 69 42 15 11 53 100 37 5 51 74 80 76 81 80 90 81 5 84 92 97 89 97 100 100
100 100 100 100 100 100 100 100 100 100 100 100 100 100 100 100 100 100 100 100 100 100 100 100 100 100 100 96 92 61 40 5 7 9 5 11 28 61 100 92 5 47 69 92 100 100 81 67 55 57 81 84 88 90
100 100 100 100 100 100 100 100 100 100 100 100 100 100 100 100 100 100 100 100 96 99 100 100 100 100 100 100 100 100 82 38 6 35 79 85 90 90 97 89 58 17 5 5 22 71 88 41 32 58 62 63 66 82
12 79 96 100 100 97 94 100 100 100 100 100 100 100 98 100 98 99 100 100 100 100 100 100 100 100 100 100 99 96 100 85 62 83 71 64 72 97 100 100 99 71 22 60 5 19 28 49 45 57 58 79 82 100
6 74 45 92 98 16 90 98 93 98 100 97 100 100 100 89 94 99 99 97 100 100 100 100 100 100 99 100 100 96 76 77 94 100 100 100 100 92 65 74 32 73 21 94 97 99 79 63 60 61 65 77 100 100
69 82 69 98 88 80 84 82 98 84 90 97 98 84 91 97 82 92 97 100 100 100 100 100 100 100 100 100 100 100 98 100 100 100 100 93 99 96 53 55 46 7 28 94 100 100 100 96 100 95 97 77 83 94
94 50 79 76 90 96 67 79 88 85 82 61 79 99 100 100 99 100 100 100 100 100 100 100 100 100 100 100 100 100 100 99 95 88 95 97 57 38 19 75 92 5 26 43 99 100 100 100 100 100 100 66 93 100
83 84 55 81 74 85 96 85 100 94 98 98 91 98 100 100 100 100 100 100 100 100 100 100 100 100 100 100 100 100 95 100 100 85 62 54 87 85 19 22 21 74 80 68 100 100 100 100 100 100 100 100 99 82
87 85 79 80 76 77 88 99 100 100 100 100 100 100 100 100 97 100 100 100 100 100 100 100 100 98 95 100 100 99 98 82 29 6 53 100 91 24 71 57 48 28 81 100 100 84 80 98 99 100 90 66 54 67
89 85 65 58 50 89 95 95 100 100 100 100 100 100 100 100 100 100 100 100 100 100 100 100 100 94 100 56 100 92 93 100 45 34 100 100 90 100 100 100 100 92 100 100 74 21 91 48 93 44 15 6 10 30
100 98 99 93 100 100 100 100 100 100 100 100 100 100 100 99 99 99 100 98 100 100 92 98 100 100 98 100 100 99 63 17 99 100 99 98 100 100 100 100 98 100 99 59 58 86 100 100 100 94 80 33 54 66
100 100 98 94 100 83 87 86 93 100 100 100 99 96 85 92 94 99 99 99 82 60 99 100 100 98 99 100 94 89 22 80 99 100 100 100 100 100 100 98 100 100 90 63 50 67 100 100 98 100 100 100 99 100
85 95 95 95 70 64 58 54 39 67 100 99 100 100 100 96 89 98 100 99 83 81 69 54 75 100 100 72 5 16 46 85 100 100 100 100 100 100 100 96 100 100 100 100 80 94 100 100 100 100 100 100 97 88

GFSWCAN_prec_cloud_033.txt.gz
Cloud_Cover
100 100 100 100 100 100 100 100 100 100 100 100 100 100 100 100 100 100 100 100 100 98 13 5 28 84 77 6 27 15 10 12 36 15 7 15 51 73 53 12 7 6 13 34 58 67 5 5 5 52 100 100 100 79
100 100 100 100 100 100 100 100 100 100 100 100 100 100 100 100 100 100 100 100 100 93 6 5 48 100 53 34 66 6 16 13 5 5 6 73 100 79 70 99 78 91 49 35 96 41 5 7 40 58 85 100 78 6
100 100 100 100 100 100 100 100 100 100 100 100 100 100 100 100 100 100 100 100 100 86 5 5 33 90 80 38 80 58 16 5 5 6 50 38 32 66 38 46 99 92 78 74 5 45 5 8 19 74 100 87 86 16
100 100 100 100 100 100 100 100 100 100 100 100 100 100 100 100 100 100 95 100 100 56 99 72 48 78 94 76 52 41 51 87 56 76 66 44 51 99 95 26 100 99 100 14 23 91 98 100 100 100 64 29 8 14
100 100 100 100 100 100 100 100 100 100 100 100 100 100 100 100 100 100 100 100 100 25 77 88 28 79 95 98 98 75 67 55 61 97 82 100 100 93 73 78 100 100 93 99 100 100 100 100 92 85 55 40 37 45
100 100 100 100 100 100 100 100 100 100 100 100 100 100 100 100 100 100 100 100 90 6 30 11 40 77 100 100 100 100 100 100 100 100 100 100 100 100 99 100 100 100 100 71 16 30 75 31 8 6 24 59 34 64
100 100 100 100 100 100 100 100 100 100 100 100 100 100 100 100 100 100 100 100 100 84 59 92 82 80 76 82 99 98 85 68 60 99 100 100 100 69 96 100 100 100 94 91 6 32 43 34 62 28 5 5 6 27
100 100 100 100 100 100 100 100 100 100 100 100 100 100 100 100 100 100 100 100 99 100 100 100 100 100 100 100 100 100 100 99 100 100 100 100 100 100 100 100 100 100 99 82 44 36 7 9 18 5 34 82 100 100
100 100 100 100 100 100 100 100 100 100 100 100 100 100 100 100 100 100 100 100 100 100 100 100 100 100 100 100 100 100 100 100 100 100 100 100 100 100 100 100 100 100 100 100 100 68 72 78 88 98 100 100 100 100
100 100 100 100 100 100 100 100 100 100 100 100 100 100 100 100 100 100 100 100 100 100 100 100 100 100 100 100 100 100 100 100 92 96 100 100 100 100 100 100 100 100 100 100 100 100 100 100 100 100 100 100 100 100
100 100 100 100 100 100 100 100 100 100 100 100 100 100 100 100 99 96 81 100 100 100 100 100 100 100 100 100 100 100 100 100 100 100 100 100 100 100 100 100 100 100 100 100 100 100 100 100 100 100 100 100 100 100
100 100 100 100 100 100 100 100 100 100 100 100 100 100 100 98 100 100 96 100 100 100 100 100 100 100 100 100 98 100 100 95 100 100 100 100 100 100 100 100 100 100 100 100 100 100 100 100 100 100 100 100 100 100
100 100 100 100 100 100 100 100 100 100 100 100 100 100 100 100 99 79 100 100 100 100 100 100 100 100 100 100 100 100 100 100 83 100 100 100 100 100 100 100 100 100 100 100 100 100 100 100 100 100 100 100 100 100
100 100 100 100 100 100 100 100 100 100 100 100 100 100 80 83 100 100 100 100 100 100 100 100 100 100 100 100 100 100 100 100 100 99 100 100 100 96 100 100 100 100 100 100 100 100 98 87 97 76 86 93 100 100
100 100 100 100 100 100 100 100 100 100 100 100 100 97 96 100 100 100 100 100 100 100 100 100 100 100 100 100 100 100 100 89 96 99 100 100 100 100 100 100 100 100 100 95 82 84 80 76 92 87 92 97 98 100
100 100 100 100 100 100 100 100 100 100 100 100 100 100 100 100 100 100 100 100 100 100 100 100 100 100 100 100 100 100 100 100 98 97 100 100 100 100 100 99 98 96 91 77 90 93 99 100 94 99 100 97 75 80
100 100 100 100 100 100 100 100 100 100 100 100 100 100 100 100 100 100 100 100 100 100 100 100 100 100 100 100 100 100 99 92 100 100 100 100 100 100 100 100 97 98 100 96 83 99 77 74 98 87 40 12 12 9
100 100 100 100 100 100 100 100 100 100 100 100 100 100 100 100 100 100 100 100 100 100 100 100 96 100 100 100 100 94 100 99 100 100 100 100 100 98 88 75 69 41 45 72 98 99 91 20 5 18 54 12 20 6
100 100 100 100 100 100 100 100 100 100 100 100 100 100 100 100 100 100 100 100 100 100 100 100 100 100 100 100 98 100 98 96 100 87 86 99 85 90 71 33 38 82 98 49 5 5 5 5 25 5 13 5 32 50
100 100 100 100 100 100 100 100 94 100 100 99 100 100 100 100 100 100 100 100 83 89 99 100 100 95 100 94 100 98 97 82 82 94 99 94 30 29 49 99 82 35 5 6 5 5 5 5 5 7 10 5 59 37
100 100 100 100 100 98 100 100 100 100 100 100 100 100 100 100 100 100 100 47 7 95 49 85 93 100 78 69 32 8 18 66 97 69 84 98 100 100 94 58 8 5 5 5 32 26 5 31 34 5 36 50 32 80
100 100 100 100 100 100 100 100 100 100 100 100 100 99 100 100 100 100 100 68 67 87 93 100 100 100 100 100 100 99 93 100 100 100 97 65 86 85 25 5 8 34 8 5 12 53 11 5 24 35 59 62 80 88
100 100 100 100 100 95 87 86 65 100 100 100 100 97 100 100 99 92 99 99 100 100 100 100 100 100 100 100 100 97 100 86 82 90 97 92 99 95 80 72 57 16 5 5 5 5 5 27 32 68 73 82 93 90
100 100 100 100 100 100 100 100 100 100 100 100 100 100 99 100 99 97 100 100 100 100 100 100 100 100 100 100 100 100 100 100 100 100 100 100 100 100 98 100 91 46 40 8 5 19 25 46 49 62 79 96 97 100
99 100 99 100 100 100 100 100 70 97 97 81 42 58 82 70 83 100 100 100 100 100 100 100 100 100 100 100 100 100 100 100 100 100 100 100 100 99 89 80 66 66 67 73 76 89 70 67 73 84 89 98 100 100
99 90 72 100 96 80 95 78 98 86 87 70 94 76 74 77 96 94 100 92 100 100 100 100 100 100 100 100 100 100 100 100 100 100 100 97 96 100 94 84 32 5 52 98 100 100 99 89 97 100 94 85 96 100
94 97 91 100 99 95 96 89 93 96 95 91 94 99 100 100 100 100 100 100 100 100 100 100 100 100 100 100 100 100 100 100 100 100 100 100 64 10 5 11 41 28 93 96 100 100 100 100 100 100 100 99 100 100
100 92 72 90 77 89 81 88 100 100 100 99 100 100 100 100 100 100 100 100 100 100 100 100 100 100 100 100 100 100 100 100 100 86 53 63 75 83 54 50 12 95 73 69 96 95 88 100 100 100 100 100 99 100
79 85 62 81 78 84 94 89 92 92 89 67 68 68 86 100 100 100 100 100 100 100 100 100 100 100 100 100 100 99 84 42 22 5 6 7 9 22 14 84 66 55 74 97 60 76 94 100 99 91 26 58 59 50
72 77 83 92 98 99 94 89 84 86 75 78 96 100 100 100 100 100 100 100 100 100 100 100 98 85 82 33 97 42 85 93 33 5 44 70 26 90 94 100 100 82 99 98 36 10 77 45 51 6 5 5 49 56
99 99 100 99 96 98 94 91 100 100 99 100 98 98 97 98 100 100 100 100 100 100 97 90 79 100 76 99 96 51 22 17 99 100 100 96 100 99 93 98 100 100 100 100 77 66 100 76 80 76 53 37 32 59
100 100 98 89 100 90 42 92 94 80 100 100 96 93 94 96 94 100 98 100 100 60 92 100 78 87 99 100 99 89 66 84 93 100 100 100 100 88 100 100 100 100 100 97 89 64 94 100 88 81 90 80 73 74
92 98 98 96 93 86 85 70 48 72 100 99 100 100 100 96 88 99 100 100 100 100 93 52 70 100 100 99 28 16 38 66 93 100 100 100 100 100 100 99 95 86 80 95 98 84 63 88 74 86 90 94 64 47

GFSWCAN_prec_cloud_036.txt.gz
Cloud_Cover
100 100 100 100 100 100 100 100 100 100 100 100 100 100 100 78 96 48 100 100 100 100 100 100 45 95 85 24 48 100 59 45 27 51 36 5 40 10 5 5 7 25 37 67 65 74 49 5 33 96 98 77 8 32
100 100 100 100 100 100 100 100 100 100 100 100 100 100 100 98 52 100 100 100 100 100 100 86 79 100 38 7 21 70 59 63 98 94 46 64 95 67 9 36 14 7 7 7 6 5 5 22 81 17 8 80 82 48
100 100 100 100 100 100 100 100 100 100 100 100 100 100 100 100 100 100 100 100 100 100 100 12 56 98 5 6 8 81 88 100 44 20 58 64 100 27 78 77 31 40 29 5 5 8 5 5 5 5 5 18 100 100
100 100 100 100 100 100 100 100 100 100 100 100 100 100 100 100 100 100 100 100 100 100 100 24 17 100 39 44 5 18 99 58 18 61 49 66 88 69 10 6 58 5 5 5 5 5 5 7 45 97 100 98 37 5
100 100 100 100 100 100 100 100 100 100 100 100 100 100 100 100 100 100 100 100 100 100 100 28 9 6 37 79 80 74 53 8 13 34 71 63 89 93 88 86 96 60 64 50 93 100 100 100 100 81 8 5 5 5
100 100 100 100 100 100 100 100 100 89 100 100 100 100 100 100 100 100 100 100 100 99 76 88 7 5 27 72 91 100 92 100 53 22 69 93 100 100 100 100 100 100 100 100 48 42 15 6 5 41 68 17 61 8
100 100 100 100 100 100 100 96 100 100 100 100 100 100 100 100 100 98 100 100 100 100 100 97 61 5 26 54 72 97 100 100 79 100 100 100 100 100 100 100 100 100 93 33 8 34 82 98 22 8 5 5 12 20
100 100 100 100 100 100 100 100 100 100 100 98 100 100 98 100 100 100 100 100 100 100 100 97 54 28 22 96 98 91 91 79 100 100 100 100 100 99 94 100 96 57 37 86 100 73 28 48 48 30 61 94 100 100
100 100 100 100 100 100 100 100 100 100 100 99 100 100 100 100 100 100 100 100 100 96 99 100 100 74 90 96 93 86 67 100 70 100 98 92 100 98 100 100 100 100 100 100 83 84 100 100 89 78 99 100 100 100
100 100 100 100 100 100 100 100 100 100 100 100 100 100 100 100 100 100 100 100 100 100 100 100 100 100 79 96 100 99 100 84 98 100 100 100 100 100 100 100 100 100 100 100 100 98 100 100 96 100 100 87 98 100
100 100 100 100 100 100 100 100 100 100 100 100 100 100 100 100 100 100 99 100 100 100 100 100 100 100 100 100 100 100 100 100 100 100 100 100 100 100 100 100 100 100 89 88 100 100 100 99 100 100 100 100 100 100
100 100 100 100 100 100 100 100 100 100 100 100 100 100 100 100 92 93 100 100 100 100 100 100 100 100 100 100 100 100 100 98 95 100 100 100 100 100 100 100 100 100 100 100 100 100 100 100 100 100 100 100 100 100
100 100 100 100 100 100 100 100 100 100 100 100 100 100 100 96 100 100 100 100 100 100 100 100 100 100 100 100 100 99 100 96 73 100 100 100 100 100 100 100 100 100 100 100 100 100 100 100 100 100 100 100 100 90
100 100 100 100 97 100 100 100 100 100 100 100 100 100 100 100 100 100 100 100 100 100 100 100 100 100 100 100 100 100 100 100 100 100 100 99 100 97 98 96 91 100 100 100 100 100 100 100 88 51 51 36 8 50
100 100 100 100 100 100 100 100 100 100 100 100 100 100 100 100 100 100 100 100 100 100 100 100 100 100 100 100 100 100 100 100 96 99 100 100 100 98 89 100 100 99 98 100 94 96 57 8 5 8 23 5 5 5
100 100 100 100 100 100 100 100 100 100 100 100 100 100 100 100 100 100 100 100 100 100 100 100 100 100 100 100 100 99 100 99 100 100 100 100 100 100 99 85 97 92 83 72 72 81 39 52 68 57 27 5 5 12
100 100 100 100 100 100 100 100 100 100 100 100 100 100 100 100 100 100 100 100 100 100 100 100 100 100 100 100 100 100 100 100 100 100 100 100 99 100 100 94 93 99 100 100 50 76 78 24 5 5 2 5 5 5
100 98 100 100 100 100 100 100 100 100 100 100 100 100 100 100 100 100 100 100 100 100 100 100 96 99 97 96 98 100 100 100 100 100 100 100 100 100 100 91 63 54 87 94 72 11 5 5 5 5 23 44 2 0
100 100 100 100 100 100 100 100 100 100 100 100 100 100 100 100 100 100 100 100 100 100 100 100 100 100 100 100 100 100 100 97 92 98 100 100 100 95 92 61 56 45 71 6 5 5 7 11 30 4 2 3 5 2
100 100 100 100 100 100 100 100 100 100 100 100 100 100 100 100 100 100 100 100 100 100 100 100 100 100 100 100 100 100 99 99 55 100 100 100 80 69 71 52 92 98 78 12 12 5 5 5 5 5 5 5 5 5
100 100 100 100 100 100 100 100 100 100 100 100 100 100 100 100 100 100 97 24 65 99 100 100 100 100 100 93 87 89 71 79 100 100 78 85 68 65 86 100 100 45 24 14 56 5 5 44 8 5 5 51 50 85
100 100 100 98 100 100 100 100 100 100 100 100 100 100 100 100 100 100 95 60 93 100 100 100 100 100 95 86 70 86 87 97 100 100 93 93 100 100 100 100 100 71 80 86 100 99 62 5 5 5 59 77 62 97
100 100 100 100 100 86 100 96 90 98 98 100 95 87 98 96 97 97 90 92 100 100 100 100 100 100 100 98 83 89 96 82 96 100 100 100 100 96 81 90 100 99 100 100 93 15 5 12 17 55 88 92 100 100
100 100 100 100 96 96 94 99 97 90 100 100 84 90 84 98 93 95 100 100 100 100 100 100 100 100 100 100 100 100 100 100 100 100 100 99 100 100 100 100 100 100 100 100 93 68 59 81 50 85 100 100 100 100
100 100 99 100 100 100 100 100 100 100 100 100 100 100 94 80 98 100 100 100 100 100 100 100 100 100 100 100 100 100 100 100 100 100 100 100 100 100 100 100 100 99 88 78 67 72 83 96 100 100 100 100 100 100
97 100 97 99 100 100 100 100 98 98 100 93 93 93 100 100 100 100 100 100 100 100 100 100 100 100 100 100 100 100 100 100 100 100 100 100 100 100 100 93 61 78 100 100 100 94 93 100 100 100 100 100 100 100
97 100 90 99 100 89 84 92 93 92 96 97 96 98 98 98 100 100 100 100 100 100 100 100 100 100 100 100 100 100 100 100 100 100 100 100 100 95 77 67 54 96 99 100 100 100 100 100 100 100 100 100 100 100
100 95 96 92 87 89 88 80 92 97 97 89 91 91 100 98 95 100 100 100 100 100 100 100 100 100 100 100 100 100 100 100 100 100 100 99 99 100 100 100 91 72 80 98 91 100 100 100 100 100 100 100 100 100
84 84 72 67 81 89 92 95 95 92 89 94 100 99 99 100 100 100 100 100 100 100 100 100 100 100 100 100 100 100 100 100 100 78 56 17 35 93 100 100 100 100 100 100 68 100 100 100 100 100 100 100 100 100
88 86 73 50 65 96 98 87 99 92 88 99 96 98 100 100 100 100 100 100 100 100 100 100 100 100 100 97 99 99 100 95 75 20 5 12 71 100 100 100 100 100 100 100 100 100 88 90 100 100 98 100 100 100
78 81 92 96 95 98 96 96 100 100 100 100 100 100 100 100 100 100 100 100 100 100 100 99 86 96 76 60 17 9 65 91 75 84 98 100 100 100 100 100 100 100 100 100 100 100 100 98 100 100 100 100 100 98
49 88 73 54 99 96 80 99 93 96 100 100 100 100 100 100 100 100 100 100 100 99 89 95 100 100 100 99 73 69 65 86 100 100 100 100 100 100 100 100 100 100 100 100 100 100 100 100 100 100 100 100 100 95
91 86 94 96 88 96 99 67 26 91 100 100 100 100 100 100 100 100 100 100 100 100 100 100 100 100 78 57 57 88 78 100 87 80 100 100 100 100 99 100 100 100 100 100 100 100 100 100 99 96 98 80 63 53

GFSWCAN_prec_cloud_039.txt.gz
Cloud_Cover
33 20 99 100 100 100 100 100 100 100 100 100 100 100 100 100 93 100 100 100 100 68 53 55 14 100 100 100 100 83 59 46 83 32 39 34 58 7 5 5 5 10 7 41 6 63 63 20 59 98 72 12 20 19
100 100 100 100 100 100 100 100 100 100 100 100 100 100 100 100 100 100 100 100 99 39 89 34 94 100 100 60 60 5 27 7 8 94 51 25 93 68 5 6 5 5 7 5 5 5 12 54 13 14 35 34 17 5
100 100 100 100 100 100 100 100 100 100 100 100 100 100 100 100 100 100 100 100 100 98 79 84 100 100 100 50 79 97 59 69 100 76 5 51 100 56 80 12 5 16 5 6 33 5 5 5 5 5 5 5 5 9
100 100 100 100 100 100 100 100 100 100 100 100 100 100 100 100 100 100 100 100 100 100 100 100 100 100 98 74 25 67 100 100 100 99 12 75 100 93 48 21 6 9 5 34 88 5 5 5 5 12 22 68 100 87
100 100 100 100 100 100 100 100 100 100 100 100 100 100 100 100 100 100 100 100 100 100 100 100 100 100 78 76 39 100 100 100 100 94 71 100 89 62 24 5 24 21 11 6 5 34 68 89 100 100 100 39 5 5
100 100 100 100 100 100 100 100 100 100 100 100 100 100 100 100 100 100 100 100 100 100 100 100 100 100 73 99 98 77 100 98 100 100 100 100 100 31 77 53 46 78 14 12 99 100 100 100 94 31 17 81 94 92
100 100 100 100 100 100 100 100 100 100 100 100 100 100 100 100 100 100 100 100 100 100 100 100 100 98 61 98 100 45 83 94 71 65 96 96 90 35 76 69 100 100 100 100 100 100 93 35 13 72 74 94 44 100
100 100 100 100 100 100 100 100 100 100 100 100 100 100 100 100 100 100 100 100 100 100 100 100 100 88 33 76 96 86 48 10 46 88 90 88 87 87 78 100 100 100 100 100 91 8 5 13 41 68 63 54 58 91
100 100 100 100 100 100 100 100 100 98 88 100 100 100 100 100 100 100 100 100 99 100 100 100 100 100 75 94 92 91 49 99 68 100 98 98 100 100 100 100 100 88 85 77 93 70 94 100 70 91 62 81 86 49
100 100 100 100 100 100 100 100 100 100 100 100 98 95 97 100 100 100 100 100 100 100 100 100 100 100 100 97 100 92 100 82 98 90 83 100 99 99 98 81 62 80 100 100 100 100 100 100 78 83 95 62 74 98
100 100 100 100 100 100 100 100 100 100 100 100 98 100 100 100 100 100 100 100 91 94 96 100 100 100 100 100 100 79 100 83 100 60 92 94 95 99 98 91 92 86 100 100 100 71 67 92 83 88 97 96 100 100
100 100 100 100 100 100 100 100 100 100 100 100 100 100 100 100 100 100 100 100 100 100 100 100 100 100 100 100 100 100 100 98 90 84 100 100 100 100 100 100 100 98 99 100 100 100 100 100 99 96 100 100 100 100
100 100 100 100 100 100 100 100 100 100 100 100 100 100 100 100 100 100 100 100 100 100 100 100 100 100 100 94 92 97 100 82 97 100 100 100 100 100 100 100 100 100 100 100 100 100 100 100 100 100 100 100 98 34
100 100 100 100 100 100 100 100 100 100 100 100 100 100 100 100 100 100 100 100 100 100 100 100 100 100 100 100 100 100 98 96 100 100 100 100 100 100 100 100 100 100 100 100 100 100 100 100 100 100 93 71 50 41
100 95 99 100 100 100 100 100 100 100 100 100 97 100 100 100 100 100 100 100 100 100 100 100 100 100 100 100 100 100 100 100 96 100 100 100 100 100 100 100 100 100 100 100 100 92 98 100 90 63 18 5 5 5
100 100 93 100 100 100 100 100 100 100 100 100 100 100 100 100 100 100 100 100 100 100 100 100 100 100 100 100 100 99 99 100 100 100 100 100 100 100 100 100 87 84 89 91 89 73 73 86 22 20 5 0 2 5
100 100 100 100 100 100 100 100 100 100 100 100 100 100 100 100 100 100 100 100 100 100 100 100 100 100 100 100 100 100 100 100 100 100 100 100 100 98 100 98 100 97 95 98 77 88 10 5 3 0 0 0 0 2
100 100 100 100 100 100 100 100 100 100 99 100 100 100 100 100 100 100 100 100 100 100 100 100 100 100 100 100 100 100 100 100 100 100 100 100 100 100 100 100 100 100 96 58 5 5 1 0 0 0 0 2 5 5
94 94 100 100 100 100 100 100 100 100 100 100 100 100 100 100 100 100 100 100 100 100 100 100 100 100 100 100 100 100 100 100 100 100 100 100 100 100 100 100 100 79 22 90 79 6 5 2 5 5 5 5 6 5
100 100 100 100 100 100 100 100 100 100 100 100 100 100 100 100 100 100 100 100 100 100 100 100 100 100 100 100 100 100 100 100 100 100 100 100 100 100 100 100 81 59 84 72 62 5 5 5 5 5 5 5 39 34
100 100 100 100 100 100 100 100 100 100 100 100 100 100 100 100 100 100 100 100 100 100 100 100 100 100 100 100 100 100 100 100 91 68 87 100 100 91 84 63 93 100 100 77 5 7 33 37 6 5 29 92 97 100
100 100 100 100 100 98 100 100 100 100 100 100 100 100 100 100 100 100 100 100 100 100 100 100 100 100 100 100 100 100 100 100 100 100 100 94 96 98 96 100 100 84 57 72 64 62 43 59 63 90 99 100 75 100
100 99 100 100 100 100 100 100 100 100 100 100 100 100 100 100 100 100 100 100 100 100 100 100 100 100 100 100 100 98 92 89 96 100 99 100 100 97 90 87 100 98 81 92 91 100 98 98 96 87 100 100 100 100
74 80 76 99 88 100 100 100 100 100 100 100 100 100 100 98 92 100 100 100 100 100 100 100 100 100 100 100 100 100 100 100 100 100 100 100 100 100 100 100 100 100 100 99 83 97 99 100 99 100 100 99 100 100
9 96 19 28 42 46 70 90 98 97 100 93 96 100 96 86 98 100 100 100 100 100 100 100 100 100 100 100 100 100 100 100 100 100 100 100 100 100 98 99 100 100 100 100 100 100 100 100 100 100 97 100 100 100
70 100 85 98 82 82 83 98 100 100 100 99 100 100 96 98 100 100 100 100 100 100 100 100 100 100 100 100 100 100 100 100 100 100 100 98 98 100 100 100 100 100 100 100 100 100 94 96 98 100 100 100 100 100
91 100 100 100 100 100 100 100 97 100 100 100 100 100 99 100 100 100 100 100 100 100 100 100 100 100 100 100 100 100 100 100 100 100 96 91 87 82 95 99 98 100 99 100 100 100 100 100 100 100 100 100 100 100
100 100 96 100 100 100 100 100 100 100 100 100 98 99 100 100 100 100 100 100 100 100 100 100 100 100 100 100 100 100 100 97 100 92 96 93 100 100 100 100 85 62 96 100 100 100 100 100 100 100 100 100 100 100
100 100 92 56 92 100 100 100 100 100 100 100 100 100 100 100 100 100 100 100 100 100 100 100 100 100 100 100 100 100 100 99 51 5 5 29 72 99 100 100 100 100 100 100 100 100 100 100 100 100 100 100 100 100
100 96 97 83 94 99 100 100 100 100 100 100 99 98 100 100 100 100 100 100 100 100 100 100 100 100 100 100 100 100 100 81 19 5 5 43 100 100 100 100 100 100 100 100 100 100 100 100 100 100 100 100 100 100
99 100 100 94 100 100 100 100 98 99 100 100 100 100 100 100 100 100 100 100 100 100 100 100 100 100 100 95 87 76 93 100 95 87 97 100 100 100 100 100 100 100 100 100 100 100 100 100 100 100 100 100 100 100
89 98 99 91 100 100 88 100 100 100 100 100 100 100 100 100 100 100 100 100 100 100 84 100 100 100 100 100 100 99 25 85 100 100 100 100 100 100 100 100 100 100 100 100 100 100 100 100 100 100 100 100 100 100
100 96 95 99 98 100 95 99 86 99 100 100 100 100 100 100 100 100 100 100 100 100 100 100 100 100 94 88 84 84 78 100 95 99 99 100 100 100 99 100 100 100 100 100 100 100 100 100 100 100 100 100 100 97

GFSWCAN_prec_cloud_042.txt.gz
Cloud_Cover
67 99 100 100 95 14 1 2 5 66 30 3 20 80 100 100 95 100 100 100 100 91 53 72 81 5 11 65 100 100 100 4 100 100 100 39 31 44 57 5 5 5 8 65 6 81 62 9 6 7 5 14 5 5
7 46 5 5 5 4 16 5 9 5 2 1 47 100 100 100 100 100 100 100 100 100 89 7 5 14 69 100 100 100 100 100 100 100 51 46 99 67 6 5 5 5 7 5 5 5 5 5 5 12 97 86 24 19
100 100 100 100 100 100 100 100 31 21 93 72 22 85 100 99 100 100 100 100 100 100 5 70 84 50 5 93 100 98 55 100 100 100 16 29 96 6 77 6 5 8 36 30 13 5 8 64 5 70 26 33 82 82
100 100 100 100 100 100 100 100 100 100 100 100 100 100 100 100 100 100 100 57 67 21 96 27 86 62 59 44 100 90 100 100 96 8 5 66 88 7 5 16 33 26 7 7 44 5 5 5 34 52 17 80 100 100
100 100 100 100 100 100 100 100 100 100 100 86 96 100 100 100 100 100 100 100 98 1 53 100 96 96 23 78 100 100 100 100 44 23 70 84 51 10 5 6 54 100 100 100 33 92 20 11 42 97 99 100 100 100
100 100 100 100 100 100 100 100 100 100 100 100 100 100 100 100 100 100 80 6 90 6 73 100 100 42 93 100 100 100 100 99 10 48 73 100 100 32 86 23 11 74 6 9 5 6 18 6 8 43 95 100 100 99
100 100 100 100 100 100 100 100 100 100 100 100 100 100 100 100 100 100 100 76 100 100 100 100 100 93 100 100 100 100 100 36 16 37 90 100 100 97 92 65 100 100 98 38 7 21 27 74 89 100 100 100 80 67
100 100 100 100 100 100 100 100 100 100 100 100 100 100 100 100 100 100 100 100 100 100 100 100 100 100 100 100 100 100 100 73 33 85 93 100 92 100 95 100 100 100 79 35 24 7 44 95 100 100 86 88 39 46
100 100 100 100 100 100 100 100 100 100 100 100 100 100 100 100 100 100 100 100 93 100 97 100 100 100 100 100 100 100 100 93 81 100 97 40 89 96 100 78 87 52 96 94 97 100 100 93 70 87 60 67 43 39
100 100 100 100 100 100 100 100 100 100 100 100 100 100 100 100 100 100 96 58 80 100 100 100 100 100 100 100 100 100 91 82 100 100 87 99 100 100 88 100 92 75 100 50 74 100 99 93 99 100 100 100 99 100
100 100 100 100 100 100 100 100 100 100 100 100 100 100 100 100 100 91 100 100 100 100 95 100 100 100 100 100 100 98 90 74 96 100 98 78 100 100 100 99 47 82 100 100 100 99 100 98 100 100 98 80 70 49
100 100 100 100 100 100 100 100 100 100 100 100 100 100 100 100 100 100 100 100 100 100 100 100 100 100 100 100 100 100 100 100 98 99 97 94 100 86 89 96 96 92 100 100 100 100 100 100 100 100 98 80 84 96
100 100 100 100 100 100 100 100 100 100 100 100 100 100 100 96 100 100 100 100 100 100 100 100 100 100 100 100 100 100 100 100 100 100 100 100 100 100 100 100 100 100 100 100 100 100 100 100 100 100 100 100 100 100
100 100 97 100 100 100 100 100 100 100 100 100 100 100 100 100 100 100 100 100 100 100 100 99 100 100 100 100 100 100 100 99 99 99 89 100 100 100 100 100 100 100 100 100 100 100 100 100 100 100 100 100 96 24
100 100 100 100 100 100 100 100 100 100 100 100 100 100 100 100 100 100 100 100 100 100 100 100 100 100 100 100 100 100 100 99 93 88 100 100 100 100 100 100 100 100 100 100 100 100 100 100 100 100 86 30 5 10
93 88 95 100 100 100 100 100 100 100 100 100 100 100 100 100 100 100 100 100 100 100 100 100 100 100 100 100 100 100 100 100 100 100 100 100 100 100 100 100 100 100 100 100 100 100 100 100 95 67 56 6 5 5
100 90 97 100 96 100 100 100 100 100 100 100 100 100 100 100 100 100 100 100 100 100 100 100 100 100 100 100 100 100 100 100 100 100 100 100 100 100 100 100 100 100 100 100 100 97 93 66 5 5 5 5 1 0
17 54 99 80 99 58 97 100 100 100 100 100 100 100 100 100 100 100 100 100 100 100 100 100 100 100 100 100 100 100 100 100 100 100 100 100 100 100 100 100 100 100 100 100 100 79 14 5 5 5 4 0 3 3
63 69 24 21 60 54 100 100 100 100 100 100 100 100 100 100 100 100 100 100 100 100 100 100 100 100 100 100 100 100 100 100 100 100 100 100 100 100 100 100 100 100 96 74 45 25 31 6 4 5 5 5 5 5
53 92 100 97 100 85 73 98 100 100 100 100 100 100 100 100 100 100 100 100 100 100 100 100 100 100 100 100 100 100 100 100 100 100 100 100 100 100 100 100 100 97 93 94 88 82 67 5 5 7 13 13 77 70
72 67 100 100 100 90 100 97 100 100 100 100 100 100 100 100 100 100 100 100 100 100 100 100 100 100 100 100 100 100 100 100 100 100 100 100 100 100 100 100 100 100 87 94 100 92 5 5 22 54 32 85 42 53
82 80 94 96 100 100 100 82 100 100 100 100 100 100 100 100 100 100 100 100 100 100 100 100 100 100 100 100 100 100 100 100 100 100 100 100 100 100 100 100 100 95 100 98 60 92 84 98 78 54 81 73 83 89
87 81 93 88 89 100 100 100 100 100 100 100 100 100 100 100 100 100 100 100 100 100 100 100 100 100 100 100 100 100 100 100 100 100 100 100 100 100 100 100 100 100 100 100 97 92 96 49 99 42 86 87 80 97
94 100 88 68 18 93 100 100 100 100 100 100 100 100 100 100 100 100 100 100 100 100 100 100 100 100 100 100 100 100 100 100 100 100 100 100 100 100 100 100 100 100 83 89 99 99 100 98 71 99 97 77 99 99
4 36 62 98 100 100 89 100 100 100 100 98 100 100 100 100 100 100 100 100 100 100 100 100 100 100 100 100 100 100 100 100 100 100 100 100 100 100 100 100 95 100 94 100 100 98 92 75 94 95 94 97 100 100
80 100 97 100 97 97 100 100 100 100 100 94 100 100 65 86 96 100 100 100 100 100 100 100 100 100 100 100 100 100 100 100 100 100 100 100 100 100 99 96 100 100 100 98 100 100 100 100 100 100 99 100 100 100
98 100 100 100 100 98 99 100 90 97 99 100 100 97 96 100 100 100 100 100 100 100 100 100 100 100 100 100 100 100 100 94 96 97 100 100 100 100 100 99 100 85 68 100 100 100 100 100 100 100 100 100 100 100
100 100 100 100 100 100 100 100 100 100 100 94 100 92 98 100 100 100 100 100 100 100 100 100 100 100 100 100 100 100 100 100 100 100 100 100 98 100 88 100 89 77 99 99 84 100 100 100 100 100 100 100 100 100
100 100 84 51 99 100 100 100 100 100 100 100 100 100 100 100 100 100 100 100 100 100 100 100 100 100 100 100 100 100 99 79 33 5 12 84 100 100 98 100 100 100 100 100 100 100 100 100 100 100 100 100 98 100
100 95 98 97 95 100 100 100 100 98 100 100 95 100 100 100 100 100 100 100 100 100 100 100 100 100 100 100 100 100 98 63 53 84 90 100 100 100 100 100 100 100 100 100 100 100 100 100 100 100 100 100 100 100
100 98 89 98 100 100 100 99 98 100 100 98 98 97 100 100 100 100 100 100 99 100 100 99 98 100 100 99 100 100 100 100 89 96 83 98 100 100 100 100 100 100 100 100 100 100 100 100 100 100 100 100 100 100
98 100 94 92 100 100 100 100 99 100 100 100 100 97 100 100 100 100 100 100 100 100 96 100 100 100 100 100 100 99 98 96 100 100 100 100 100 100 100 100 100 100 100 100 100 100 100 100 100 100 100 100 100 89
99 98 94 98 100 100 99 98 100 100 98 100 100 100 100 100 100 100 100 100 100 100 100 100 100 100 100 100 89 90 100 100 97 100 100 99 76 58 100 100 100 100 100 100 100 100 100 100 100 100 100 100 100 96

GFSWCAN_prec_cloud_045.txt.gz
Cloud_Cover
46 6 14 98 96 100 98 34 100 100 100 100 91 44 36 7 5 100 94 100 100 100 96 55 5 0 0 8 4 6 100 100 100 100 92 21 80 96 73 100 5 7 44 15 59 83 8 5 5 5 5 5 3 5
34 63 100 100 100 100 100 100 100 100 100 98 46 15 5 5 16 100 98 14 96 100 62 40 36 0 0 3 4 37 100 100 100 100 100 100 100 99 85 100 90 29 66 33 5 5 5 7 12 30 9 5 5 5
100 100 100 100 100 100 100 100 100 100 21 5 0 0 1 28 7 35 100 97 100 100 100 99 20 84 6 100 100 7 92 100 99 100 100 100 100 100 100 100 93 94 32 55 5 5 5 30 49 53 63 21 11 22
100 94 100 73 53 7 5 9 90 100 21 5 4 40 57 30 100 100 100 100 100 100 100 100 97 100 88 100 100 72 100 100 100 100 100 100 100 100 100 100 100 94 7 16 5 5 5 65 54 57 87 32 30 72
81 100 100 100 74 6 5 5 3 2 17 6 5 28 20 94 93 100 100 100 100 100 100 100 100 100 61 19 99 100 100 100 100 100 100 100 100 100 100 89 85 86 33 9 56 5 9 18 46 37 93 95 100 94
100 100 100 100 100 100 100 9 5 5 4 2 11 98 100 100 100 100 100 100 100 100 100 100 100 100 29 100 100 85 100 100 100 100 100 100 100 100 100 73 100 53 24 12 33 70 100 100 28 5 43 61 34 9
100 100 100 100 100 100 100 100 100 100 47 96 100 100 100 100 100 100 100 100 100 100 100 100 100 100 99 95 100 100 100 100 38 77 100 100 100 100 100 66 100 98 56 21 8 66 88 100 52 38 27 11 5 8
100 100 100 100 100 100 100 100 100 100 100 100 100 100 100 100 100 100 100 100 100 100 100 100 100 92 50 96 100 100 100 100 100 85 100 100 100 100 34 100 100 100 100 80 62 38 49 72 86 67 62 29 64 68
100 100 100 100 100 100 100 100 100 100 100 100 100 100 100 100 100 100 100 100 100 88 100 100 100 100 98 72 99 100 100 100 100 100 100 100 100 42 99 100 100 100 100 100 100 80 12 35 61 77 74 80 70 100
100 100 100 100 100 100 100 100 100 100 100 100 100 100 100 100 100 100 100 100 100 100 100 100 100 100 100 100 100 75 100 100 100 100 100 100 100 100 100 100 100 67 98 76 49 16 56 97 100 100 52 56 93 100
100 100 100 100 100 100 100 100 100 100 100 100 100 100 100 100 100 93 100 94 100 100 100 100 100 100 100 90 100 94 94 87 100 100 100 100 100 100 99 100 100 100 99 68 91 73 99 96 100 100 100 92 86 77
100 100 100 100 100 100 100 100 100 91 100 100 100 100 84 100 100 100 99 96 99 100 100 100 100 100 100 98 93 95 80 98 93 100 100 100 100 100 100 100 100 100 100 100 100 100 100 100 100 99 100 100 100 100
100 100 100 100 100 100 100 100 100 100 100 100 100 100 92 97 91 58 73 100 100 100 100 98 98 98 87 74 78 93 70 72 57 100 100 100 100 100 100 100 100 100 100 100 100 100 100 96 100 100 100 100 100 100
100 100 100 100 100 100 100 100 100 100 100 99 100 99 100 100 100 100 100 100 100 100 100 100 100 100 100 96 100 100 100 95 82 99 100 100 100 100 100 100 100 100 100 100 100 100 100 100 100 100 100 100 100 100
100 100 100 100 99 100 100 100 100 100 100 100 100 100 100 100 100 100 100 100 100 100 100 100 100 100 100 96 100 100 100 89 99 100 100 100 100 100 100 100 100 100 100 100 100 100 100 100 100 100 100 100 100 100
100 100 100 100 100 100 100 100 100 100 100 100 100 100 100 100 100 100 100 100 100 100 100 100 100 100 100 100 100 100 100 100 100 100 100 100 100 100 100 100 100 100 100 100 100 100 100 100 100 100 100 100 100 100
74 55 100 100 100 100 100 100 100 100 100 100 100 100 100 100 100 100 100 100 100 100 100 100 100 100 100 100 100 100 100 100 100 100 100 100 100 100 100 100 100 100 100 100 100 100 100 100 100 100 100 100 100 100
10 62 90 100 100 100 100 100 100 100 100 100 100 100 100 100 100 100 100 100 100 100 100 100 100 100 100 100 100 100 100 100 100 100 100 100 100 100 100 100 100 100 100 100 100 100 100 100 100 100 100 100 100 57
67 21 38 99 65 74 93 100 100 100 100 100 100 100 100 100 100 100 100 100 100 100 100 100 100 100 100 100 100 100 100 100 100 100 100 100 100 100 100 100 100 100 100 100 100 100 100 100 100 100 100 100 100 100
5 5 5 5 95 86 89 99 79 96 100 100 100 100 100 100 100 100 100 100 100 100 100 100 100 100 100 100 100 100 100 100 100 100 100 100 100 100 100 100 100 100 100 100 100 100 100 100 100 100 100 100 100 88
5 3 5 95 100 79 54 48 69 100 100 100 100 100 100 100 100 100 100 100 100 100 100 100 100 100 100 100 100 100 100 100 100 100 100 100 100 100 100 100 100 100 100 100 100 100 100 100 100 100 100 100 99 78
100 58 47 20 87 100 100 100 100 100 100 99 100 100 100 100 100 100 100 100 100 100 100 100 100 100 100 100 100 100 100 100 100 100 100 100 100 100 100 100 100 100 100 100 100 100 100 100 100 78 62 61 38 56
4 34 87 8 46 38 76 80 100 100 100 100 100 100 100 100 100 100 100 100 100 100 100 100 100 100 100 100 100 100 100 100 100 100 100 100 100 100 100 100 100 100 100 100 100 100 99 100 98 80 100 49 6 60
0 64 67 31 19 83 90 97 98 99 100 100 100 100 100 100 100 100 100 100 100 100 100 100 100 100 100 100 100 100 100 100 100 100 100 100 100 100 100 100 100 100 100 100 100 91 90 87 65 8 22 5 35 61
6 42 7 7 48 68 74 100 100 100 100 100 100 100 100 100 100 100 100 100 100 100 100 100 100 100 100 100 100 100 100 100 100 100 100 100 100 100 100 100 100 100 100 100 100 92 74 57 5 5 5 54 98 64
97 98 90 100 100 99 99 100 99 100 98 98 100 96 87 72 94 100 100 100 100 100 100 100 100 95 96 99 99 99 100 100 100 100 100 100 100 99 99 100 100 100 100 100 79 38 10 6 9 72 53 15 95 100
100 100 100 100 100 97 100 97 88 38 38 89 98 98 100 84 99 100 100 100 100 100 100 97 96 90 93 97 95 97 94 94 100 100 100 100 100 100 100 94 80 21 55 11 5 5 44 64 79 59 58 88 97 99
100 100 99 99 98 90 100 87 98 90 95 86 95 92 85 100 100 100 100 100 99 100 100 100 96 88 87 96 95 90 96 98 100 97 93 91 69 19 6 22 70 67 89 99 93 86 69 98 52 33 67 73 41 5
100 99 48 98 100 100 97 100 100 95 95 88 98 99 100 99 100 100 100 100 100 92 92 92 100 76 94 99 90 90 90 58 26 16 19 98 100 77 16 37 100 99 56 90 93 95 100 100 100 100 80 100 100 100
95 98 98 100 100 100 98 98 89 100 96 45 26 92 100 100 100 100 100 100 100 100 99 98 99 100 99 99 100 78 62 63 59 68 99 100 100 86 79 100 100 91 96 98 77 84 76 64 74 88 89 94 100 100
100 91 51 43 77 99 100 100 92 82 34 66 91 71 67 85 100 100 97 96 100 100 86 90 86 89 89 88 78 87 75 76 98 71 14 40 15 39 93 93 93 99 84 100 100 100 100 95 100 100 100 100 100 100
77 77 31 84 82 69 100 96 52 100 100 92 90 39 91 90 92 98 97 83 88 90 81 56 78 87 33 47 22 47 88 100 100 78 90 100 89 57 7 13 54 65 52 83 100 100 95 100 100 100 100 100 100 79
71 18 5 73 98 99 38 58 100 96 88 87 91 99 100 99 92 98 100 82 68 94 99 95 98 100 100 76 28 100 93 78 34 43 84 91 99 82 72 46 8 7 58 67 44 26 41 99 100 100 100 100 92 96

GFSWCAN_prec_cloud_048.txt.gz
Cloud_Cover
100 100 100 100 100 100 100 99 92 24 97 64 5 45 23 44 100 100 100 98 100 100 40 28 33 5 1 0 2 3 59 96 90 67 52 63 100 100 12 94 100 85 75 46 14 14 15 37 22 5 5 1 5 5
100 100 100 100 87 92 90 39 7 6 9 71 90 100 100 100 100 100 99 100 100 100 100 68 6 10 4 0 0 2 4 1 5 100 100 100 100 84 87 100 100 22 96 34 5 6 98 22 72 5 4 5 5 5
97 100 100 100 100 63 99 100 100 100 100 100 100 100 100 100 100 54 46 100 100 100 100 89 49 6 2 0 0 0 9 5 5 100 100 100 100 100 100 100 100 13 29 73 5 8 74 83 54 17 5 5 5 5
100 62 98 100 100 100 99 97 100 100 100 100 100 100 100 100 100 81 6 98 100 99 100 100 86 11 5 0 0 0 14 99 9 92 98 100 100 100 100 100 100 100 85 85 24 21 12 26 32 5 5 5 10 60
100 88 100 100 100 94 78 78 63 79 100 100 77 99 100 100 100 75 3 15 69 88 100 98 71 5 3 0 0 1 96 100 32 31 93 100 100 100 100 100 100 100 100 93 26 5 5 52 34 64 66 82 52 35
100 86 5 8 12 16 100 5 60 73 94 79 88 78 52 22 87 87 99 69 28 69 100 100 68 75 99 98 100 46 86 100 99 83 70 100 100 100 100 100 100 100 100 100 61 9 5 14 59 94 100 100 100 100
100 100 66 5 5 4 4 92 86 37 72 25 0 5 5 5 43 34 6 20 62 69 100 100 100 100 100 100 96 94 85 100 100 100 98 100 100 100 100 100 100 100 100 100 54 92 48 7 38 31 80 93 87 78
100 100 100 100 76 15 5 5 8 19 5 3 4 2 5 36 100 100 100 100 100 100 100 100 100 100 100 100 100 100 100 100 100 100 100 100 100 99 90 100 100 100 100 100 92 89 100 100 100 100 100 100 100 94
100 100 100 100 100 100 100 100 100 100 100 84 100 100 100 100 100 100 100 100 100 100 100 100 100 100 100 100 100 100 100 100 100 100 100 100 100 100 100 100 100 100 100 100 100 75 100 100 100 100 100 100 90 89
100 100 100 100 100 100 100 100 100 100 100 100 100 100 100 100 100 100 100 100 100 100 100 100 100 100 100 100 100 100 100 100 100 100 100 100 100 100 100 100 100 100 100 100 100 62 8 94 100 100 100 100 93 100
100 100 100 100 100 100 100 100 100 100 100 100 100 100 100 100 100 100 100 100 100 100 100 100 100 100 100 100 100 100 100 100 100 100 100 100 99 100 100 100 100 100 100 100 100 66 91 100 100 100 100 100 100 99
100 100 100 100 100 100 100 100 100 100 100 100 100 100 100 100 100 100 100 100 100 100 100 100 100 100 100 98 100 72 67 100 100 100 100 100 100 100 100 100 100 100 100 100 100 100 100 100 100 100 100 100 100 100
100 100 100 100 100 100 97 100 100 100 100 100 100 100 100 100 100 100 100 100 99 100 100 100 100 100 97 79 100 100 95 72 91 100 100 100 100 100 100 100 100 100 100 100 100 100 100 100 100 100 100 100 100 100
100 100 100 100 100 100 100 100 100 100 100 100 100 100 100 100 100 100 100 100 100 100 100 100 100 100 100 100 100 100 100 100 100 92 100 100 100 100 100 100 100 100 100 100 100 100 100 100 100 100 100 100 100 100
100 100 100 100 100 100 100 100 100 100 100 100 100 100 100 100 100 100 100 100 100 100 100 100 100 100 100 100 100 93 100 97 99 100 100 100 100 100 100 100 100 100 100 100 100 98 100 100 100 100 100 100 100 100
100 100 100 100 100 100 100 100 100 100 100 97 100 100 100 100 100 100 100 100 100 100 100 93 100 100 100 100 100 100 100 100 100 100 100 100 100 100 100 100 100 100 100 100 100 100 100 100 100 100 100 100 100 100
60 100 100 100 100 90 100 100 100 100 100 91 100 100 100 100 100 100 100 100 100 100 100 100 100 100 100 100 100 100 100 100 100 100 100 100 100 100 100 100 100 100 100 100 100 100 100 100 100 100 100 100 100 100
8 13 30 95 100 100 100 82 100 100 100 100 100 100 100 100 100 100 100 100 100 100 100 100 100 100 100 100 100 100 100 100 100 100 100 100 100 100 100 100 100 100 100 100 100 100 100 100 100 100 100 100 100 100
84 18 11 7 90 45 76 100 99 100 100 100 100 100 100 100 100 100 100 100 100 100 100 100 100 100 100 100 100 100 100 100 100 100 100 100 100 100 100 100 100 100 100 100 100 100 100 100 100 100 100 100 100 100
38 77 34 5 5 5 5 57 96 72 99 100 100 100 100 100 100 100 100 97 100 100 100 100 100 100 100 100 100 100 100 100 100 100 100 100 100 100 100 100 100 100 100 100 100 100 100 100 100 100 100 96 66 76
5 3 4 5 14 87 88 88 98 100 100 92 100 100 100 100 100 100 100 100 100 100 100 100 100 100 100 100 100 100 100 100 100 100 100 100 100 100 100 100 100 100 100 100 100 100 100 100 100 100 100 99 73 73
91 98 80 6 3 5 49 99 100 100 100 100 100 100 100 100 99 100 100 100 100 100 100 100 100 100 100 100 100 100 100 100 100 100 100 100 100 100 100 100 100 100 100 100 100 100 100 100 98 80 80 79 87 84
57 48 64 9 18 5 28 33 91 100 100 100 100 100 100 100 100 100 100 100 100 100 100 100 100 100 100 100 100 100 100 100 100 100 100 100 100 100 100 100 100 100 100 100 100 100 100 100 100 100 100 99 95 79
4 6 89 41 10 10 8 13 38 82 100 100 100 100 100 100 100 100 100 100 100 100 100 100 100 100 100 100 100 100 100 100 100 100 100 100 100 100 100 100 100 100 100 100 100 100 100 100 100 100 90 86 63 58
5 40 5 20 61 30 28 98 94 72 97 82 95 98 100 99 100 100 100 100 100 100 100 100 100 100 100 100 100 100 100 100 100 100 100 100 100 100 100 100 100 100 100 100 100 100 100 100 100 99 21 94 81 77
66 63 52 91 87 70 90 99 80 99 91 78 99 99 83 36 53 96 100 100 100 100 100 100 100 100 100 100 100 100 100 100 100 100 100 100 98 99 100 100 100 100 100 100 100 99 82 60 97 86 87 84 100 100
61 60 79 100 88 48 69 61 9 26 91 99 95 94 98 78 96 99 97 100 100 100 100 100 100 100 100 100 91 93 74 68 72 80 83 82 76 60 52 61 69 50 82 28 5 10 92 100 100 86 96 100 75 76
80 91 70 50 13 7 84 72 88 98 95 97 57 83 61 95 100 100 100 100 100 97 94 92 96 88 76 79 85 87 90 98 79 80 93 72 29 13 100 99 88 78 79 81 86 100 99 100 100 100 100 100 98 66
98 100 15 44 8 44 88 93 100 98 100 98 86 96 100 99 100 100 100 100 100 100 97 95 100 91 85 80 68 60 72 66 85 24 99 100 93 58 86 100 100 100 100 97 100 70 77 100 100 100 100 83 100 100
88 77 14 18 51 99 100 75 83 93 35 50 49 99 88 99 100 100 100 100 100 100 99 97 92 92 94 91 94 77 77 83 86 80 91 99 100 78 82 84 91 99 100 100 97 89 96 83 90 60 64 93 100 87
76 27 21 86 98 100 100 98 81 84 22 42 84 99 66 90 99 100 100 99 96 95 93 85 82 86 78 98 100 94 94 100 100 94 92 89 70 99 97 84 79 99 91 65 79 99 100 100 100 100 96 100 100 100
22 26 54 76 92 99 100 100 100 76 99 86 94 93 98 51 93 92 95 95 98 92 100 98 99 99 86 88 90 100 100 100 100 100 98 93 100 100 95 74 99 80 92 100 99 99 99 100 100 99 89 100 100 100
36 5 47 73 99 99 43 99 100 100 98 99 100 100 100 98 90 100 98 81 67 96 99 98 93 95 100 99 96 80 82 49 71 83 97 84 93 77 90 90 99 100 100 100 100 100 100 87 82 88 99 100 100 100

GFSWCAN_prec_cloud_051.txt.gz
Cloud_Cover
100 100 100 100 100 100 100 100 100 100 100 98 100 100 39 4 95 100 100 70 100 100 78 92 46 4 2 0 1 0 7 80 89 100 100 100 100 100 100 95 100 100 98 25 89 100 100 100 5 5 0 0 1 1
100 100 100 100 100 100 100 100 100 100 100 84 78 74 16 98 100 100 100 88 100 100 100 86 13 5 4 4 0 0 1 54 100 100 100 100 95 66 99 100 100 99 89 58 100 96 100 100 5 5 0 0 4 5
100 100 100 100 100 100 94 87 100 56 29 90 99 100 100 100 100 100 100 98 100 100 75 100 90 32 0 0 0 0 0 53 100 100 100 100 100 100 100 96 100 100 90 6 100 100 100 100 97 5 5 5 5 5
100 100 100 100 100 100 100 100 100 100 97 15 95 99 100 95 100 93 100 100 100 100 98 63 8 3 7 8 0 0 2 5 5 6 92 100 8 100 100 100 91 68 100 100 100 100 100 100 100 80 8 22 6 15
100 100 100 100 100 100 100 83 34 7 31 49 34 38 34 100 100 100 100 100 58 23 100 92 5 20 66 5 4 5 0 0 1 26 100 91 68 98 100 100 100 82 100 100 100 100 100 100 100 100 88 76 89 75
100 100 47 100 100 100 100 100 100 100 100 100 100 94 100 100 100 100 100 100 100 98 100 99 72 100 70 32 5 0 0 1 27 100 100 86 100 100 100 100 49 100 100 100 100 94 100 100 100 100 100 100 100 100
19 90 22 96 100 100 100 100 100 100 100 100 100 99 100 100 95 72 98 25 16 100 100 100 100 85 99 68 23 22 6 48 100 100 87 82 92 100 95 100 100 100 99 100 100 100 100 100 100 100 100 100 100 100
5 5 19 24 37 54 98 100 99 100 100 100 100 70 38 74 98 63 78 96 94 99 100 100 87 92 72 99 92 96 39 9 16 61 90 100 100 99 100 96 100 100 83 99 100 100 100 100 98 100 100 100 100 100
24 5 5 5 4 6 5 7 36 86 49 88 98 100 48 51 6 15 100 98 94 38 94 100 100 74 71 98 100 74 82 98 88 100 100 99 100 100 100 100 100 100 100 100 100 100 97 97 97 100 100 98 90 85
100 100 100 57 54 26 5 5 7 80 5 5 40 100 74 12 40 100 100 100 100 100 100 100 100 100 100 100 100 100 100 100 100 100 100 100 100 100 100 100 100 100 100 100 100 100 93 87 100 100 91 86 95 100
100 100 100 100 100 40 4 3 8 5 7 43 100 100 69 100 94 100 100 100 100 100 100 100 100 100 100 100 100 100 100 100 100 100 100 100 100 99 81 91 100 100 100 100 100 100 100 100 100 87 99 100 100 100
100 100 100 100 100 100 100 100 100 100 100 100 100 100 100 100 100 100 100 100 100 100 100 100 100 100 100 100 100 100 100 100 100 100 97 100 100 100 100 100 100 100 100 100 100 100 100 100 100 100 100 100 100 100
100 100 100 100 100 100 100 100 100 100 100 100 100 100 100 100 100 100 100 100 100 100 100 100 100 100 100 100 100 100 69 98 100 100 100 85 100 100 100 100 100 100 100 100 100 100 100 100 100 100 100 100 100 100
100 100 100 100 100 100 100 100 100 100 100 100 100 100 100 100 100 100 100 100 100 100 100 100 100 100 100 100 100 87 97 93 96 99 100 100 100 100 100 100 100 100 100 100 100 100 100 100 100 100 100 100 100 100
100 100 100 100 100 100 100 100 100 100 100 100 100 100 100 100 100 100 100 100 100 100 100 100 100 100 100 100 98 98 99 99 96 100 100 100 100 100 100 100 100 100 100 100 100 100 100 100 100 100 100 100 100 100
100 100 100 100 100 100 100 100 100 99 100 100 100 100 100 100 100 100 100 100 100 100 100 64 79 89 100 100 100 98 80 88 100 100 100 100 100 100 100 100 100 100 100 100 100 100 100 100 100 100 100 100 100 100
100 100 100 100 100 100 100 100 100 100 100 100 100 100 100 100 100 100 100 100 100 100 100 78 78 99 94 100 100 100 100 100 100 100 100 100 100 100 100 100 100 100 100 100 100 100 100 100 100 100 100 100 100 100
100 100 100 100 100 100 100 100 100 100 100 100 100 100 100 100 100 100 100 100 100 100 100 100 100 100 100 100 100 100 100 100 100 100 100 100 100 100 100 100 100 100 100 100 100 100 100 100 100 100 100 100 100 100
100 100 100 100 100 99 100 100 100 100 100 100 100 100 100 100 100 100 100 100 100 100 100 100 100 100 100 100 100 100 100 100 100 100 100 100 100 100 100 100 100 100 100 100 100 100 100 100 100 100 100 100 100 100
18 49 76 83 97 100 100 98 99 100 100 100 100 100 100 100 100 100 100 100 100 100 100 100 100 100 100 100 100 100 100 100 100 100 100 100 100 100 100 100 100 100 100 100 100 100 100 100 100 100 100 100 100 100
46 9 9 6 29 7 48 100 100 100 100 100 100 100 100 100 100 100 100 100 100 100 100 100 100 100 100 100 100 100 100 100 100 100 100 100 100 100 100 100 100 100 100 100 100 100 100 100 100 100 100 100 100 100
16 6 5 4 5 5 39 100 100 100 100 100 100 100 100 100 100 100 100 99 100 100 100 100 100 100 100 100 100 100 100 100 100 100 100 100 100 100 100 100 100 100 100 100 100 100 100 100 100 100 100 100 100 100
3 5 21 5 5 4 42 77 96 95 100 100 100 100 100 100 100 97 100 100 100 100 100 100 100 100 100 100 100 100 100 100 100 100 100 100 100 100 100 100 100 100 100 100 100 100 100 100 100 100 100 100 100 100
27 58 99 60 43 84 82 27 5 25 66 75 100 100 100 100 100 100 100 100 100 100 100 100 100 100 100 100 100 100 100 100 100 100 100 100 100 100 100 100 100 100 100 100 100 100 100 100 100 100 100 100 100 100
6 33 4 21 5 6 9 6 12 8 74 83 86 86 89 82 97 100 100 100 100 100 100 100 100 100 100 100 100 100 100 100 100 100 100 100 100 100 100 100 100 100 100 100 100 100 100 100 100 100 100 100 94 97
79 67 64 85 75 46 82 72 99 97 88 78 97 100 56 5 24 98 100 100 100 100 100 100 100 100 100 100 100 100 100 100 100 100 100 100 100 100 100 100 100 100 100 100 100 94 82 61 98 53 70 98 100 100
92 79 71 82 48 64 35 67 16 24 86 98 90 83 61 74 100 100 100 94 88 100 100 100 98 100 100 100 96 100 99 100 100 100 99 98 100 100 94 72 91 99 100 86 81 90 100 100 100 100 100 100 100 100
97 78 15 36 20 36 95 93 85 98 93 100 81 77 57 91 100 100 100 100 98 97 92 79 58 19 11 83 100 100 97 91 68 35 30 10 23 56 96 100 100 97 95 100 100 100 100 100 100 100 100 100 94 78
96 53 6 32 17 67 94 99 100 100 95 98 77 96 100 100 100 98 100 100 99 99 98 82 90 90 42 5 6 42 6 5 5 5 43 99 91 63 70 33 37 58 82 75 63 75 100 100 100 100 89 98 100 98
45 34 27 80 60 99 100 80 94 78 8 57 62 100 96 100 100 100 100 99 98 91 96 87 91 82 100 77 97 95 98 84 72 24 81 100 100 100 100 100 100 100 93 100 88 37 82 79 83 91 97 99 89 100
32 19 79 99 95 99 99 71 53 22 7 34 64 78 86 92 96 91 83 96 95 96 98 77 100 97 98 100 100 100 99 92 98 97 98 100 100 100 100 100 100 100 100 100 100 100 98 98 100 100 100 100 100 100
43 93 60 80 100 100 100 100 83 80 88 79 99 96 93 74 92 96 100 100 87 87 96 100 100 99 100 100 96 93 90 94 90 100 100 100 99 84 100 100 100 100 100 100 100 100 100 100 95 83 97 100 100 100
44 8 69 60 99 100 100 100 100 100 89 93 100 100 96 81 88 98 95 87 73 24 20 98 100 100 100 100 68 66 84 92 99 98 100 94 100 99 78 100 100 100 100 100 100 100 100 100 99 71 85 100 100 100

GFSWCAN_prec_cloud_054.txt.gz
Cloud_Cover
94 57 76 100 100 100 100 100 100 100 100 100 100 100 100 67 72 85 100 100 100 83 84 93 16 5 5 10 5 82 91 5 36 12 18 96 100 100 100 100 100 100 100 100 98 3 80 93 99 89 55 5 5 5
100 100 100 100 100 100 100 100 100 100 100 100 100 100 95 100 100 92 100 100 100 100 28 100 34 5 36 42 12 37 5 5 6 10 52 32 100 100 100 100 100 100 100 100 84 22 96 100 100 100 100 5 5 5
100 100 100 100 100 100 100 100 100 100 100 100 100 100 100 100 66 3 45 100 100 87 83 73 5 67 46 5 11 5 5 5 5 2 17 16 5 25 49 100 100 100 100 100 83 78 100 100 89 100 100 100 100 99
100 100 100 100 100 100 100 100 100 100 100 99 39 77 100 100 82 9 100 100 100 82 100 94 29 4 24 5 46 9 5 5 2 2 99 100 1 5 23 94 99 62 89 100 100 100 100 100 71 100 100 100 100 100
100 93 100 100 100 100 100 96 100 100 100 100 100 97 100 87 2 100 100 100 100 100 27 21 100 88 50 29 42 24 5 5 18 47 100 26 3 4 26 66 7 92 100 100 100 100 100 100 100 100 100 100 100 100
100 100 100 85 73 100 100 100 100 100 100 99 66 78 92 75 80 100 100 100 100 11 18 17 50 58 98 56 99 99 20 84 76 86 44 5 0 6 88 5 6 100 100 100 100 100 100 100 100 100 100 100 100 100
5 6 6 88 90 86 68 85 84 90 89 57 66 100 100 100 100 100 100 100 85 5 80 46 56 5 97 100 100 100 90 99 91 16 43 77 57 4 5 4 98 100 100 100 100 100 100 100 100 92 100 100 100 100
5 11 91 100 100 100 94 88 91 100 100 72 10 75 100 94 100 97 91 80 32 80 99 43 76 70 40 100 100 100 100 66 55 48 46 47 53 31 6 87 100 100 100 100 100 100 100 100 100 99 100 100 100 100
5 5 27 96 100 100 100 74 100 100 99 98 97 100 100 100 100 100 76 63 100 62 96 100 100 97 62 100 100 100 100 94 91 100 91 29 98 28 60 100 100 100 100 100 100 100 99 100 100 100 100 100 100 100
2 5 5 5 5 9 5 19 88 48 24 54 69 99 100 100 82 20 92 100 91 71 89 100 48 100 43 99 100 100 100 100 100 84 98 94 62 4 6 12 92 100 100 100 100 100 100 94 100 74 100 100 99 100
4 0 0 22 44 92 100 67 16 71 47 18 22 70 28 17 65 100 100 100 100 100 100 57 90 100 75 94 100 100 97 100 100 70 95 99 99 100 100 100 100 100 100 100 100 100 80 68 94 96 78 100 100 99
100 99 100 100 100 100 100 100 100 100 100 100 76 90 100 100 100 100 100 100 100 99 100 100 100 100 99 90 100 100 100 100 100 100 100 100 100 100 100 100 100 100 100 100 98 100 100 99 85 82 100 100 100 100
100 100 100 100 100 100 100 100 100 100 100 100 100 100 100 100 100 100 99 100 100 100 100 100 100 100 100 100 100 100 100 100 100 100 100 100 100 100 100 100 100 100 100 100 100 99 100 100 100 100 100 100 100 100
100 100 100 100 100 100 100 100 100 100 100 100 100 99 100 100 100 100 100 100 100 100 100 100 100 100 100 100 100 100 100 100 100 100 100 100 100 100 100 100 100 100 100 100 100 100 100 100 100 100 100 100 100 100
100 100 100 100 100 100 100 100 100 100 100 100 100 100 100 100 100 100 100 100 100 100 100 100 100 100 100 100 100 100 100 100 100 100 100 100 100 100 100 100 100 100 100 100 100 100 100 100 100 100 100 100 100 100
100 100 100 100 100 100 100 100 100 100 100 100 100 100 100 100 100 100 100 100 100 100 100 100 100 100 100 100 100 100 100 100 100 100 100 100 100 100 100 100 100 100 100 100 100 100 100 100 100 100 100 100 100 100
100 100 100 100 100 100 100 100 100 100 100 100 100 100 100 100 100 100 100 100 100 100 100 100 100 100 100 100 100 100 100 100 100 100 100 100 100 100 100 100 100 100 100 100 100 100 100 100 100 100 100 100 100 100
100 100 100 100 100 100 100 100 100 100 100 100 100 100 100 100 100 100 100 100 100 100 100 100 100 100 93 100 100 100 100 100 100 100 100 100 100 100 100 100 100 100 100 100 100 100 100 100 100 100 100 100 100 100
100 100 100 100 100 100 100 100 100 100 100 100 100 100 100 100 100 100 100 100 100 100 100 100 100 100 100 100 100 100 100 100 100 100 100 100 100 100 100 100 100 100 100 100 100 100 100 100 100 100 100 100 100 100
59 100 100 100 100 99 98 100 100 100 100 100 100 100 100 100 100 100 100 100 100 100 100 100 100 100 100 100 100 100 100 100 100 100 100 100 100 100 100 100 100 100 100 100 100 100 100 100 100 100 100 100 100 100
100 59 58 97 100 96 98 85 100 100 98 86 100 100 100 100 100 100 100 100 100 100 100 100 100 100 100 100 100 100 100 100 100 100 100 100 100 100 100 100 100 100 100 100 100 100 100 100 100 100 100 100 100 100
16 5 37 71 38 31 43 63 96 97 89 100 100 100 99 96 88 85 100 100 100 100 100 100 100 100 100 100 100 100 100 100 100 100 100 100 100 100 100 100 100 100 100 100 100 100 100 100 100 100 100 100 100 100
8 7 5 5 5 5 34 32 17 66 45 64 78 92 98 100 100 100 100 100 100 100 100 100 100 100 100 100 100 100 100 100 100 100 100 100 100 100 100 100 100 100 100 100 100 100 100 100 100 100 100 100 100 100
16 75 68 59 38 83 53 31 36 36 66 85 97 86 91 75 87 84 100 100 100 100 100 100 100 100 100 100 100 100 100 100 100 100 100 100 100 100 100 100 100 100 100 100 100 100 100 100 100 100 100 100 100 100
6 39 8 43 58 26 33 69 91 100 90 97 86 100 83 80 91 100 100 100 100 100 100 100 100 100 100 100 100 100 100 100 100 100 100 100 100 100 100 100 100 100 100 100 100 100 100 100 100 100 100 100 100 100
73 76 53 92 86 49 97 97 98 100 97 90 93 91 30 5 46 95 100 99 99 100 100 100 100 98 100 100 100 100 100 100 100 100 100 100 100 100 100 100 100 100 100 100 100 100 100 100 100 100 100 69 92 100
93 83 58 92 92 28 75 64 9 11 80 95 91 88 34 83 100 100 94 99 100 100 100 98 96 97 100 100 100 100 78 36 82 99 100 100 100 100 100 100 100 100 100 100 100 100 100 100 100 100 99 100 100 100
98 21 5 41 49 24 97 80 82 98 95 100 80 90 78 92 100 100 100 100 95 95 99 82 69 90 100 100 100 98 96 98 45 5 5 5 7 26 29 60 83 92 62 62 99 100 100 100 100 100 100 100 98 88
81 59 7 95 37 64 93 100 100 100 100 99 73 100 99 100 100 98 100 100 94 94 89 82 69 58 27 55 78 90 20 5 5 6 96 100 91 86 87 75 84 89 91 91 67 77 95 98 100 100 100 100 100 100
10 40 82 97 66 100 100 80 78 58 27 58 59 99 93 100 100 100 100 98 100 100 100 96 76 65 100 80 100 100 100 97 46 24 100 100 100 100 100 100 100 100 100 100 100 78 90 49 56 45 21 5 35 89
36 48 83 84 91 97 86 36 59 22 6 22 8 55 88 92 99 90 82 91 95 93 87 100 100 100 100 100 100 100 94 71 100 100 100 100 100 100 100 100 100 100 100 100 100 100 90 91 100 97 76 18 43 90
60 95 60 69 100 100 100 100 97 80 89 96 99 97 89 34 94 94 95 100 100 85 100 100 100 99 93 98 100 99 87 96 100 100 100 100 100 100 100 100 100 100 100 100 100 100 100 100 98 97 100 76 29 32
70 22 74 93 92 96 93 100 99 92 79 99 95 97 91 48 72 96 100 89 31 5 28 100 99 93 89 55 66 98 92 99 100 100 100 100 100 100 72 100 100 100 100 100 100 100 100 99 100 74 56 60 54 44

GFSWCAN_prec_cloud_057.txt.gz
Cloud_Cover
100 65 76 100 100 100 100 100 100 100 100 100 100 100 100 100 100 100 100 97 50 99 99 87 33 5 15 100 76 100 100 100 100 100 100 66 47 100 100 100 100 100 100 100 100 88 99 92 23 44 14 83 30 33
100 100 100 100 99 100 100 100 100 100 100 100 100 100 100 100 100 100 100 94 100 77 99 100 99 17 6 99 92 100 100 100 100 100 100 100 100 100 100 100 100 100 100 100 97 100 97 88 91 6 51 6 100 68
100 100 100 100 100 100 100 100 100 100 100 100 100 100 100 100 100 100 90 97 100 100 47 60 96 93 18 42 79 37 100 100 100 100 100 100 29 62 54 86 100 100 100 99 92 87 100 100 100 17 7 60 100 54
100 100 100 100 100 100 100 100 100 100 100 100 100 100 100 100 100 100 100 94 82 100 74 100 96 87 24 11 100 6 79 67 26 75 92 98 71 90 97 99 58 25 83 96 98 100 100 100 91 10 14 94 47 67
100 100 100 100 100 100 100 100 100 100 100 100 100 100 100 100 100 95 85 93 100 100 49 25 92 100 40 6 42 7 12 28 16 73 100 100 29 98 91 14 14 5 73 100 100 100 100 100 58 14 55 21 5 78
100 100 100 100 100 100 100 100 100 100 100 100 100 100 100 100 100 78 98 91 82 100 98 96 8 12 99 44 55 90 11 5 20 5 41 19 8 7 47 5 9 47 8 5 100 100 100 100 100 100 98 99 80 100
100 100 100 100 100 100 100 100 100 100 100 100 100 100 100 100 20 5 4 24 100 100 100 79 100 86 87 65 87 100 100 100 16 5 55 5 5 5 6 10 5 34 29 5 100 100 100 100 100 100 100 100 100 100
8 59 85 100 98 98 100 100 100 100 100 96 77 34 5 45 70 13 3 55 60 100 100 97 100 100 98 100 100 100 100 100 95 42 63 13 40 10 4 48 98 100 93 78 100 100 100 100 100 100 100 100 100 100
39 88 88 68 8 5 14 71 28 72 81 5 5 43 91 97 100 100 100 100 100 100 100 100 100 100 95 100 100 100 100 100 100 100 100 61 99 29 29 99 100 100 49 48 100 100 100 100 100 100 75 81 100 100
5 91 98 100 100 100 100 100 100 80 100 50 96 100 100 100 100 100 100 100 100 100 99 100 99 100 99 100 100 68 100 100 100 96 100 100 20 11 61 85 100 100 69 94 100 100 100 100 92 100 100 100 70 92
84 67 97 97 100 99 100 75 84 100 99 100 100 100 91 76 98 99 100 99 100 93 80 62 86 70 72 78 90 71 99 100 100 92 100 100 89 5 8 8 23 12 5 10 47 58 23 100 100 100 49 92 98 90
100 100 100 100 100 66 100 100 100 100 100 100 88 71 97 100 100 100 92 95 94 14 93 100 98 35 99 32 10 100 100 100 100 100 100 100 90 98 52 48 26 45 69 72 80 100 100 100 96 100 100 100 98 100
100 100 100 100 83 46 59 96 15 72 100 93 100 100 100 100 100 100 100 100 98 100 100 100 100 98 75 28 90 100 100 100 100 100 100 100 100 100 100 100 99 100 100 100 100 100 100 100 100 100 100 100 100 100
100 100 100 100 100 100 100 100 98 100 100 100 100 100 100 100 100 100 100 97 100 100 100 100 100 100 100 100 100 99 97 100 100 100 100 100 100 100 100 100 100 100 100 100 100 100 100 100 100 100 100 100 100 100
100 99 100 100 100 100 100 100 100 100 100 100 100 100 100 100 100 100 100 100 100 100 100 100 100 100 100 100 100 100 100 100 100 100 100 100 100 100 100 100 100 100 100 100 100 100 100 100 100 100 100 100 100 100
100 100 100 100 100 100 100 100 100 100 100 100 100 100 100 100 100 100 100 100 100 100 100 100 100 100 100 98 98 100 100 100 100 100 100 100 100 100 100 100 100 100 100 100 100 100 100 100 100 100 100 100 100 100
100 100 100 100 100 100 100 100 100 100 100 100 100 100 100 100 100 100 100 100 100 100 100 100 100 100 100 100 100 100 100 100 100 100 100 100 100 100 100 100 100 100 100 100 100 100 100 100 100 100 100 100 100 100
100 100 100 100 100 100 100 100 100 100 100 100 100 100 100 100 100 100 100 100 100 100 100 100 100 100 100 100 100 100 100 100 100 100 100 100 100 100 100 100 100 100 100 100 100 100 100 100 100 100 100 100 100 100
100 100 100 100 100 100 100 100 100 100 100 100 100 100 100 100 100 100 100 100 100 100 100 100 100 100 100 100 100 100 100 100 100 100 100 100 100 100 100 100 100 100 100 100 100 100 100 100 100 100 100 100 100 100
100 100 100 100 100 100 100 100 100 100 100 100 100 100 100 100 100 100 100 100 100 100 100 100 100 100 100 100 100 100 100 100 100 100 100 100 100 100 100 100 100 100 100 100 100 100 100 100 100 100 100 100 100 100
100 100 100 100 100 99 97 100 100 99 100 91 96 98 100 100 100 100 100 100 100 100 100 100 100 100 100 100 100 100 100 100 100 100 100 100 100 100 100 100 100 100 100 100 100 100 100 100 100 100 100 100 100 100
80 100 100 88 58 60 74 81 92 91 66 94 80 91 91 90 98 100 100 100 100 100 100 100 100 100 100 100 100 100 100 100 100 100 100 100 100 100 100 100 100 100 100 100 100 100 100 100 100 100 100 100 100 100
33 82 100 99 61 14 46 34 58 86 98 93 78 67 31 41 42 48 66 100 100 100 100 100 100 100 100 100 100 100 100 100 100 100 100 100 100 100 100 100 100 100 100 100 100 100 100 100 100 100 100 100 100 100
36 59 34 7 28 54 29 8 5 5 23 25 16 81 87 74 69 51 89 100 100 100 100 100 100 100 100 100 100 100 100 100 100 100 100 100 100 100 100 100 100 100 100 100 100 100 100 100 100 100 100 100 100 100
9 46 41 70 19 6 99 99 31 14 100 83 25 77 77 8 30 60 98 100 100 100 100 100 100 100 100 100 100 100 100 100 100 100 100 100 100 100 100 100 100 100 100 100 100 100 100 100 100 100 100 100 97 74
88 89 58 91 87 44 99 99 100 99 100 84 98 68 5 5 27 97 100 97 100 100 100 100 100 100 100 100 100 100 100 100 100 100 100 100 100 100 100 100 100 100 100 100 99 90 85 96 99 87 61 34 73 98
92 71 50 85 78 9 81 45 7 9 78 91 90 82 6 85 100 100 100 99 90 100 100 100 99 100 100 100 100 93 58 55 83 97 98 96 100 100 71 90 99 100 99 91 100 100 100 100 100 100 100 89 88 100
85 6 36 74 47 6 99 90 85 99 96 97 42 89 78 85 99 100 100 94 82 90 96 100 100 92 87 98 94 87 62 5 5 5 6 44 86 83 67 72 90 95 11 26 98 95 100 100 100 98 100 100 90 86
96 70 22 94 34 60 96 100 100 100 100 96 49 98 100 100 100 99 100 99 93 83 80 84 70 35 38 61 74 89 26 5 3 6 50 94 80 74 94 97 88 94 100 16 61 63 58 34 74 5 6 60 76 93
64 49 86 88 73 100 99 74 79 56 40 69 58 100 96 100 100 100 94 86 83 81 90 90 85 13 93 43 95 61 94 100 50 24 87 100 100 100 100 100 100 100 100 100 88 25 74 34 42 5 5 5 43 61
84 49 50 66 100 94 19 37 62 49 7 8 8 56 91 94 100 99 94 80 89 93 90 100 100 100 47 83 92 44 5 59 100 100 100 100 100 100 100 100 100 100 100 100 100 100 77 37 60 38 5 5 9 50
75 99 62 76 92 100 100 96 94 77 93 79 95 96 94 20 94 92 93 76 88 89 94 100 100 93 95 100 100 98 84 97 100 100 100 100 71 33 74 95 100 100 100 99 99 100 96 77 65 56 56 52 48 54
74 43 91 94 91 96 95 100 94 91 94 97 98 94 84 26 34 74 99 76 32 5 66 100 87 98 87 79 86 100 96 96 100 100 100 100 100 100 62 51 97 100 25 56 76 85 62 47 53 52 17 37 38 54

GFSWCAN_prec_cloud_060.txt.gz
Cloud_Cover
90 58 100 100 100 99 100 98 91 100 100 100 100 100 100 100 100 100 100 100 99 91 66 3 88 100 7 100 23 100 100 100 100 98 100 100 100 100 100 100 100 100 100 100 100 100 100 100 99 16 82 10 8 5
98 99 100 100 100 100 100 100 100 100 100 100 100 100 100 100 100 100 100 100 100 100 69 50 83 99 93 5 32 100 100 100 100 97 100 95 91 100 100 100 100 100 100 100 100 100 100 100 100 93 6 17 63 29
100 100 100 100 100 100 100 100 100 100 100 100 100 100 100 100 100 100 100 100 100 71 11 7 92 64 54 37 94 100 100 100 100 74 100 100 79 100 100 100 100 100 100 100 99 100 100 100 100 52 42 34 90 95
100 100 100 100 100 100 100 100 100 100 100 100 100 100 100 100 100 100 100 100 100 7 9 29 100 100 97 74 98 100 100 100 100 100 88 77 62 49 96 100 100 100 100 94 76 100 100 100 98 84 30 69 80 58
100 100 100 100 100 100 100 100 100 100 100 100 100 100 100 100 100 100 100 100 78 25 47 38 72 100 100 70 97 100 94 100 51 100 97 74 30 92 91 100 100 100 100 100 100 100 100 100 99 87 70 75 98 93
100 100 100 100 100 100 100 100 100 100 100 100 100 100 100 100 100 100 100 100 100 59 97 25 32 96 100 100 24 96 31 6 32 62 99 100 90 100 100 100 100 100 100 100 100 100 96 80 100 100 100 98 96 100
100 100 100 100 100 100 100 100 100 100 100 100 100 100 100 100 100 100 100 100 100 85 43 98 100 5 94 100 100 80 16 5 8 90 68 89 100 21 83 100 100 100 100 100 100 99 79 58 34 21 30 85 100 100
91 100 100 98 81 97 100 100 100 100 100 100 100 100 100 100 100 100 100 100 96 41 63 98 100 100 78 46 95 81 93 89 49 5 12 17 28 49 88 100 100 100 100 100 100 56 72 43 5 5 16 39 98 100
5 27 91 100 100 93 78 99 100 100 100 100 100 100 100 100 100 100 62 7 56 26 32 100 100 100 89 69 86 92 55 100 90 100 46 5 59 81 100 100 100 100 100 98 34 56 58 14 5 5 5 67 78 96
52 16 5 7 6 23 98 84 100 100 100 100 100 100 100 41 68 9 49 97 64 94 81 100 73 100 100 100 100 99 85 98 100 76 100 100 91 100 100 100 100 100 100 67 38 7 5 5 7 12 5 65 100 100
100 100 100 100 95 6 37 20 5 16 36 72 88 84 96 97 95 100 100 100 98 94 100 100 100 100 100 100 100 100 100 100 100 93 100 100 100 98 91 79 83 97 100 64 30 31 78 81 47 26 82 87 89 90
5 54 100 49 18 5 71 36 66 68 85 98 94 90 90 100 100 98 100 100 68 21 100 100 79 97 98 100 100 100 100 100 100 100 100 100 100 100 100 100 78 62 70 32 30 56 69 56 88 100 100 100 100 98
99 56 98 100 98 91 72 33 14 33 95 99 87 100 100 100 99 100 98 94 97 86 97 100 100 100 96 56 98 100 100 100 100 100 100 100 100 100 100 100 100 100 93 100 100 100 100 99 100 100 100 100 100 100
100 100 91 100 100 100 100 53 100 100 98 100 100 100 100 100 100 100 100 89 100 100 100 100 100 100 100 100 100 100 100 100 100 100 100 100 100 100 100 100 100 100 100 100 100 100 100 100 100 100 100 100 100 100
100 100 100 100 100 100 100 100 100 100 100 100 100 100 100 100 100 100 100 100 100 100 91 100 100 100 100 100 100 98 97 100 100 100 100 100 100 100 100 100 100 100 100 100 100 100 100 100 100 100 100 100 100 100
97 94 86 100 100 100 100 100 100 100 100 100 100 100 100 100 100 100 100 100 100 100 100 100 100 100 100 98 95 99 100 100 100 100 100 100 100 100 100 100 100 100 100 100 100 100 100 100 100 100 100 100 100 100
100 100 100 100 100 100 100 100 100 100 100 100 100 100 100 100 100 100 100 100 100 100 100 100 100 100 100 100 100 100 100 100 100 100 100 100 100 100 100 100 100 100 100 100 100 100 100 100 100 100 100 100 100 100
100 100 100 100 100 100 100 100 100 100 100 100 100 100 100 100 100 100 100 100 100 100 100 100 100 100 100 100 100 100 100 100 100 100 100 100 100 100 100 100 100 100 100 100 100 100 100 100 100 100 100 100 100 100
100 100 100 100 100 100 100 100 100 100 100 100 100 100 100 100 100 100 100 100 100 100 100 100 100 100 100 100 100 100 100 100 100 100 100 100 100 100 100 100 100 100 100 100 100 100 100 100 100 100 100 100 100 100
100 100 100 100 100 100 100 100 100 100 100 100 100 100 100 100 100 100 100 100 100 100 100 100 100 100 100 100 100 100 100 100 100 100 100 100 100 100 100 100 100 100 100 100 100 100 100 100 100 100 100 100 100 100
100 100 100 100 100 100 100 100 100 100 100 100 100 100 100 100 100 100 83 100 100 100 100 100 100 100 100 100 100 100 100 100 100 100 100 100 100 100 100 100 100 100 100 100 100 100 100 100 100 100 100 100 100 100
100 100 100 100 78 50 85 93 92 77 73 85 98 99 100 100 100 100 100 100 100 100 100 100 100 100 100 100 100 100 100 100 100 100 100 100 100 100 100 100 100 100 100 100 100 100 100 100 100 100 100 100 100 100
43 55 34 11 20 6 5 5 5 77 68 67 51 59 74 76 62 34 99 100 100 100 100 100 100 100 100 100 100 100 100 100 100 100 100 100 100 100 100 100 100 100 100 100 100 100 100 100 100 100 100 100 100 100
57 80 65 36 5 5 5 5 10 44 20 77 87 100 87 69 19 68 100 100 100 100 100 100 100 100 100 100 100 100 100 100 100 100 100 100 100 100 100 100 100 100 100 100 100 100 100 100 100 100 100 100 100 100
27 36 7 45 14 6 80 71 65 16 99 93 93 86 74 27 82 99 100 100 100 100 100 100 100 100 100 100 100 100 100 100 100 100 100 100 100 100 100 100 100 100 100 100 100 100 100 100 100 100 100 100 80 100
54 81 57 87 69 37 94 89 100 98 100 99 100 35 5 25 83 100 100 100 100 100 100 100 100 100 100 100 100 100 100 100 100 100 100 100 100 100 100 100 100 100 100 100 100 100 100 100 100 100 100 99 96 98
60 44 46 85 94 50 83 78 64 73 98 100 98 14 5 50 100 100 100 100 100 100 100 100 100 100 97 82 37 21 39 26 24 13 42 74 88 90 89 65 78 100 100 100 100 100 100 100 100 100 100 100 100 100
42 5 5 61 47 73 68 69 97 100 100 98 42 78 50 96 100 100 100 100 100 100 100 100 100 100 100 100 100 99 91 90 88 64 64 81 100 100 100 100 98 75 95 93 100 100 100 100 100 98 84 99 100 100
75 67 8 36 49 88 100 100 100 100 100 99 90 100 100 100 100 100 100 100 100 100 95 55 70 86 62 55 59 7 40 28 2 2 5 19 95 100 100 100 100 100 100 100 68 99 100 100 80 32 82 100 100 100
90 76 52 37 70 95 100 100 100 100 100 100 96 100 100 100 100 100 100 100 100 100 100 93 76 81 54 59 59 41 76 89 99 63 14 61 100 100 100 100 100 100 100 100 100 96 44 63 81 88 73 91 85 95
100 100 88 96 91 97 75 33 27 22 77 100 97 99 100 100 100 100 100 100 96 94 94 96 92 96 85 20 5 5 73 100 100 100 93 100 100 100 100 100 99 100 100 100 100 94 76 76 78 81 77 78 83 92
100 87 46 72 100 99 99 100 97 86 87 100 100 98 100 100 100 100 100 100 100 100 77 83 100 100 93 61 65 76 70 97 100 100 100 100 100 100 100 96 96 100 99 93 82 82 64 60 74 63 80 82 75 82
74 79 82 92 100 100 100 100 100 100 100 100 100 100 100 93 92 100 100 96 97 82 83 100 100 100 62 72 78 94 78 99 82 98 100 99 100 93 90 100 94 86 87 82 86 72 59 16 61 59 82 78 82 86

GFSWCAN_prec_cloud_063.txt.gz
Cloud_Cover
100 93 94 70 100 93 100 98 100 7 100 100 100 100 100 100 100 100 100 100 100 100 100 100 17 78 71 100 37 91 100 100 100 100 100 100 100 100 100 100 100 100 100 82 100 96 100 100 100 100 100 99 47 4
100 100 98 100 100 64 100 98 100 80 100 100 100 100 100 100 100 100 100 100 100 100 100 100 100 96 35 83 99 98 100 50 100 100 100 100 94 100 100 100 100 100 81 100 100 100 100 100 100 100 100 100 20 47
100 100 95 100 98 73 57 96 100 100 100 100 100 100 100 100 100 100 100 100 100 100 100 99 44 2 62 35 100 44 90 71 100 100 99 100 92 100 100 100 100 100 100 100 100 100 100 100 100 100 100 100 12 91
100 100 100 100 100 100 100 100 100 100 100 100 100 100 100 100 100 100 100 100 100 100 100 100 44 5 44 9 49 26 42 99 100 76 6 26 99 5 5 82 53 100 100 100 100 100 100 100 100 100 100 100 98 59
100 100 100 100 100 100 100 100 100 100 100 100 100 100 100 100 100 100 100 100 100 100 100 100 37 86 71 25 86 64 6 84 85 35 60 18 15 5 5 11 99 100 100 100 100 100 100 100 100 100 93 100 100 100
100 100 100 100 100 100 100 100 100 100 100 100 100 100 100 100 100 100 100 100 100 100 100 81 23 73 42 50 50 20 98 6 29 5 5 5 30 6 44 21 100 100 100 100 100 100 100 100 100 100 100 100 100 71
97 100 100 100 100 100 100 100 100 100 100 100 100 100 100 100 100 100 100 100 100 100 92 92 66 38 100 100 46 28 49 6 54 43 17 33 9 85 5 89 100 100 100 100 100 100 100 100 100 100 100 100 100 46
97 98 100 100 100 100 100 100 100 100 100 100 100 100 100 100 100 100 100 100 98 100 100 100 51 91 100 98 100 100 15 34 66 30 7 37 18 28 55 100 100 100 100 100 100 100 100 100 100 100 100 95 6 22
94 99 100 100 100 100 100 100 100 100 100 100 100 100 100 100 91 100 71 65 100 98 54 98 87 84 97 99 90 100 98 43 5 9 14 72 88 89 100 100 100 100 100 100 100 100 100 100 100 98 95 56 5 5
5 62 100 93 100 100 100 100 100 100 100 100 100 100 100 100 100 76 86 48 5 5 53 40 33 53 100 97 100 100 100 100 100 80 11 97 100 100 100 100 100 100 100 100 100 100 100 100 100 100 100 80 6 5
5 5 5 22 5 54 100 100 100 100 100 98 97 100 85 100 100 100 98 48 96 94 100 5 21 91 99 100 100 100 99 77 100 100 60 100 100 96 92 100 100 100 100 100 100 100 100 100 100 99 61 45 54 82
63 5 9 47 64 67 89 98 88 83 87 89 99 100 90 78 100 100 84 74 95 92 48 81 100 100 100 100 96 95 100 100 100 100 100 100 100 100 100 100 100 98 100 100 100 100 100 100 71 83 100 100 100 100
23 5 23 99 45 21 19 6 82 56 18 60 20 96 100 100 100 96 99 93 77 18 88 100 100 100 100 100 100 100 100 100 100 100 100 100 100 100 100 100 100 100 100 100 100 100 96 86 78 96 100 100 100 100
100 35 29 49 49 27 34 100 100 97 73 100 100 96 100 98 100 100 88 100 100 100 100 100 100 100 100 100 100 100 100 100 100 100 100 100 100 100 100 100 100 100 100 100 100 100 100 100 100 100 100 100 100 100
100 100 100 99 57 80 96 90 19 80 78 83 96 100 100 100 99 90 100 100 100 100 100 100 100 100 100 100 100 100 100 100 100 100 100 100 100 100 100 100 100 100 100 100 100 100 100 100 100 100 100 100 100 100
100 100 100 100 100 100 55 72 62 34 89 100 100 98 100 100 100 100 100 100 100 100 100 100 100 100 100 100 100 100 100 100 100 100 100 100 100 100 100 100 100 100 100 100 100 100 100 100 99 100 100 100 100 100
98 94 100 100 100 100 100 100 100 100 100 100 100 100 100 100 100 100 100 100 100 100 98 80 98 100 100 100 100 100 100 100 100 100 100 100 100 100 100 100 100 100 100 100 100 100 100 100 100 99 100 100 100 100
100 100 100 100 100 100 100 100 100 98 100 100 100 100 100 100 100 100 100 100 100 100 100 99 91 97 100 100 100 100 100 100 100 100 100 100 100 100 100 100 100 100 100 100 100 100 100 100 100 100 100 100 100 100
100 100 100 100 100 100 100 100 100 100 100 100 100 100 100 100 100 100 100 100 100 100 100 100 100 100 100 100 100 100 100 100 100 100 100 100 100 100 100 100 100 100 100 100 100 100 100 100 100 100 100 100 100 100
100 100 100 100 100 100 100 100 100 100 100 100 100 100 100 100 100 100 100 100 100 100 100 100 100 100 100 100 100 100 100 100 100 100 100 100 100 100 100 100 100 100 100 100 100 100 100 100 100 100 100 100 100 100
100 100 100 100 100 100 100 100 100 100 100 100 100 100 100 100 100 100 100 100 100 100 100 100 100 100 100 100 100 100 100 100 100 100 100 100 100 100 100 100 100 100 100 100 100 100 100 100 100 100 100 100 100 100
100 100 100 100 100 100 95 99 92 95 100 100 99 100 100 100 100 100 100 100 100 100 100 100 100 100 100 100 100 100 100 100 100 100 100 100 100 100 100 100 100 100 100 100 100 100 100 100 100 100 100 100 100 100
94 87 52 15 57 38 40 60 50 100 99 100 100 98 100 100 99 100 100 100 100 100 100 100 100 100 100 100 100 100 100 100 100 100 100 100 100 100 100 100 100 100 100 100 100 100 100 100 100 100 100 100 100 100
52 21 21 6 19 39 10 44 76 89 82 100 100 100 100 97 87 99 100 100 100 100 100 100 100 100 100 100 100 100 100 100 100 100 100 100 100 100 100 100 100 100 100 100 100 100 100 100 100 100 100 100 100 100
83 66 33 31 38 30 64 88 91 92 100 100 100 97 98 93 100 100 100 100 100 100 100 100 100 100 100 100 100 100 100 100 100 100 100 100 100 100 100 100 100 100 100 100 100 100 100 100 100 100 100 100 97 100
59 85 76 99 71 68 86 96 99 97 100 100 100 96 96 100 99 100 100 100 100 100 100 100 100 100 100 100 100 100 100 100 100 100 100 100 100 100 100 100 100 100 100 100 100 100 100 100 100 100 100 100 84 99
70 96 88 97 96 90 97 94 92 93 100 100 100 100 93 98 100 100 100 100 100 100 100 100 100 100 100 99 97 83 36 26 47 79 56 86 90 96 100 100 98 100 100 100 100 100 100 100 100 100 100 100 100 100
77 43 64 57 51 57 56 73 100 100 100 97 98 99 100 100 100 100 100 100 100 100 100 100 100 100 100 100 100 100 100 96 99 98 100 100 100 100 100 100 100 74 100 94 100 100 100 100 100 100 100 100 100 100
99 99 68 60 12 64 95 98 100 100 100 100 100 100 100 100 100 100 100 100 100 100 100 100 100 100 100 87 79 77 97 100 30 5 11 97 100 100 100 100 100 100 100 100 74 100 100 100 96 96 100 100 100 100
100 100 100 100 97 98 100 100 100 100 100 100 100 100 100 100 100 100 100 100 100 100 100 100 100 100 100 100 93 75 99 100 100 100 100 100 100 100 100 100 100 100 100 100 100 100 49 80 100 100 97 100 100 100
100 100 100 98 100 100 100 100 100 100 100 100 100 99 100 100 100 100 100 100 100 100 100 100 100 100 100 100 100 98 100 100 99 95 99 100 100 100 100 100 100 100 100 100 100 100 99 96 100 100 100 100 100 94
100 100 100 81 100 100 100 100 100 100 100 100 100 100 100 100 100 100 100 100 100 100 98 100 100 100 100 95 90 53 30 100 100 100 100 100 100 100 100 100 100 100 100 100 100 100 100 100 100 100 100 100 100 100
98 90 45 94 100 100 100 100 100 100 100 100 100 100 100 100 100 100 100 100 100 100 100 100 100 100 96 100 97 94 74 99 73 58 72 85 92 54 90 100 100 100 100 100 100 100 100 99 98 85 95 100 100 100

GFSWCAN_prec_cloud_066.txt.gz
Cloud_Cover
100 100 100 100 100 55 100 100 100 100 74 88 90 98 100 100 100 100 100 100 100 100 86 100 91 100 100 100 71 0 53 39 100 100 84 98 32 15 100 100 100 100 100 100 100 100 90 100 100 96 99 100 26 23
100 100 100 96 67 99 100 100 100 100 100 37 100 100 100 100 100 100 100 100 100 98 100 100 100 100 100 100 82 0 14 89 95 100 14 16 9 100 100 100 100 100 100 100 100 100 100 100 100 100 100 100 98 99
100 100 100 99 100 100 100 100 100 94 100 100 100 100 100 100 100 100 100 100 100 100 100 100 100 100 100 100 28 2 73 8 100 99 67 5 2 100 100 100 100 100 100 100 100 100 100 100 100 100 100 100 68 82
100 100 100 100 99 100 99 51 80 100 100 100 100 100 100 100 90 100 100 100 100 100 100 100 100 100 77 75 5 4 22 61 85 78 92 54 3 87 100 100 100 100 100 100 100 100 100 100 100 100 100 100 100 100
100 100 100 100 100 99 100 100 100 100 100 100 100 100 100 100 100 100 100 100 100 100 100 100 100 71 100 100 5 5 19 92 100 83 53 7 5 10 100 100 100 74 100 100 99 100 100 100 100 99 100 100 100 100
100 100 100 100 100 100 100 100 100 100 100 100 100 100 100 100 100 100 100 100 100 100 100 100 47 100 100 60 5 0 5 30 100 80 31 50 7 0 46 100 100 100 100 100 100 100 100 100 100 100 100 100 100 100
100 100 100 100 100 100 100 100 100 100 100 100 100 100 100 100 100 100 100 100 100 100 100 100 100 100 100 86 4 20 11 90 32 94 76 5 1 0 2 100 100 100 100 100 100 100 100 100 100 100 100 100 100 68
100 100 100 100 100 100 100 100 100 100 100 100 100 100 100 100 100 100 100 94 100 100 100 100 100 100 100 36 5 16 51 100 100 100 89 0 0 49 6 100 100 100 100 78 20 88 100 100 100 73 100 100 100 52
100 100 100 100 100 100 100 100 100 100 100 100 100 100 100 100 100 100 100 100 100 100 100 100 100 100 82 8 6 18 100 100 21 12 5 34 5 53 42 100 100 100 96 5 28 10 97 100 100 100 100 100 100 100
89 100 100 100 100 100 100 100 100 100 100 100 100 100 100 100 100 100 100 100 100 100 100 100 100 68 72 97 86 100 100 77 14 1 64 100 64 50 22 100 94 99 98 30 65 100 100 100 100 100 100 100 100 100
6 86 100 100 100 100 100 100 100 100 100 100 100 100 100 100 100 100 100 100 100 100 100 86 36 60 89 100 100 100 100 100 84 18 42 94 13 100 100 100 78 82 92 100 100 100 100 100 100 100 100 100 100 100
5 21 59 100 100 100 100 100 100 96 100 100 100 100 100 100 100 100 100 100 100 100 86 68 21 89 94 100 100 100 100 100 100 74 89 96 100 100 100 100 100 100 100 100 100 100 100 100 100 100 100 100 100 100
5 4 4 52 98 100 100 100 100 42 40 88 88 92 92 95 100 100 100 100 100 98 63 97 100 99 88 100 100 100 100 100 100 100 100 100 100 100 100 100 100 100 100 100 100 100 100 100 100 100 100 100 100 100
5 5 5 4 5 24 96 100 6 35 92 79 97 81 100 78 100 100 100 100 100 100 100 100 100 100 100 100 100 100 100 100 100 100 100 100 100 100 100 100 100 100 100 100 100 100 100 100 100 100 100 100 99 97
57 36 22 56 96 100 98 100 90 72 57 64 76 98 97 100 99 97 99 100 100 100 100 100 100 100 100 100 100 100 100 100 100 100 100 100 100 100 98 100 100 100 100 100 100 100 100 100 100 100 100 100 100 100
100 100 100 100 100 100 100 100 77 98 100 100 100 100 100 100 92 99 96 100 100 100 100 100 100 100 100 100 100 100 100 100 100 100 100 100 100 100 100 100 100 100 100 100 100 100 100 100 100 100 100 100 100 100
100 100 100 100 100 39 43 79 92 91 100 100 100 100 100 100 100 100 100 90 100 100 100 100 100 100 100 100 100 100 100 100 100 100 100 100 100 100 100 100 100 100 100 100 100 100 100 100 100 100 100 100 100 100
100 100 100 100 100 100 100 100 100 92 100 100 100 100 100 100 100 100 100 100 99 100 100 100 100 100 100 100 100 100 100 100 100 100 100 100 100 100 100 100 100 100 100 100 100 100 100 100 100 100 100 100 100 100
100 100 100 100 100 100 100 100 100 100 100 100 100 100 100 100 100 100 100 100 100 100 100 100 100 100 100 100 100 100 100 100 100 100 100 100 100 100 100 100 100 100 100 100 100 100 100 100 100 100 100 100 100 100
100 100 100 100 100 100 100 100 100 100 100 100 100 100 100 100 100 100 100 100 100 100 100 100 100 100 100 100 100 100 100 100 100 100 100 100 100 100 100 100 100 100 100 100 100 100 100 100 100 100 100 100 100 100
100 100 100 100 100 100 100 100 100 100 100 100 100 100 100 100 100 100 100 100 100 100 100 100 100 100 100 100 100 100 100 100 100 100 100 100 100 100 100 100 100 100 100 100 100 100 100 100 100 100 100 100 100 100
100 100 100 100 100 100 100 100 100 100 88 96 99 100 100 100 100 100 100 100 100 100 100 100 100 100 100 100 100 100 100 100 100 100 100 100 100 100 100 100 100 100 100 100 100 100 100 100 100 100 100 100 100 100
100 100 100 100 100 98 91 74 45 87 97 90 74 97 98 100 98 100 100 100 100 100 100 100 100 100 100 100 100 100 100 100 100 100 100 100 100 100 100 100 100 100 100 100 100 100 100 100 100 100 100 100 100 100
100 100 86 74 34 82 10 54 98 98 84 96 99 100 96 99 100 99 100 100 100 100 100 100 100 100 100 100 100 100 100 100 100 100 100 100 100 100 100 100 100 100 100 100 100 100 100 100 100 100 100 100 100 100
100 100 98 72 58 58 93 100 99 93 100 100 100 99 100 100 99 100 100 100 100 100 100 100 100 100 100 100 100 100 100 100 100 100 100 100 100 100 100 100 100 100 100 100 100 100 100 100 100 100 100 100 100 100
100 100 100 99 83 88 87 98 100 100 100 100 100 100 99 100 100 100 100 100 100 100 100 100 100 100 100 100 100 100 100 100 100 100 100 100 100 100 100 100 100 100 100 100 100 100 100 100 100 100 100 97 56 100
100 100 100 100 99 94 98 98 97 94 100 100 100 100 100 100 100 100 100 100 100 100 100 100 100 100 100 100 100 100 100 100 100 81 85 97 100 100 100 100 100 100 100 100 100 100 99 100 87 98 100 100 100 100
100 100 87 67 83 54 58 89 100 100 100 93 100 100 100 100 100 100 100 100 100 100 100 100 100 100 100 100 100 100 100 50 8 71 93 75 100 100 99 100 96 71 29 45 100 70 99 90 100 100 100 100 100 100
100 100 77 89 77 82 99 100 100 100 96 100 100 100 100 100 100 100 100 100 100 100 100 100 100 100 100 100 100 100 100 100 54 16 84 100 100 100 100 100 100 100 100 100 53 40 34 77 28 42 99 100 100 100
100 100 100 100 100 100 100 100 100 100 100 82 89 98 100 100 100 100 100 100 100 100 100 99 100 100 100 100 100 100 100 100 100 100 100 100 100 100 100 100 100 100 100 100 100 100 51 92 96 100 97 96 100 47
100 100 100 86 100 100 100 100 100 100 100 100 100 100 100 100 100 100 100 100 100 100 100 99 100 100 100 100 100 100 100 99 36 46 98 100 100 100 100 100 100 100 100 100 100 100 49 83 100 100 100 93 93 93
100 97 43 58 100 100 100 100 100 100 100 100 100 99 100 100 100 100 100 100 100 100 94 100 100 100 100 100 86 16 65 100 100 94 99 100 100 100 100 100 100 100 100 100 100 100 100 96 99 100 100 100 97 72
100 92 74 78 100 100 95 100 100 100 100 100 100 100 100 99 100 100 100 100 100 100 100 100 100 100 73 100 95 62 100 75 30 39 5 20 13 17 54 100 100 100 100 100 100 100 100 100 100 92 95 100 100 97

GFSWCAN_prec_cloud_069.txt.gz
Cloud_Cover
100 100 100 100 100 98 84 100 99 95 100 100 91 78 96 83 100 100 100 100 100 100 100 37 80 100 100 100 100 74 100 18 22 20 6 15 74 30 82 65 32 75 100 100 100 87 100 100 100 100 100 100 100 100
100 100 100 100 100 43 95 100 100 100 100 100 100 100 100 100 100 100 100 100 100 100 100 100 100 100 100 100 88 87 1 3 42 5 100 50 5 5 44 83 5 9 99 100 100 100 100 100 100 100 100 100 100 100
100 100 100 100 98 80 100 100 100 100 100 100 100 100 100 100 100 100 100 100 100 100 100 100 100 100 92 70 67 89 4 5 13 2 17 100 97 61 32 5 29 13 100 100 100 100 100 100 100 100 100 96 97 100
100 100 100 93 100 95 100 100 100 100 94 100 100 100 100 100 100 100 100 100 100 100 100 100 100 100 69 11 15 58 96 100 76 96 100 100 90 94 15 4 23 100 100 100 100 100 100 100 100 100 100 100 100 74
100 100 100 100 100 100 98 98 100 98 96 100 100 100 100 100 100 100 100 100 100 100 100 100 99 82 99 100 100 48 100 100 76 14 79 100 88 37 1 2 30 100 100 100 100 100 100 100 100 100 100 100 100 93
100 100 100 100 100 100 100 100 100 100 100 100 100 100 100 100 100 100 100 100 100 100 100 100 91 100 99 100 100 100 100 100 95 5 85 99 99 17 9 4 17 100 100 100 100 100 100 100 100 100 100 100 100 100
100 100 100 100 100 100 100 100 100 100 96 100 100 100 100 100 100 100 100 100 100 100 98 100 85 38 100 100 100 100 98 40 59 100 100 7 100 78 74 8 100 100 100 100 100 100 100 100 100 100 100 100 100 100
100 100 100 100 100 100 100 100 100 100 100 100 100 100 100 100 100 100 100 100 100 100 100 99 100 100 100 100 100 99 5 5 5 57 95 100 100 100 99 91 98 94 100 100 100 100 100 100 100 100 100 100 100 100
100 100 100 100 100 100 100 100 100 100 100 100 100 100 100 100 100 100 100 96 100 96 100 100 100 100 100 100 100 95 46 68 22 87 100 100 100 100 100 99 72 100 100 100 100 100 100 100 100 100 100 100 100 100
100 100 100 100 100 100 100 100 100 100 100 100 100 100 100 100 100 100 100 90 85 100 100 100 100 100 98 100 100 37 66 45 8 78 100 100 100 100 100 100 100 77 100 100 100 100 100 100 100 100 100 100 100 100
100 100 100 100 100 100 100 100 100 95 100 85 98 100 100 100 99 100 100 100 100 100 100 100 100 100 100 100 100 92 97 99 100 100 100 100 100 100 100 100 100 100 71 70 100 100 100 100 92 100 100 100 100 100
99 100 100 100 100 100 100 100 100 100 100 100 100 100 100 100 100 100 100 100 100 100 100 100 100 100 100 100 92 100 100 81 100 100 100 100 100 100 100 100 99 100 100 100 84 82 90 100 100 100 100 100 100 100
42 100 100 100 100 100 100 100 100 100 95 90 92 100 100 100 100 100 100 100 100 100 100 100 100 100 59 84 97 96 100 100 100 100 100 100 100 100 100 100 100 100 100 100 100 100 100 100 100 100 100 100 100 100
78 100 100 61 5 37 96 100 100 100 100 100 99 84 60 96 88 93 100 98 100 100 100 100 90 72 100 100 100 100 100 100 100 100 100 100 100 100 97 100 98 91 100 100 100 100 100 100 100 100 100 100 100 100
47 32 90 92 84 100 26 5 5 12 100 100 100 100 100 100 100 100 100 100 100 100 100 100 98 99 100 100 100 100 100 100 100 100 100 100 100 100 94 95 100 100 100 100 100 100 100 100 100 100 100 100 100 100
100 100 100 100 98 93 59 14 5 5 3 4 10 95 100 94 100 96 100 99 100 100 100 100 100 100 100 100 100 100 100 100 100 100 100 100 100 100 100 100 100 100 100 100 100 100 100 100 100 100 100 100 100 100
91 97 76 94 99 100 100 94 100 100 7 75 99 95 80 69 73 92 100 100 100 100 84 100 100 100 100 100 100 100 100 100 100 100 100 100 100 100 100 100 100 100 100 100 100 100 100 100 100 100 100 100 100 100
100 100 100 100 88 58 71 97 100 100 100 88 98 99 100 100 99 93 100 98 95 100 98 100 100 99 100 98 100 100 100 100 100 100 100 100 100 100 100 100 100 100 100 100 100 100 100 100 100 100 100 100 100 100
100 100 100 100 100 100 94 100 100 100 93 98 100 98 100 100 100 100 100 100 98 72 88 100 100 100 100 100 100 100 100 100 100 100 100 100 100 100 100 100 100 100 100 100 100 100 100 100 100 100 100 100 100 100
100 100 100 100 100 100 100 99 100 100 100 100 100 100 98 100 98 100 100 100 99 100 100 78 98 100 100 100 100 100 100 100 100 100 100 100 100 100 100 100 100 100 100 100 100 100 100 100 100 100 100 100 100 100
100 100 100 100 100 100 100 100 100 100 100 100 100 100 100 100 100 100 100 100 100 100 100 100 100 100 100 100 100 100 100 100 100 100 100 100 100 100 100 100 100 100 100 100 100 100 100 100 94 98 98 100 100 100
100 100 100 100 100 100 100 100 100 100 100 100 100 100 100 100 100 100 100 100 100 100 100 100 100 100 100 100 100 100 100 100 100 100 100 100 100 100 100 100 100 100 100 100 100 100 100 100 100 100 95 99 100 100
100 100 100 100 100 100 100 98 88 84 85 86 77 89 100 100 97 70 93 99 100 100 99 99 100 100 100 100 100 100 100 100 100 100 100 100 100 100 100 100 100 100 100 100 100 100 100 100 100 100 100 100 100 99
100 100 100 100 100 100 89 88 78 71 61 75 67 74 91 96 76 73 99 100 100 100 100 100 100 100 100 100 100 100 100 100 100 100 100 100 100 100 100 100 100 100 100 100 100 100 100 100 100 100 100 100 100 100
96 91 100 100 100 100 100 100 99 96 99 87 65 75 84 46 64 100 100 100 100 100 100 100 99 97 100 100 100 99 100 100 100 100 100 100 100 100 100 100 100 100 100 100 100 100 100 100 100 100 100 100 100 93
100 92 100 100 100 100 100 100 100 99 88 99 100 89 61 31 54 100 100 99 98 93 100 98 100 100 100 100 100 100 98 100 100 100 100 100 100 100 100 100 100 100 100 100 100 97 85 70 91 86 5 5 5 9
100 100 100 100 100 100 100 100 100 58 42 100 96 83 73 65 99 99 99 97 83 93 95 100 100 100 100 100 100 100 100 100 100 100 100 100 100 85 52 48 94 98 34 5 5 26 45 5 28 98 26 5 5 63
100 100 73 69 74 94 100 100 100 99 41 66 64 41 80 100 100 100 91 90 66 86 100 100 100 100 100 100 100 100 100 100 100 98 91 59 68 78 64 6 62 42 14 5 5 5 5 20 5 6 86 95 99 98
68 79 62 83 86 100 100 100 100 100 69 97 93 94 92 96 100 83 85 75 75 82 99 99 98 99 100 99 91 86 78 88 87 91 100 100 99 64 30 48 5 99 100 86 10 42 15 10 11 11 5 70 44 12
89 81 84 94 100 100 100 100 100 83 21 5 24 82 90 100 100 100 100 100 96 88 86 90 100 99 100 38 67 67 15 18 61 76 94 96 100 86 66 86 89 67 87 82 73 99 40 74 100 100 97 25 5 5
100 100 100 100 95 66 62 44 6 27 28 78 70 5 65 68 64 60 55 68 75 65 36 55 92 51 31 96 100 97 99 24 5 5 8 27 59 29 5 31 5 87 100 14 24 60 5 23 68 100 84 11 96 94
100 99 85 55 82 95 100 100 98 77 100 6 10 18 85 96 96 84 75 96 95 100 100 99 51 75 22 11 7 22 15 34 8 75 23 80 50 38 85 100 98 99 62 5 100 97 82 5 5 10 97 52 6 40
100 100 77 83 86 98 86 99 43 80 98 97 93 99 89 99 98 96 69 89 94 99 93 58 33 5 43 92 25 40 20 51 57 50 74 75 30 60 45 58 81 23 57 61 14 91 99 98 93 34 20 14 96 83

GFSWCAN_prec_cloud_072.txt.gz
Cloud_Cover
43 75 100 100 100 100 100 99 57 93 95 100 88 100 100 100 100 100 100 100 100 100 84 96 78 100 98 100 100 100 100 76 5 5 16 12 4 0 2 5 35 91 100 70 68 57 100 100 100 100 99 63 100 100
100 96 100 100 100 100 82 26 51 100 53 100 100 100 100 100 100 100 100 100 100 100 100 100 100 100 100 100 100 100 97 100 28 2 39 4 8 1 0 3 95 97 49 100 98 100 100 100 100 100 100 88 100 100
100 100 100 96 100 91 100 100 100 100 100 100 100 100 100 100 100 100 100 100 100 100 100 100 94 99 100 100 100 100 45 98 47 5 5 8 12 31 5 2 100 100 100 100 74 100 100 100 100 100 100 100 100 100
100 100 100 100 100 100 100 100 100 85 100 100 100 100 100 100 100 100 100 100 100 100 100 95 89 100 100 100 100 96 91 100 100 100 92 14 9 34 21 26 22 100 100 100 66 100 100 100 100 100 100 100 100 98
100 98 99 100 100 100 99 87 100 100 100 100 100 100 100 100 100 100 77 100 100 100 100 100 100 100 60 31 29 90 100 80 100 100 89 36 52 83 100 46 65 81 88 60 94 100 100 96 100 100 100 100 100 100
100 100 100 100 91 100 100 100 87 99 100 100 100 100 100 100 100 100 100 100 100 100 100 100 100 100 100 100 100 100 100 100 100 100 48 5 100 90 96 9 20 85 72 5 21 93 94 71 100 100 100 100 100 100
100 100 100 99 100 100 100 100 100 86 97 100 100 100 100 100 100 100 100 100 100 100 100 100 100 73 91 100 97 100 100 100 99 95 88 100 30 5 100 100 100 77 10 0 23 60 96 86 100 100 100 100 100 100
100 100 100 100 100 80 100 100 100 100 100 100 100 100 100 100 100 100 100 100 100 100 100 98 100 100 100 100 100 100 100 100 100 100 100 93 100 81 100 100 100 100 42 80 12 100 100 100 100 100 100 100 100 100
100 100 100 100 100 100 100 100 100 100 100 100 100 100 100 100 100 100 100 100 100 82 78 60 63 100 97 100 100 100 100 100 100 100 80 28 100 100 100 100 100 100 91 34 65 100 100 100 100 100 100 100 100 100
100 100 100 100 100 100 100 100 100 100 100 100 100 100 100 100 100 100 100 100 100 100 99 100 100 100 100 100 100 100 100 100 73 9 8 90 100 100 100 100 100 100 96 59 7 100 100 100 100 100 100 100 100 100
100 100 100 100 100 100 100 100 100 97 100 100 100 99 100 100 99 100 89 100 100 100 100 100 100 100 100 100 100 100 100 99 41 67 60 100 100 100 100 100 100 100 100 93 84 66 78 99 100 100 100 100 100 100
100 100 100 100 100 100 100 100 97 91 100 97 94 59 82 89 96 100 100 100 100 100 100 100 100 100 100 100 100 100 100 100 100 66 88 100 100 100 100 100 100 100 100 100 98 100 100 100 100 100 100 100 100 100
100 100 100 100 100 100 100 100 100 100 100 100 100 100 100 100 100 100 100 100 100 100 100 100 100 100 100 100 100 100 100 94 100 100 99 100 100 97 100 100 100 100 100 100 100 100 100 100 100 100 100 100 100 100
62 36 49 97 100 100 100 100 100 100 100 100 100 100 100 100 100 100 100 100 100 100 100 100 100 100 100 96 100 100 100 100 100 100 100 100 100 100 100 100 100 100 100 100 100 100 100 100 100 100 100 100 100 100
100 85 5 4 4 74 100 100 100 100 100 98 100 99 100 100 100 100 100 100 100 100 100 100 97 100 90 99 94 100 100 100 100 100 100 100 100 100 100 100 100 100 100 100 100 100 100 100 100 100 100 100 100 100
33 92 18 5 5 5 4 5 22 34 8 5 38 98 92 92 100 100 100 100 100 100 100 100 100 100 100 99 98 100 100 100 100 100 100 99 100 100 100 100 100 100 100 100 100 100 100 100 100 100 100 100 100 100
99 83 100 94 6 12 45 86 49 10 5 5 88 81 91 98 99 100 100 100 100 100 100 98 100 100 100 100 100 100 93 100 100 100 100 100 100 100 100 100 100 100 100 100 100 100 100 100 100 100 100 100 100 100
100 100 100 100 57 24 90 23 81 34 60 95 98 100 99 89 96 91 100 99 75 75 100 100 92 99 100 100 100 100 100 100 100 100 100 100 100 100 100 100 100 100 100 100 100 100 100 100 100 100 100 100 100 100
100 100 100 100 100 68 42 29 43 69 99 100 100 100 100 100 100 100 100 100 95 98 100 100 100 97 100 100 100 100 100 100 100 100 100 100 100 100 100 100 100 100 100 100 100 100 100 100 100 100 100 100 100 100
100 100 100 98 65 69 77 64 65 34 100 99 100 100 100 100 100 100 100 100 90 100 100 100 100 100 100 100 100 100 100 100 100 100 100 100 100 100 100 100 100 100 100 100 100 100 100 100 100 100 100 100 100 100
96 100 100 82 98 100 100 97 100 90 98 100 100 100 100 100 99 93 99 97 89 100 96 98 100 100 100 100 100 100 100 100 100 100 100 100 100 100 100 100 100 100 100 100 100 100 100 100 100 100 100 100 100 100
100 100 100 100 100 84 94 97 67 55 77 71 90 97 100 100 100 100 100 100 100 100 100 100 100 100 100 100 100 100 100 100 100 100 100 100 100 100 100 100 100 100 100 100 100 100 100 100 100 100 100 100 100 100
100 100 100 100 100 100 100 100 98 99 100 84 60 70 76 53 52 70 81 94 100 100 100 100 100 93 96 100 100 98 100 100 97 100 100 100 100 100 100 100 100 100 100 100 100 100 100 100 100 100 100 100 100 100
100 100 100 100 100 100 100 100 100 100 100 100 100 100 100 83 33 40 98 100 100 100 90 74 69 80 75 77 97 100 100 100 100 100 100 100 100 100 100 100 100 100 100 100 100 100 100 100 100 100 100 100 100 99
100 100 100 100 100 100 100 100 100 100 100 100 100 93 98 28 30 67 90 100 98 87 96 74 61 72 82 94 90 95 98 99 100 100 100 100 100 100 100 100 100 100 100 100 100 100 100 96 75 27 11 6 67 74
100 99 100 100 100 100 100 100 100 100 100 100 100 100 100 32 30 100 97 98 96 99 100 100 99 98 97 100 99 99 100 100 100 100 100 100 100 100 99 100 100 100 100 75 41 15 70 49 5 5 21 20 73 67
100 100 100 100 100 100 100 100 99 98 92 100 90 60 46 95 100 99 100 94 93 99 100 100 92 94 100 100 100 100 100 100 100 100 100 100 100 100 98 99 98 90 95 90 5 5 22 72 48 46 60 61 60 10
100 100 100 100 100 98 88 47 75 100 98 99 40 91 77 96 99 100 89 72 66 81 86 95 100 100 100 100 100 100 100 100 100 100 100 94 91 65 24 89 58 50 66 7 5 5 9 15 37 96 96 90 99 99
100 100 100 100 100 73 99 98 100 69 66 95 77 99 98 97 100 83 74 75 78 87 92 100 100 96 93 98 100 100 98 91 78 98 98 100 100 100 66 37 80 75 72 6 44 90 30 11 22 6 38 27 5 22
100 99 100 100 100 100 100 81 79 81 23 22 46 95 97 100 100 97 99 90 96 95 90 99 100 90 70 45 100 41 72 78 71 31 97 89 97 100 100 82 96 98 95 87 79 5 48 51 87 98 99 95 29 6
100 100 100 98 100 100 91 64 26 6 18 27 24 54 87 91 100 100 100 100 100 99 85 83 93 88 48 86 91 100 91 42 89 83 66 86 75 67 79 36 30 66 6 49 22 5 11 41 84 88 87 45 52 38
100 100 68 75 95 99 99 97 82 70 94 70 88 97 74 66 100 94 98 61 70 80 71 59 60 98 62 86 93 91 12 77 79 60 58 72 92 99 100 71 78 62 5 12 86 89 99 56 28 60 11 5 53 84
98 75 63 79 95 100 90 99 40 94 95 98 98 100 99 98 85 90 99 85 76 57 86 68 63 96 72 61 86 99 35 43 95 69 100 88 26 92 56 66 82 83 66 58 83 99 99 99 100 100 100 98 96 100

GFSWCAN_prec_cloud_075.txt.gz
Cloud_Cover
92 68 100 100 100 78 100 100 100 100 100 100 100 100 100 97 100 86 99 100 100 100 100 100 100 97 100 100 100 100 100 97 89 100 100 99 7 3 4 16 5 12 100 100 100 94 79 100 100 100 95 100 100 100
100 100 100 100 100 100 96 49 15 82 88 100 100 100 100 100 100 100 100 100 100 100 100 98 98 41 100 100 100 100 100 100 28 28 42 61 7 2 0 5 14 10 100 100 100 96 100 100 100 100 100 100 100 100
100 100 100 100 100 97 100 99 100 100 100 100 78 100 100 100 100 100 100 100 100 100 100 100 57 55 100 92 100 100 99 100 21 5 5 13 5 2 4 5 5 8 100 100 98 99 100 100 100 100 100 100 100 100
100 100 100 100 100 100 77 97 100 100 100 100 100 100 100 100 100 100 100 100 96 42 81 96 97 42 98 100 100 100 100 100 100 93 7 11 5 5 4 18 0 0 37 100 100 100 100 100 100 100 100 100 100 100
100 100 100 100 100 100 100 96 100 100 100 100 100 100 100 100 100 100 100 100 100 100 100 99 35 39 100 100 100 100 100 100 100 97 68 84 89 5 5 2 5 1 6 65 7 94 77 72 100 100 100 100 100 100
100 99 100 100 100 100 60 96 100 100 100 100 100 100 100 100 100 100 100 95 100 99 100 100 100 100 100 100 100 100 100 100 100 100 63 18 5 23 20 2 3 92 45 49 53 95 79 84 100 100 100 100 100 100
100 100 100 100 100 100 100 100 100 100 100 100 100 100 100 100 100 100 100 100 100 100 100 100 100 100 100 100 100 100 100 100 100 100 100 48 31 96 82 85 41 100 100 100 100 91 42 86 99 100 100 100 100 100
100 100 100 100 100 100 100 100 100 100 100 94 100 100 100 100 100 100 100 100 100 100 100 100 100 100 88 94 100 100 100 100 100 96 67 5 99 96 98 100 100 99 54 100 91 98 58 38 91 100 100 100 100 100
100 100 100 100 100 100 100 100 100 100 100 100 100 100 100 100 100 100 100 100 100 100 100 100 69 100 93 100 100 100 98 100 88 86 100 100 100 99 100 100 100 100 100 100 89 100 80 92 86 100 100 100 100 100
100 100 100 100 100 100 100 100 100 100 100 100 100 100 100 100 100 100 100 100 96 100 100 100 100 100 100 79 100 100 96 76 49 28 97 97 100 100 100 100 100 100 100 89 100 100 100 78 99 88 100 100 100 100
100 100 100 100 100 100 100 100 99 100 100 100 100 100 100 100 100 100 99 97 100 100 87 97 100 99 100 100 100 100 100 100 100 100 100 100 100 100 95 100 100 100 100 100 100 100 100 99 89 90 90 100 100 100
100 100 100 100 100 100 100 100 100 100 100 100 100 100 100 96 99 100 99 95 84 100 99 100 100 100 100 100 100 100 100 100 100 100 100 96 97 90 93 78 100 100 100 100 100 100 100 100 100 100 100 100 100 100
100 100 100 100 100 100 100 100 100 100 100 100 100 100 100 100 100 100 100 100 100 98 100 100 100 100 100 100 100 100 100 100 100 100 99 98 79 92 100 99 100 100 100 100 100 100 100 100 100 100 100 100 100 100
100 100 100 100 100 100 100 100 100 100 100 100 100 100 100 100 100 100 100 100 100 100 100 100 100 100 100 100 100 99 100 97 100 100 100 100 100 89 100 100 100 100 100 100 100 100 100 100 100 100 100 100 100 100
76 30 81 100 100 100 100 100 100 100 100 100 96 100 100 100 100 100 100 100 100 100 100 100 100 100 100 98 95 82 86 98 99 99 100 100 100 99 100 100 100 100 100 99 100 100 100 100 100 100 100 100 100 100
6 5 5 7 95 100 95 95 99 100 100 100 100 100 100 100 100 100 100 100 100 100 100 100 100 100 100 93 95 92 98 100 100 100 100 100 100 100 100 100 100 100 100 100 100 100 100 100 100 100 100 100 100 100
9 5 5 5 5 5 5 29 21 97 100 100 100 100 100 100 100 100 100 100 100 100 100 100 100 100 100 79 82 99 100 100 100 100 100 100 100 100 100 100 100 100 100 100 100 100 100 100 100 100 100 100 100 100
30 5 5 5 13 65 50 90 37 8 35 81 82 100 100 100 100 93 100 99 99 94 100 100 100 100 100 100 99 96 98 100 100 100 100 100 100 100 100 100 100 100 100 100 100 100 100 100 100 100 100 100 100 100
94 33 28 5 5 5 11 28 96 89 87 92 99 100 99 99 100 96 98 86 92 94 98 100 100 100 93 99 99 100 97 100 100 100 100 100 100 100 100 100 100 100 100 100 100 100 100 100 100 100 100 100 100 100
100 100 80 25 20 26 25 57 73 8 92 98 96 95 83 95 96 100 100 100 98 100 99 100 100 97 99 97 100 100 97 100 100 90 93 100 100 100 100 100 100 100 100 100 100 100 100 100 100 100 100 100 100 100
76 86 99 99 43 66 69 16 33 38 48 100 99 72 85 100 82 83 100 100 100 100 100 100 100 100 100 100 100 100 93 96 99 94 97 100 100 100 100 100 100 100 100 100 100 100 100 100 100 100 100 100 100 100
100 100 100 100 100 40 95 50 59 44 90 97 89 84 99 100 97 57 57 94 98 100 100 100 100 100 100 96 100 99 99 97 100 100 98 98 100 100 100 100 100 100 100 100 100 100 100 100 100 100 100 100 100 100
100 100 100 100 100 100 100 100 100 100 100 90 89 94 100 100 100 98 92 96 97 100 100 100 100 100 100 99 99 99 100 98 98 100 100 100 100 100 100 100 100 100 100 100 100 100 100 100 100 100 100 100 100 100
100 100 100 100 100 100 100 100 100 100 100 100 100 100 100 100 100 80 91 100 100 100 100 100 100 100 93 96 100 100 100 95 100 100 100 100 100 100 100 100 100 100 100 100 100 100 100 100 100 100 100 100 89 100
100 100 100 100 100 100 100 100 100 100 100 100 100 100 100 100 99 100 100 100 100 100 99 100 100 100 98 93 90 92 99 100 100 100 100 100 100 100 100 100 100 100 100 100 100 100 99 98 73 54 42 53 85 100
100 100 100 100 100 100 100 100 100 100 100 99 100 98 91 76 78 100 100 100 99 92 89 93 94 95 100 100 100 100 100 100 100 100 100 100 100 100 100 100 100 100 100 100 96 72 49 52 5 17 97 89 90 100
100 100 100 86 83 76 80 82 63 50 92 100 85 76 6 96 100 96 100 91 79 97 82 76 92 97 98 100 99 99 100 100 99 96 97 96 100 100 100 100 100 99 100 100 99 71 33 55 84 90 98 100 74 69
96 80 98 100 99 91 99 96 100 100 95 100 8 92 80 79 99 100 91 87 78 84 96 95 95 98 100 100 97 90 86 82 81 86 97 76 88 83 78 69 74 54 67 66 5 5 7 22 91 99 100 100 100 96
100 100 100 100 100 100 100 100 100 86 86 73 64 100 100 98 100 95 99 98 100 96 97 88 95 95 89 81 84 85 88 64 30 95 100 100 97 73 91 99 100 68 76 68 87 87 36 49 59 67 82 29 12 94
100 100 100 100 100 100 100 100 91 98 28 70 56 99 99 100 100 83 78 77 75 75 83 79 74 85 89 89 89 90 95 99 100 98 100 91 37 67 100 100 100 100 90 100 70 40 80 69 99 100 84 96 86 58
100 100 100 100 100 99 89 60 44 23 8 14 21 66 86 100 100 100 100 100 88 93 87 86 90 92 57 86 81 46 55 85 100 65 30 78 100 100 100 73 99 85 72 66 25 38 62 77 100 100 91 82 75 81
100 100 100 100 100 100 100 83 99 89 100 44 94 92 98 66 99 88 97 100 94 100 95 70 48 37 82 90 96 86 15 82 100 55 90 100 100 100 100 100 100 67 61 98 100 99 74 72 83 96 81 65 67 98
100 100 98 91 92 100 88 92 84 89 92 100 98 99 100 79 64 81 94 97 87 80 87 99 88 51 67 83 62 94 80 74 99 100 100 96 79 99 76 98 90 90 94 100 100 100 100 100 100 100 100 100 100 100

GFSWCAN_prec_cloud_078.txt.gz
Cloud_Cover
100 100 74 93 100 100 100 100 100 100 95 100 100 100 100 74 100 100 100 100 100 100 100 97 100 100 100 100 100 100 100 92 100 100 100 100 96 52 100 100 100 100 100 100 100 100 100 100 100 100 99 100 100 100
92 100 96 100 98 100 100 100 71 99 100 100 80 100 100 100 100 100 100 100 100 100 100 100 100 100 100 100 100 100 100 100 95 23 21 98 66 52 12 100 100 100 100 100 100 72 58 100 100 100 100 100 100 100
96 100 100 100 92 100 100 98 100 97 98 56 100 100 100 100 100 88 100 100 100 100 100 98 100 100 100 100 100 100 100 98 90 93 93 67 5 5 2 5 87 100 100 72 100 100 100 88 100 100 100 98 100 100
100 100 100 100 100 100 100 100 100 100 100 100 100 100 100 100 100 100 100 100 100 100 100 73 100 100 100 100 100 100 100 100 100 100 98 33 5 5 5 3 4 65 100 100 17 44 50 32 99 100 100 84 100 100
100 100 100 100 100 100 100 92 100 100 100 98 100 100 100 100 100 100 100 100 99 93 62 63 100 100 100 100 100 100 100 84 98 97 84 57 92 98 29 5 5 4 7 67 100 96 99 100 100 100 100 95 100 100
100 100 100 100 100 100 100 100 100 100 100 100 100 100 100 100 100 100 100 100 100 44 35 68 89 100 93 100 100 100 100 100 74 91 66 99 93 63 5 5 21 1 0 0 3 2 0 30 100 54 92 100 100 100
100 100 100 100 100 100 100 100 70 100 100 100 100 100 100 100 100 100 99 71 49 84 100 100 100 100 99 100 100 100 100 100 100 100 83 60 70 87 52 57 93 100 60 4 38 33 12 51 100 100 85 100 100 100
100 100 100 100 98 96 100 100 100 96 100 100 100 100 100 100 100 100 100 100 100 100 99 100 100 100 96 100 100 100 100 100 100 91 96 83 100 76 83 100 99 83 70 3 12 61 94 52 100 100 85 100 100 100
100 100 100 100 96 100 100 100 100 100 100 100 100 100 100 100 100 100 100 100 100 100 100 100 100 100 100 100 100 100 100 100 40 100 100 89 100 100 100 100 100 100 100 100 98 97 44 79 95 100 100 100 100 100
100 100 100 100 100 100 100 100 100 100 100 100 100 100 100 100 100 100 100 100 100 100 100 100 100 100 98 100 100 100 100 100 100 100 100 100 100 100 100 100 100 100 100 100 100 90 92 100 100 98 100 100 100 99
100 100 100 100 100 100 100 100 100 100 100 100 100 100 100 100 100 100 100 100 100 100 100 100 100 100 100 100 100 60 76 61 52 53 100 100 100 100 100 100 100 100 100 100 100 100 100 100 100 84 100 100 100 100
100 100 100 100 100 100 100 100 100 100 100 100 100 100 100 98 86 83 94 93 100 100 100 100 100 100 100 99 96 96 71 86 86 100 100 98 100 99 100 100 100 100 100 98 100 100 100 100 100 100 100 100 100 100
89 100 100 100 100 100 100 100 100 100 100 100 100 100 100 92 100 100 100 100 100 100 100 100 99 100 100 100 100 100 100 100 100 100 100 100 100 100 99 100 99 100 99 99 100 100 100 100 100 100 100 100 100 100
100 92 100 100 100 100 100 100 100 100 100 100 100 100 100 100 100 100 100 100 100 100 100 99 99 100 93 100 100 100 100 100 100 100 100 100 100 100 100 100 98 99 99 100 100 100 100 100 100 100 100 100 100 100
100 100 100 98 99 100 100 100 100 100 100 100 100 100 100 100 100 100 100 100 100 100 100 99 94 100 100 100 100 100 100 97 90 100 100 100 100 100 100 99 91 100 100 100 100 100 100 100 100 100 100 100 100 100
53 54 86 100 95 97 100 100 100 100 100 100 100 100 100 100 100 100 100 100 100 100 100 100 100 100 100 100 100 100 100 93 96 96 100 100 100 100 100 100 100 100 100 100 100 100 100 100 100 100 100 100 100 100
5 6 71 95 100 100 94 100 100 100 100 100 100 100 100 100 100 100 100 100 98 100 100 100 100 100 88 96 93 80 100 100 100 100 100 100 100 100 100 100 100 100 100 100 100 100 100 100 100 100 100 100 100 100
100 91 31 7 7 80 94 58 43 46 63 79 81 99 96 100 100 100 100 100 100 100 97 99 100 89 100 100 94 98 95 100 100 100 100 100 100 100 100 100 100 100 100 100 100 100 100 100 100 100 100 100 100 100
99 100 100 100 98 88 33 5 6 56 93 81 92 97 85 97 99 99 99 90 96 88 87 100 100 100 100 100 100 100 97 92 98 95 100 100 99 98 100 100 100 100 100 100 100 100 100 100 100 100 100 100 100 100
95 72 74 100 100 100 87 23 65 13 60 96 96 100 99 71 96 97 90 93 90 98 100 100 100 100 100 100 100 94 97 100 100 100 96 100 100 100 100 100 100 100 100 100 100 100 100 100 100 100 100 100 100 100
87 70 24 6 93 97 80 6 29 57 100 84 99 61 83 100 100 71 73 58 100 100 100 100 100 100 100 100 97 99 100 98 100 100 100 100 100 100 100 100 100 100 100 100 100 100 100 100 100 100 100 100 100 100
96 94 100 11 41 95 83 34 10 41 64 91 70 88 89 90 100 100 100 100 100 100 100 100 100 100 100 100 100 100 99 97 97 100 99 97 100 100 100 100 100 100 100 100 100 100 100 100 100 100 100 100 100 100
43 37 90 100 44 98 93 100 83 99 100 100 94 100 100 100 100 100 99 98 100 100 100 100 100 100 100 100 100 100 99 99 100 100 100 100 100 100 100 100 100 100 100 100 100 100 100 100 100 100 100 100 100 100
100 99 87 95 51 93 56 86 92 100 100 100 100 100 100 100 100 100 100 100 100 100 100 100 100 100 100 100 100 100 100 100 100 100 100 100 100 100 100 100 100 100 100 100 100 100 100 100 100 100 100 100 100 100
100 96 100 100 99 96 100 96 98 90 95 98 95 100 99 98 100 100 100 100 97 85 81 76 87 82 86 99 94 94 95 98 100 100 100 100 100 100 100 100 100 100 100 100 100 100 100 100 100 100 100 100 91 100
99 100 100 100 100 100 100 100 100 99 79 87 100 78 89 92 94 99 99 86 99 94 90 93 100 91 90 96 85 82 94 94 100 100 100 100 100 100 100 100 100 98 100 100 100 100 96 90 59 74 100 94 98 100
84 100 100 100 100 100 100 100 98 95 100 100 100 100 100 99 100 100 100 100 99 94 83 82 84 88 87 96 94 89 88 92 95 99 100 100 100 99 96 89 74 84 62 43 46 35 20 67 92 96 100 100 98 100
66 92 100 100 100 100 100 100 100 100 100 100 100 100 100 68 99 100 100 99 99 90 84 86 91 84 79 80 67 72 77 85 96 98 100 96 98 72 55 78 93 89 70 42 20 27 30 18 86 100 100 100 100 100
97 92 89 96 82 87 100 100 100 99 97 50 63 100 100 98 98 100 100 100 100 85 84 76 99 57 63 74 79 70 66 49 64 77 98 100 95 75 99 100 100 90 93 94 99 78 26 70 100 73 94 76 79 100
81 82 83 83 76 100 99 90 97 91 48 80 66 99 98 100 100 100 95 79 70 64 52 53 53 46 63 75 100 93 89 98 99 100 100 96 54 10 100 100 100 100 100 100 54 64 99 100 98 97 89 83 82 85
100 100 88 64 95 82 71 64 55 25 7 47 68 56 93 100 100 99 99 94 86 81 50 90 91 82 63 62 63 74 18 54 100 70 17 74 100 100 100 100 100 100 94 58 51 74 83 96 100 100 100 100 91 93
100 100 90 66 97 100 100 98 99 94 100 88 99 95 90 21 98 97 100 100 98 92 97 98 93 76 74 88 99 88 38 87 92 82 98 100 100 100 100 100 100 93 100 100 100 100 89 83 95 100 100 99 95 98
91 100 100 100 100 100 99 80 61 88 94 100 100 100 100 44 43 86 97 95 82 82 100 99 91 73 87 74 78 100 99 99 100 97 100 100 100 100 74 85 87 100 100 100 100 100 100 100 100 100 100 100 100 100

GFSWCAN_prec_cloud_081.txt.gz
Cloud_Cover
85 36 82 56 100 74 88 100 100 97 100 100 100 100 100 34 24 100 100 100 100 100 100 93 15 100 100 100 100 100 100 100 100 100 100 100 100 66 70 100 100 100 100 100 100 100 100 100 97 100 100 100 97 100
100 87 100 100 100 100 100 100 100 100 100 98 100 100 100 99 5 25 100 100 100 100 100 100 99 98 100 100 100 100 100 100 100 99 76 100 100 89 17 97 100 100 100 100 100 100 100 100 100 100 100 100 100 100
100 100 100 100 97 100 100 100 100 100 90 100 91 100 100 100 100 31 100 100 100 100 100 100 100 100 100 100 100 100 97 85 99 100 100 96 100 91 34 26 99 100 100 100 100 100 100 100 100 100 90 94 100 100
100 100 100 100 100 100 100 100 100 100 100 100 100 100 100 100 100 100 100 100 100 100 100 100 100 100 100 100 100 100 100 100 100 100 100 94 99 99 84 68 28 97 100 97 76 100 100 100 100 100 90 100 96 70
100 100 71 92 100 100 100 100 99 100 100 98 100 100 100 100 100 100 100 100 100 100 100 99 100 100 100 100 100 100 100 100 100 100 93 100 100 100 90 78 31 8 46 100 67 100 100 100 100 100 100 98 100 96
100 100 100 82 100 100 99 99 100 100 100 97 100 100 100 100 100 100 100 100 100 100 100 100 99 100 100 100 100 100 100 100 95 100 100 77 100 100 87 62 64 99 77 62 54 100 100 100 100 100 100 99 99 100
100 100 100 100 100 90 23 66 100 100 100 100 100 100 100 100 100 100 77 96 100 100 100 90 100 100 100 100 100 100 100 100 82 100 84 100 100 100 100 97 100 100 93 19 100 59 65 100 100 100 98 100 100 99
100 100 100 100 100 97 100 100 100 100 100 100 100 100 100 100 100 100 100 100 100 100 100 64 87 100 64 100 100 100 100 100 98 98 87 51 100 100 100 100 100 99 42 94 82 100 100 100 79 100 26 91 88 74
100 100 100 100 100 100 100 100 100 100 100 100 100 100 100 100 100 100 100 100 100 100 74 87 100 100 100 100 100 100 100 100 100 100 100 84 100 100 100 100 100 100 99 100 99 100 100 100 98 36 17 7 97 100
100 100 100 100 100 100 100 100 100 100 100 100 100 100 100 100 100 100 100 100 100 100 100 100 100 100 100 100 100 100 100 100 100 100 100 100 100 100 100 100 100 100 100 100 100 100 100 100 100 100 83 80 74 100
100 100 100 100 100 100 100 100 100 100 100 100 100 100 100 100 100 100 100 100 100 100 100 100 100 100 100 100 100 100 100 100 100 100 100 100 100 100 99 98 100 100 98 100 100 100 100 100 100 100 100 100 96 100
100 100 100 100 100 100 100 100 100 100 100 100 100 100 100 100 100 100 100 100 100 100 100 100 100 100 100 100 100 100 100 95 98 98 100 100 100 97 97 100 93 92 89 97 99 99 98 100 100 100 100 100 100 100
100 100 100 100 100 100 100 100 100 100 100 100 100 100 100 100 100 100 100 100 100 100 100 100 100 90 100 96 90 100 98 99 94 100 100 100 100 95 97 100 95 100 100 99 100 100 100 100 100 100 100 100 100 100
100 100 100 100 100 97 99 100 100 100 100 100 94 100 100 96 100 100 100 100 100 100 100 100 100 100 100 100 84 14 99 68 93 100 100 100 100 100 100 100 100 100 100 100 100 100 100 100 100 100 100 100 100 100
93 100 100 100 100 100 100 100 100 100 100 100 96 94 77 100 100 100 100 96 100 100 100 99 68 87 87 95 100 100 100 100 100 100 100 100 100 100 100 100 100 100 99 100 100 100 100 100 100 100 100 100 100 100
77 97 90 100 90 100 100 100 100 100 100 100 100 100 100 100 91 93 100 100 100 100 100 100 100 100 100 100 100 100 100 100 100 100 100 100 100 100 100 100 100 100 100 100 100 100 100 100 100 100 100 100 100 100
86 81 100 100 100 98 93 67 92 97 100 100 100 100 100 100 100 100 100 100 98 100 100 100 98 100 62 70 99 100 100 100 100 100 100 100 100 100 100 100 100 100 100 100 100 100 100 100 100 100 100 100 100 100
48 86 96 90 93 88 95 80 58 86 74 99 85 99 100 100 100 100 100 100 100 100 100 98 66 60 100 100 100 100 100 100 100 100 100 100 100 100 100 100 100 100 100 100 100 100 100 100 100 100 100 100 100 100
98 30 5 24 21 27 15 54 58 78 100 94 96 99 100 98 100 100 100 100 100 96 92 66 86 92 100 100 100 100 100 100 100 100 100 100 100 99 100 99 100 100 100 100 100 100 100 100 100 100 100 100 100 100
100 100 100 100 17 44 10 5 23 40 68 95 100 100 89 100 99 90 90 72 72 66 82 83 100 100 100 100 100 100 100 100 99 89 100 100 100 100 100 100 100 100 100 100 100 100 100 100 100 100 100 100 100 100
100 100 100 51 65 42 5 5 23 7 76 80 93 72 78 74 91 80 79 54 42 100 100 100 100 100 100 100 100 100 94 70 88 97 99 100 100 100 100 100 100 100 100 100 100 100 100 100 100 100 100 100 100 100
100 100 93 5 5 5 14 9 5 19 16 70 55 50 73 47 76 78 59 56 100 100 100 100 100 100 100 100 100 100 100 100 100 100 100 100 100 100 100 100 100 100 100 100 100 100 100 100 100 100 100 100 100 100
12 23 19 5 5 7 74 58 24 71 74 78 56 65 75 91 84 99 82 100 100 100 100 100 100 100 100 98 100 99 87 97 100 100 100 100 100 100 100 100 100 100 100 100 100 100 100 100 100 100 100 100 100 100
31 87 11 7 5 9 7 5 5 5 9 16 30 94 66 66 79 76 80 99 100 100 100 97 100 100 81 80 100 100 100 100 99 100 100 100 100 100 100 100 100 100 100 100 100 100 100 100 100 100 100 100 100 100
10 32 14 22 15 50 56 70 67 82 100 100 100 100 100 100 100 97 95 100 100 100 98 100 100 98 96 100 100 100 100 100 100 100 100 100 100 100 100 100 100 100 100 100 100 100 100 100 100 100 100 100 99 92
89 92 59 95 85 98 96 100 100 100 100 100 100 100 100 100 100 100 100 99 90 96 94 93 86 81 99 100 98 100 100 100 100 100 100 100 100 100 100 100 100 100 100 100 100 100 100 98 88 65 65 65 61 41
86 94 91 97 100 100 100 100 100 100 100 100 100 100 100 100 100 100 100 90 96 99 100 97 93 76 80 79 78 90 94 98 99 96 96 92 91 97 96 100 99 100 100 98 91 90 64 64 74 80 85 99 84 82
70 70 86 67 100 100 100 100 100 100 100 99 100 100 96 89 84 100 91 97 98 72 65 73 75 73 76 81 86 88 96 92 91 86 85 74 74 52 18 49 95 86 49 36 5 5 5 5 5 47 52 7 66 100
60 30 14 91 68 92 100 100 100 100 100 97 99 100 100 97 98 99 100 96 84 85 77 81 92 75 80 76 72 71 72 71 61 72 95 46 7 72 92 78 77 78 79 72 99 60 15 29 57 71 51 75 80 99
99 80 57 52 77 100 100 99 98 93 86 93 81 100 99 100 100 100 98 98 93 87 78 76 76 67 70 66 98 93 93 100 100 94 98 88 31 52 100 100 100 100 100 64 69 92 99 97 98 91 82 74 85 89
100 92 59 62 93 66 62 70 52 48 29 61 67 55 96 100 100 100 100 86 78 62 67 84 97 61 11 70 7 27 10 70 85 78 37 54 92 100 100 100 100 100 93 50 32 14 72 97 100 100 100 100 98 93
95 63 95 97 95 100 100 99 98 96 100 91 99 98 80 18 97 98 98 100 91 91 98 96 100 31 54 82 95 80 70 91 71 98 100 100 100 100 100 100 100 100 100 100 100 100 100 93 92 95 92 88 95 100
100 100 100 100 100 100 96 38 61 82 96 100 100 100 100 32 44 90 94 90 76 80 92 69 43 90 78 86 95 100 100 100 100 97 100 100 100 99 75 83 83 96 98 100 100 100 100 100 100 99 99 100 98 94

GFSWCAN_prec_cloud_084.txt.gz
Cloud_Cover
100 100 100 95 68 75 100 100 100 89 91 100 100 100 81 80 86 89 100 100 100 100 87 100 81 99 100 100 100 100 100 100 100 100 100 98 100 100 100 100 99 100 86 37 95 100 100 100 100 100 100 100 100 100
100 100 98 100 100 100 100 100 100 100 100 94 99 100 100 99 98 93 100 97 100 100 100 100 97 92 100 100 100 100 100 100 100 100 96 100 100 100 100 100 6 72 100 100 92 100 100 100 100 100 100 100 97 100
100 100 99 100 100 100 100 100 100 100 100 100 100 100 100 100 100 84 99 100 100 100 100 100 100 100 100 100 100 100 100 100 100 100 100 100 100 100 100 100 75 61 100 86 100 100 100 100 100 100 100 94 81 100
100 100 100 100 63 92 100 100 100 99 100 100 100 100 100 100 100 100 100 100 98 100 100 100 100 100 100 100 100 100 100 100 100 100 100 100 100 100 100 100 97 60 98 88 100 100 100 100 100 100 100 100 100 100
100 100 96 93 90 97 98 68 93 100 85 98 93 100 100 100 100 100 100 92 100 100 100 100 100 100 100 100 100 100 100 100 100 100 100 100 100 100 100 95 36 65 24 96 68 100 100 100 100 100 100 100 100 100
100 100 100 75 96 100 96 99 100 100 100 96 66 100 100 100 100 100 100 100 100 100 100 100 100 100 100 100 100 100 100 100 100 100 100 100 100 100 100 100 100 100 100 100 100 100 10 65 100 100 100 100 100 100
100 100 100 95 98 58 91 84 100 64 100 99 92 100 100 100 100 100 100 100 100 98 100 72 100 100 100 100 100 100 100 100 100 100 100 100 100 100 100 100 100 100 100 100 100 55 90 100 100 100 100 100 99 100
100 100 100 100 100 100 88 100 100 100 100 100 100 100 100 100 100 100 100 100 100 100 75 79 58 100 100 96 100 100 100 100 100 100 100 100 100 95 100 100 100 100 100 100 100 100 100 100 100 100 100 58 63 90
100 100 100 100 100 100 100 100 100 100 100 100 100 100 100 100 100 100 100 100 100 100 73 100 93 70 100 100 100 100 100 100 100 100 100 100 100 100 100 100 99 100 100 98 98 100 100 100 100 100 100 99 74 83
100 100 100 100 100 100 100 100 100 100 100 100 100 100 100 100 100 100 100 100 100 100 70 80 85 100 100 100 100 100 100 100 100 100 100 99 100 100 100 100 100 97 99 100 100 99 93 80 98 100 100 100 100 100
100 100 100 100 100 100 100 100 100 100 100 96 100 100 100 100 100 100 100 100 100 100 100 98 100 100 100 86 100 100 100 100 100 100 100 100 100 100 100 100 100 92 97 100 100 100 100 99 98 100 100 100 100 100
100 100 100 100 100 100 100 100 100 100 100 100 100 100 100 100 100 100 100 100 98 100 100 100 100 100 100 100 100 100 100 100 100 100 100 100 100 100 99 97 100 99 100 100 100 100 100 100 100 100 100 100 100 100
100 100 100 100 100 100 100 100 100 100 98 100 100 100 100 100 100 100 100 100 100 100 100 100 100 100 100 100 100 100 100 100 100 100 100 100 100 99 99 100 99 99 99 100 100 100 100 100 100 100 100 100 100 100
100 100 100 100 100 84 100 100 100 100 100 100 100 100 100 100 100 100 100 100 100 100 100 100 100 100 100 100 100 99 99 86 100 100 100 100 100 100 100 100 100 100 100 100 100 100 100 100 100 100 100 100 100 100
100 100 95 100 100 100 100 100 100 100 100 93 89 100 100 100 100 100 100 100 100 100 100 100 99 100 100 100 80 74 79 100 100 100 100 100 100 100 100 100 100 100 100 100 100 100 100 100 100 100 100 100 100 100
40 100 100 100 100 100 100 100 100 45 76 100 94 100 100 100 100 100 100 100 100 100 95 98 92 100 99 72 62 100 98 100 100 100 100 100 100 100 100 100 100 100 100 100 100 100 100 100 100 100 100 100 100 100
5 23 99 81 97 79 98 54 78 12 46 80 100 100 100 100 100 100 100 100 100 100 100 100 100 100 100 100 100 100 100 100 100 100 100 100 100 100 100 100 100 100 100 100 100 100 100 100 100 100 100 100 100 100
51 33 5 34 36 5 5 22 22 67 100 100 100 100 100 100 100 100 100 100 100 100 100 99 99 100 100 100 100 100 100 100 100 100 100 100 100 100 100 100 100 100 100 100 100 100 100 100 100 100 100 100 100 100
6 57 88 46 6 5 6 24 26 86 96 99 100 100 100 100 100 100 100 100 100 90 93 100 100 100 100 100 100 100 100 100 100 100 100 100 100 100 100 100 100 100 100 100 100 100 100 100 100 100 100 100 100 100
5 5 10 46 76 33 9 37 75 86 99 100 100 100 100 100 100 100 100 100 100 100 97 99 100 100 100 100 100 100 100 100 100 100 100 100 100 100 100 100 100 100 100 100 100 100 100 100 100 100 100 100 100 100
29 5 5 48 35 13 59 99 82 59 47 72 96 89 100 100 100 84 74 56 64 100 100 100 100 100 100 100 100 100 100 100 100 100 100 100 100 100 100 100 100 100 100 100 100 100 100 100 100 100 100 100 100 100
90 52 26 5 5 5 14 38 45 57 76 88 66 69 90 89 86 59 57 99 100 100 100 100 100 100 100 100 100 100 100 100 100 100 100 100 100 100 100 100 100 100 100 100 100 100 100 100 100 100 100 100 100 100
51 51 12 5 17 23 65 80 60 72 72 79 82 69 60 50 26 20 96 100 100 100 100 100 100 100 100 100 100 100 100 100 100 100 100 100 100 100 100 100 100 100 100 100 100 100 100 100 100 100 100 100 100 100
10 70 76 75 50 68 81 91 74 66 75 75 70 87 80 67 64 87 100 100 100 100 100 100 100 100 100 100 100 100 100 100 100 100 100 100 100 100 100 100 100 100 100 100 100 100 100 100 100 100 100 100 100 100
63 53 57 18 34 56 80 78 78 75 98 94 87 97 100 100 100 100 100 100 100 100 100 100 100 100 100 100 100 100 100 100 100 100 99 99 100 100 100 100 100 100 100 100 100 100 100 100 100 100 100 98 74 70
60 89 59 82 58 86 95 100 99 100 100 100 100 100 100 100 100 100 100 100 100 100 100 100 100 100 100 100 100 100 100 96 94 88 98 100 100 100 100 100 100 99 100 100 100 100 100 99 95 87 68 17 22 89
49 92 78 61 96 100 100 100 100 100 100 100 100 100 100 100 90 100 100 100 100 100 100 100 100 100 86 32 25 79 90 86 81 86 81 68 72 90 100 100 96 100 78 80 100 100 97 99 100 100 100 100 100 100
13 5 11 58 57 85 100 100 100 94 98 90 100 100 100 81 100 100 100 100 100 99 92 62 16 5 5 5 10 60 75 52 63 55 65 46 26 32 71 100 99 61 90 94 85 83 100 100 100 100 100 100 100 100
9 5 5 23 45 85 100 100 98 100 100 82 82 73 100 100 100 100 100 100 100 100 97 85 91 89 72 20 61 100 100 100 100 66 66 86 100 100 100 100 100 100 100 99 81 59 64 94 99 100 100 99 98 100
52 23 5 59 55 95 100 100 99 100 100 100 100 99 100 100 100 100 100 100 100 100 100 97 91 92 73 86 94 100 100 96 97 100 82 88 100 100 100 100 100 100 100 100 100 100 97 100 100 88 94 99 100 100
71 18 26 81 97 100 99 90 54 44 93 100 96 94 100 100 100 100 100 100 100 100 98 98 91 77 79 84 91 80 98 93 61 72 66 100 100 100 100 100 100 100 100 100 100 100 100 96 100 100 100 100 100 95
81 75 60 55 96 92 100 99 85 62 85 95 98 95 99 98 100 100 100 100 100 100 84 92 100 100 96 95 88 90 88 98 100 100 100 100 100 100 100 100 100 100 100 100 100 100 100 100 100 100 100 100 100 100
100 100 70 100 100 100 99 90 67 63 85 98 100 100 100 72 96 100 100 100 100 100 100 100 75 56 42 84 99 97 93 86 86 54 75 51 47 34 71 85 88 77 77 88 100 100 100 100 100 98 99 84 71 66

GFSWCAN_prec_cloud_087.txt.gz
Cloud_Cover
97 95 100 100 100 100 100 100 98 92 89 15 82 93 100 99 100 81 100 100 100 100 100 60 68 82 100 94 100 93 100 100 100 100 100 100 88 99 98 100 100 97 100 100 98 100 96 32 54 100 100 100 100 100
99 90 86 100 100 100 100 100 91 100 99 90 77 93 100 100 100 97 100 92 100 100 96 27 65 54 100 100 100 100 100 100 100 82 67 100 100 67 96 100 100 92 98 100 95 76 97 30 89 100 100 100 100 100
66 100 100 91 66 93 98 98 98 100 100 95 98 100 100 100 100 82 100 89 100 100 100 88 34 49 27 73 96 100 100 100 100 100 100 100 98 100 100 100 100 100 59 100 100 100 100 100 82 100 100 100 100 100
100 93 64 89 99 100 89 98 100 96 98 99 100 95 100 100 100 100 100 98 49 100 100 100 100 96 100 100 100 100 100 100 100 100 100 100 100 100 100 100 100 96 100 100 100 100 100 100 100 100 100 100 100 100
100 100 95 100 100 85 35 78 75 92 99 99 84 72 75 100 100 100 100 100 80 100 100 100 100 100 100 100 100 100 100 100 100 100 100 100 100 100 100 100 100 65 78 73 100 100 100 99 100 100 100 100 100 100
99 100 100 100 85 85 51 76 73 100 78 75 98 100 100 100 100 100 100 100 97 99 100 100 100 100 100 88 100 100 100 100 100 100 100 100 100 100 100 100 100 100 83 93 77 56 100 100 100 100 100 100 100 100
100 100 100 100 100 87 96 75 94 97 100 98 87 100 100 100 100 100 100 98 87 100 100 100 100 100 100 100 100 100 100 100 100 100 100 100 100 100 100 100 100 100 100 100 99 22 97 100 100 100 100 100 100 100
100 100 100 100 100 100 100 98 94 100 100 100 100 100 100 100 100 100 100 100 100 100 100 100 100 100 100 100 100 100 100 100 100 100 100 100 100 100 100 100 100 100 100 100 93 37 96 79 100 100 100 100 100 100
100 100 100 100 100 100 100 100 100 100 88 100 100 100 100 100 100 100 100 100 100 100 100 100 100 100 100 100 100 100 100 100 100 100 100 100 100 100 100 100 100 100 100 100 85 100 99 98 98 44 53 46 75 100
100 100 100 100 100 100 100 100 100 100 100 100 100 100 100 100 100 100 100 100 100 100 100 100 100 100 100 100 100 100 100 100 100 100 100 100 100 100 100 100 100 100 100 99 73 68 67 46 98 100 79 75 97 100
100 100 100 100 100 100 100 100 100 100 100 100 100 100 100 100 100 100 100 97 86 100 44 69 100 100 100 100 100 100 100 100 100 100 99 94 100 100 100 100 100 100 100 100 100 100 100 100 100 100 100 93 99 98
100 100 100 93 100 100 100 100 100 100 100 100 100 100 100 100 100 100 98 100 90 91 96 100 86 97 100 100 100 100 100 100 100 100 100 100 100 99 100 100 100 98 100 100 100 100 100 100 100 100 100 99 100 100
100 100 100 89 100 100 100 98 99 100 100 100 100 100 100 100 99 97 100 100 100 100 100 100 100 100 99 100 100 100 100 100 100 100 100 100 100 100 100 100 100 100 100 100 100 100 100 100 100 100 100 100 100 100
100 100 100 99 47 100 100 100 100 100 100 100 100 100 100 100 100 100 100 100 100 100 100 100 100 100 100 100 100 100 100 100 100 100 100 100 100 100 100 100 100 100 100 100 100 100 100 100 100 100 100 100 100 100
100 100 99 98 100 100 100 100 100 100 100 100 100 100 100 100 100 100 100 100 100 100 100 100 100 100 100 100 100 100 100 100 100 100 100 100 100 100 100 100 100 100 100 100 100 100 100 100 100 100 100 100 100 100
100 77 98 100 97 100 100 100 100 100 100 100 100 100 100 100 100 100 100 100 100 100 100 100 96 100 100 97 98 100 100 100 100 100 100 100 100 100 100 100 98 100 100 100 100 100 100 100 100 100 100 100 100 100
98 94 87 89 100 100 100 73 100 98 95 100 100 100 100 100 100 100 100 100 100 100 100 98 99 93 70 93 99 100 100 100 100 100 100 100 100 100 100 100 100 100 100 100 100 100 100 100 100 100 100 100 100 100
64 61 5 44 25 80 6 27 5 76 100 100 100 100 100 100 100 100 100 100 100 100 100 100 100 100 100 100 100 100 100 100 100 100 100 100 100 100 100 100 100 100 100 100 100 100 100 100 100 100 100 100 100 100
5 15 11 62 7 5 5 17 96 84 100 100 100 100 100 100 100 100 100 100 100 100 100 100 100 100 100 100 100 100 100 100 100 100 100 100 100 100 100 100 100 100 100 100 100 100 100 100 100 100 100 100 100 100
5 5 23 50 48 43 58 63 64 80 100 100 100 100 100 100 100 100 96 72 80 92 98 100 100 100 100 100 100 100 100 100 100 100 100 100 100 100 100 100 100 100 100 100 100 100 100 100 100 100 100 100 100 100
6 28 73 92 75 64 59 100 100 100 100 100 100 100 100 100 100 99 94 85 98 100 100 100 100 100 100 100 100 100 100 100 100 100 100 100 100 100 100 100 100 100 100 100 100 100 100 100 100 100 100 100 100 100
5 10 51 78 61 31 73 100 100 100 100 99 100 100 100 99 100 96 89 96 100 100 100 100 100 100 100 100 100 100 100 100 100 93 99 100 100 100 100 100 100 100 100 100 100 100 100 100 100 100 100 100 100 100
34 26 12 21 25 35 75 93 86 99 88 77 82 77 100 100 89 56 94 100 100 100 100 100 100 100 100 100 100 100 100 100 100 100 100 100 100 100 100 100 100 100 100 100 100 100 100 100 100 100 100 100 100 100
87 78 75 46 52 84 68 91 69 88 82 83 73 96 90 84 81 99 100 100 100 100 100 100 100 100 100 100 100 100 100 100 100 100 100 100 100 100 100 100 100 100 100 100 100 100 100 100 100 100 100 100 100 100
66 57 45 38 56 16 81 95 65 62 85 75 78 89 100 100 100 97 100 100 100 100 100 100 100 100 100 100 100 100 100 100 100 100 99 100 100 100 100 100 100 100 100 100 100 100 100 100 100 100 100 100 100 100
46 73 93 68 33 53 26 76 44 49 77 100 100 100 100 100 100 100 100 100 100 100 100 100 100 100 100 100 100 100 100 98 100 92 95 99 100 100 99 100 100 100 99 100 100 100 100 100 100 100 100 48 28 97
69 97 77 61 52 100 82 99 100 100 100 100 97 100 100 100 81 100 100 100 100 100 100 100 100 100 100 67 27 55 60 54 70 62 46 59 88 99 100 100 100 100 100 100 100 100 100 100 100 100 100 100 99 100
70 54 51 63 69 55 77 100 100 91 50 81 92 85 56 77 96 100 100 100 100 100 100 100 97 88 67 75 97 100 99 81 91 92 90 72 79 94 100 100 96 30 90 100 100 100 100 100 100 100 100 100 100 100
74 7 19 49 46 45 91 68 71 81 68 94 80 60 98 100 100 100 100 100 100 100 100 100 100 100 96 88 100 100 100 100 100 65 85 100 100 100 100 100 100 100 100 100 36 71 96 100 100 100 100 100 100 100
53 55 31 54 70 90 100 98 97 100 100 86 63 95 100 100 100 100 100 100 100 100 100 100 100 100 100 100 100 100 100 100 100 100 100 100 100 100 100 100 100 100 100 100 100 100 79 80 84 92 93 100 100 100
67 66 68 43 98 100 100 100 100 99 100 100 96 87 94 100 100 100 100 100 100 100 100 100 100 100 100 96 100 100 100 98 93 95 97 100 100 100 100 100 100 100 100 100 100 100 100 96 100 100 100 100 100 98
69 56 57 64 100 100 100 99 96 100 100 88 100 99 100 100 100 100 100 100 100 100 93 98 100 100 100 97 99 74 82 100 100 100 100 100 100 100 100 100 100 100 100 100 100 100 100 100 100 100 100 100 100 100
84 88 93 100 100 83 100 100 99 61 69 81 100 100 100 98 100 100 100 100 100 100 100 100 100 97 73 97 100 94 100 74 53 30 6 16 5 36 90 100 100 100 100 100 100 100 100 100 100 100 100 100 100 99

GFSWCAN_prec_cloud_093.txt.gz
Cloud_Cover
100 75 100 100 91 67 100 100 100 100 94 100 100 100 100 100 100 100 100 100 100 100 100 100 99 100 97 85 99 34 42 96 99 96 15 30 5 99 100 100 100 100 100 100 100 100 100 100 100 100 100 100 87 100
90 100 100 100 100 98 100 88 100 100 99 96 94 94 100 100 100 100 100 100 100 100 100 100 98 100 100 54 100 93 92 93 98 20 5 5 6 73 100 100 100 100 100 98 69 28 100 100 100 100 100 100 49 14
100 100 100 100 100 94 100 100 100 100 99 93 92 100 100 100 58 44 94 99 100 100 100 89 100 96 90 98 100 92 100 100 71 12 47 5 6 100 100 100 100 98 100 80 98 98 98 100 85 100 100 100 43 16
100 93 100 100 100 85 100 100 100 100 100 100 89 95 100 100 100 94 89 100 100 100 86 7 80 21 92 86 91 100 100 100 100 90 10 73 100 99 100 100 60 100 100 100 100 96 100 84 100 99 56 94 71 30
100 98 100 100 100 100 100 100 100 100 93 56 95 96 99 100 100 100 100 100 96 88 80 59 10 5 100 100 92 100 100 100 94 75 41 100 99 87 100 100 100 99 100 100 100 100 100 99 100 100 100 49 96 67
100 100 100 100 100 100 100 100 100 100 100 100 59 97 100 99 100 100 100 100 99 100 100 99 76 78 100 100 91 100 100 100 40 52 76 100 100 100 100 99 100 100 100 100 100 100 100 100 100 95 71 10 100 98
100 100 100 100 100 100 100 100 100 99 100 100 100 58 100 100 100 100 92 100 100 100 100 100 100 71 100 100 100 49 98 23 24 100 99 100 100 100 100 97 100 100 100 100 100 100 100 100 100 100 100 100 100 100
100 100 100 100 100 100 100 100 96 100 100 100 96 100 100 100 100 100 100 100 100 100 100 100 98 100 100 100 100 84 95 100 100 100 100 100 100 100 100 100 100 100 100 100 100 100 100 100 100 100 100 92 100 100
100 100 100 100 100 100 100 100 100 100 100 100 100 100 100 100 100 100 100 100 100 100 100 100 100 100 100 100 100 83 100 100 100 100 100 97 100 100 100 100 100 100 100 100 99 100 100 100 100 94 97 100 100 100
100 100 100 100 100 100 100 100 100 100 100 100 100 100 100 100 100 100 100 100 100 100 100 100 100 100 100 100 100 100 100 100 100 100 100 100 100 100 100 100 100 100 100 100 100 100 100 100 100 100 94 84 98 100
100 100 100 100 97 100 100 100 100 100 100 100 100 100 100 100 100 100 100 100 100 100 95 98 100 100 100 100 100 100 100 100 100 100 100 100 100 100 100 100 100 100 100 100 100 100 100 100 100 100 99 92 75 86
100 100 100 100 100 100 100 100 100 100 100 100 100 100 100 100 100 100 86 68 84 90 92 60 100 100 100 100 100 100 100 100 100 100 100 100 100 100 100 100 100 100 100 100 100 100 100 100 100 99 100 100 100 100
100 92 100 99 100 100 100 100 100 100 100 100 100 100 100 99 100 93 99 100 100 100 100 100 100 100 97 100 100 100 100 100 100 100 88 100 100 80 100 100 100 100 100 100 100 100 100 100 100 100 100 100 86 95
86 93 100 100 100 100 100 100 100 100 100 100 100 100 100 100 100 100 100 100 97 100 89 100 100 100 100 100 100 100 98 90 99 93 100 100 100 100 75 82 67 99 97 97 98 99 99 100 100 96 95 84 80 89
98 90 100 100 100 100 100 100 100 100 100 93 96 100 100 100 100 100 100 100 100 100 93 100 100 95 99 100 100 94 99 100 98 100 100 100 96 92 83 95 81 88 90 76 84 74 89 80 86 99 100 96 87 78
99 73 68 100 100 100 100 100 100 100 100 100 100 100 100 100 100 100 100 100 100 100 100 100 100 96 97 70 79 90 100 98 100 100 96 29 77 30 33 78 73 92 58 73 92 74 60 65 100 98 89 92 92 92
100 98 83 65 100 100 100 100 100 96 97 99 98 100 100 100 100 100 100 97 100 100 100 90 100 100 100 100 100 100 100 100 100 100 79 81 65 88 100 93 93 87 75 83 95 98 93 98 73 71 95 100 99 95
93 94 100 100 100 100 100 100 100 100 98 100 100 100 100 100 100 100 100 100 100 100 100 100 100 100 100 100 100 100 96 98 96 95 91 92 95 92 87 67 58 58 58 85 79 84 99 98 86 100 87 99 100 94
100 100 100 92 98 91 100 100 100 100 100 100 100 100 100 100 100 100 100 100 100 100 100 100 100 100 100 100 100 100 82 89 97 95 96 84 85 83 92 95 100 99 97 99 99 100 98 99 96 98 98 100 100 99
100 52 60 83 100 99 95 74 100 100 100 100 100 100 100 100 100 100 100 100 100 100 100 100 100 100 100 100 100 100 100 100 100 100 100 100 100 100 100 98 100 100 100 100 100 100 100 100 100 100 100 100 100 100
24 24 22 73 83 84 89 100 100 100 100 100 100 100 100 100 100 100 100 100 100 100 100 100 100 100 100 100 100 99 99 100 100 81 87 93 92 91 92 99 100 100 97 96 95 100 100 100 100 100 100 100 100 100
5 5 9 92 100 100 100 100 100 100 100 100 100 100 100 100 100 100 100 100 100 100 100 100 100 100 83 78 82 52 75 78 88 85 81 99 98 93 99 100 100 99 100 100 100 100 100 100 100 100 100 100 100 100
5 10 90 100 100 100 100 100 100 100 100 100 100 100 100 100 100 100 100 100 100 100 100 96 88 63 54 96 100 100 96 95 86 91 95 85 84 93 95 89 98 100 100 100 100 100 100 98 100 100 100 100 100 100
5 17 97 96 99 100 97 100 100 100 100 100 100 100 100 100 100 100 100 100 100 100 100 97 82 96 82 72 70 98 100 80 84 94 99 71 73 81 93 100 91 85 79 90 100 100 100 100 100 100 100 100 100 100
5 39 16 64 78 82 99 100 100 100 100 100 100 100 100 99 100 96 90 100 100 100 100 100 100 99 81 31 16 31 26 95 78 8 72 99 100 38 34 5 20 62 81 100 80 61 74 75 76 79 87 87 93 99
31 33 40 100 100 100 100 100 100 100 100 100 100 100 100 100 99 100 98 96 100 100 100 100 99 77 57 98 73 5 5 19 94 36 5 5 5 63 100 100 100 48 34 99 99 60 9 48 60 53 93 74 72 98
35 75 100 100 100 99 100 100 100 100 100 100 100 97 83 84 95 91 100 99 100 100 100 77 61 68 5 5 5 5 5 5 10 5 5 5 5 5 43 82 97 100 58 35 82 100 96 8 6 83 71 5 11 48
100 100 100 99 95 91 100 100 100 100 98 90 86 80 90 89 98 98 100 100 100 81 32 5 5 5 8 76 97 94 85 64 8 5 5 30 38 20 5 8 15 23 33 5 19 95 79 98 96 93 100 100 98 82
65 82 75 72 82 100 99 100 100 97 96 92 81 93 100 100 100 100 100 93 66 19 8 19 40 5 5 6 5 5 5 29 96 24 100 100 86 40 6 5 25 100 100 52 4 39 5 31 58 77 61 38 87 85
41 47 75 81 99 100 100 70 67 74 77 87 99 100 98 100 100 96 89 98 99 91 69 88 96 92 96 83 90 80 32 42 66 96 92 97 92 100 99 97 62 49 97 100 89 46 43 38 39 34 31 24 50 92
64 74 81 75 79 100 100 78 80 73 88 100 92 96 100 97 100 100 100 96 62 5 5 51 93 64 27 97 100 96 100 24 5 60 68 76 86 74 47 11 5 53 85 38 80 96 100 79 75 100 100 100 99 78
47 70 71 65 100 100 100 97 61 87 82 97 94 78 79 53 89 58 78 58 54 100 100 99 63 94 45 51 11 15 49 42 86 32 54 97 57 25 10 57 81 70 30 5 66 77 77 5 7 83 100 73 44 57
80 80 80 99 100 100 95 51 72 91 97 94 100 99 93 45 92 96 87 97 97 88 84 44 42 5 60 42 37 19 30 10 27 56 82 86 98 65 58 52 51 6 24 55 99 82 81 61 73 83 78 43 44 6

GFSWCAN_prec_cloud_099.txt.gz
Cloud_Cover
87 100 100 100 100 100 6 20 100 91 14 100 100 95 100 100 100 100 100 100 100 100 100 96 95 93 100 100 100 37 17 68 95 100 100 59 90 100 100 100 100 100 100 100 65 90 38 99 100 100 100 100 100 100
40 69 100 100 100 92 5 63 95 99 75 100 100 92 100 100 100 100 100 100 100 100 100 93 100 100 89 81 97 28 35 100 100 100 99 100 100 97 88 100 100 100 100 100 57 58 100 100 100 100 100 100 100 100
6 74 100 100 100 23 9 87 100 100 100 100 100 100 100 100 100 87 100 100 100 100 100 94 100 100 29 22 68 48 64 100 99 100 100 100 97 98 100 100 100 100 100 98 100 100 100 100 100 100 100 100 100 100
32 40 63 100 100 85 78 100 100 100 100 100 100 100 100 100 100 67 100 100 100 100 100 34 28 99 12 44 6 5 20 25 5 50 100 100 100 100 100 100 100 100 100 100 100 100 100 100 100 100 100 100 100 100
64 87 82 100 100 88 100 66 100 100 100 100 100 100 100 100 100 92 100 100 100 96 96 54 40 18 34 8 14 5 5 25 22 100 100 100 100 100 100 100 100 100 100 100 100 100 100 100 100 100 100 100 100 100
14 83 100 100 100 100 100 100 100 100 100 100 100 100 100 100 100 100 100 100 100 100 100 50 18 82 42 5 5 6 100 87 100 100 100 21 99 100 100 100 100 100 100 100 100 100 100 100 100 100 100 77 26 100
5 99 100 100 95 100 100 100 100 100 100 100 100 100 98 100 100 100 79 94 100 100 100 100 57 74 5 4 83 100 87 79 99 100 99 60 66 99 98 100 100 100 100 100 100 100 100 100 100 100 75 65 36 55
52 100 100 100 100 100 100 100 100 100 100 100 100 100 100 100 100 100 71 100 100 100 100 100 51 22 92 5 51 100 100 100 100 99 99 66 88 100 100 100 100 100 99 94 100 90 87 100 100 100 100 100 70 47
98 100 100 100 100 100 100 100 100 100 100 100 100 100 100 100 100 100 100 100 100 88 100 100 99 98 98 94 34 99 100 100 100 95 100 76 94 95 98 97 85 80 84 99 100 100 100 100 100 100 100 100 83 100
100 100 100 100 100 100 100 100 91 99 100 100 100 100 100 100 100 100 100 100 100 100 100 100 100 100 68 100 100 100 100 100 100 100 100 100 100 100 100 100 83 93 83 95 100 100 100 100 100 100 98 94 100 100
100 100 100 100 100 100 100 100 100 100 100 100 100 100 100 100 100 100 100 100 100 100 100 100 100 100 100 100 100 100 100 100 100 100 100 98 100 100 100 100 82 95 100 100 86 100 100 100 100 100 100 100 100 100
100 100 100 100 100 100 100 100 100 100 100 100 100 100 100 100 100 100 100 100 100 100 100 100 100 100 100 100 100 100 100 100 88 100 100 91 100 100 100 100 100 100 100 100 100 100 100 100 100 100 100 100 100 100
100 100 99 100 100 100 100 100 100 100 100 100 100 100 100 100 100 100 100 91 99 100 100 100 100 95 100 100 100 100 100 84 99 100 92 100 100 100 100 100 100 100 100 100 100 100 100 100 100 100 100 100 100 100
100 100 100 100 100 100 100 95 100 62 96 91 92 100 98 99 100 100 100 86 100 100 100 100 100 90 100 100 100 100 100 100 100 99 95 100 100 100 100 100 100 100 100 100 100 100 100 100 100 100 100 99 99 100
100 100 100 100 100 100 100 100 100 100 100 100 100 100 100 100 100 97 85 86 82 100 100 100 100 83 100 100 99 97 79 92 99 100 100 99 96 87 91 100 82 88 92 98 83 86 90 63 74 96 80 79 78 82
100 100 100 100 100 100 100 100 100 100 100 100 100 100 98 90 99 99 100 100 100 100 100 94 57 64 91 67 95 93 94 85 98 100 98 80 99 97 88 42 83 84 93 100 86 60 57 50 71 98 76 74 68 60
100 100 100 100 100 100 100 74 82 74 60 100 100 100 100 100 100 98 96 100 100 98 81 83 94 86 93 68 80 80 90 97 96 96 91 87 99 100 91 100 99 99 100 100 96 61 98 74 52 50 93 100 95 78
100 100 100 100 100 100 100 100 99 86 100 100 100 100 100 98 94 99 100 96 95 100 91 85 12 75 100 44 99 85 99 100 88 90 83 71 69 73 65 79 91 99 90 92 88 77 78 81 85 96 78 66 65 69
100 100 100 100 100 100 98 91 97 97 100 100 100 100 100 100 100 100 100 100 100 100 100 100 100 100 100 100 88 90 100 100 100 99 93 83 79 79 74 78 86 92 98 99 100 100 100 100 86 76 74 70 73 78
100 100 100 100 100 100 100 92 92 100 100 100 100 100 100 100 100 100 100 100 100 100 100 100 100 100 100 100 92 76 86 72 34 94 99 100 99 79 86 82 82 85 97 99 100 100 100 100 100 100 100 100 100 100
100 100 100 100 100 98 100 100 100 100 100 98 93 100 100 100 100 100 100 92 96 100 100 92 100 100 100 100 91 60 73 25 55 30 70 98 88 86 84 98 96 97 90 89 87 94 99 100 100 100 100 100 100 100
100 100 95 84 100 89 86 98 79 91 100 99 100 100 100 100 86 85 84 76 87 100 95 95 95 88 76 87 100 99 100 97 68 76 78 74 87 85 96 90 89 99 100 100 100 100 100 100 100 100 100 100 100 100
100 100 100 100 92 71 96 95 58 82 100 100 100 99 79 64 60 61 85 69 99 100 89 96 100 100 95 85 65 76 95 100 98 85 85 86 85 85 92 96 97 88 90 90 82 83 95 100 100 97 95 91 94 88
99 100 100 100 99 98 49 88 59 74 100 100 100 94 91 53 30 30 91 100 96 100 100 100 100 100 77 36 90 100 85 28 42 44 73 60 79 94 96 87 87 91 86 73 61 77 79 87 58 70 84 77 69 56
42 62 80 100 100 79 93 100 94 100 100 100 100 91 80 69 43 64 84 83 98 100 97 87 98 66 52 99 92 60 10 7 5 57 70 55 33 36 72 94 100 100 92 84 79 65 79 90 100 100 99 95 95 91
42 34 49 41 59 30 98 98 100 100 100 100 71 73 66 51 64 88 65 94 94 100 96 99 100 88 67 33 29 5 5 33 5 31 75 67 83 94 78 80 65 67 71 60 47 62 39 39 63 87 96 94 99 100
7 17 12 40 49 7 33 96 96 84 91 90 84 71 49 96 100 86 98 98 100 100 100 100 99 22 11 11 5 11 48 31 50 14 35 6 5 55 100 100 100 83 64 60 90 99 55 8 39 38 69 99 98 100
22 5 25 36 28 5 34 77 77 83 85 71 54 74 78 91 100 100 100 100 100 99 89 67 67 15 5 12 39 15 55 39 13 5 5 10 6 24 55 79 78 66 70 79 54 100 100 74 8 57 8 5 74 78
53 18 6 50 29 63 100 100 99 94 87 46 79 100 100 100 99 98 98 93 90 88 65 95 100 72 73 56 62 93 84 12 54 100 99 100 96 66 77 83 100 84 57 48 82 59 98 100 100 100 100 98 100 100
39 22 30 45 61 100 100 97 94 93 73 92 100 100 100 100 100 96 88 83 84 66 31 31 53 5 20 5 77 47 80 99 94 93 100 95 35 78 100 100 100 100 88 39 67 69 58 59 96 100 91 94 79 82
26 27 48 60 99 98 100 100 85 70 65 72 88 96 98 100 100 100 95 54 20 52 21 99 100 78 20 66 77 37 43 79 100 86 14 67 100 90 84 91 100 88 93 99 78 17 66 90 100 96 100 100 100 97
15 22 57 52 91 100 99 88 75 93 100 95 100 100 100 100 100 98 94 100 86 100 99 50 99 95 100 96 89 80 17 82 100 54 88 100 100 100 100 59 70 89 81 100 91 59 55 88 100 100 100 98 100 100
61 52 73 89 99 100 81 96 98 100 100 100 100 100 100 92 96 90 94 97 70 73 91 100 100 100 100 100 55 74 59 81 100 100 100 100 74 98 76 69 66 79 68 95 95 58 59 45 79 90 100 100 96 57

GFSWCAN_prec_cloud_102.txt.gz
Cloud_Cover
100 97 82 72 82 100 100 100 72 5 9 62 5 23 100 98 100 100 100 100 100 100 100 98 100 99 100 100 99 82 100 80 92 99 70 76 79 85 100 100 100 88 100 100 100 100 100 100 96 100 100 68 100 100
100 100 100 77 13 100 100 100 80 5 83 92 5 6 52 97 100 100 100 100 100 100 97 77 96 65 98 98 100 100 93 96 98 100 100 100 100 100 59 100 100 100 100 100 100 100 100 98 98 100 100 100 100 100
100 100 100 95 71 40 100 100 20 5 87 94 19 91 98 99 99 100 100 100 100 100 100 94 87 100 92 98 100 87 70 95 100 100 100 100 100 100 100 100 100 100 100 100 100 100 100 100 88 68 98 100 100 100
99 100 100 38 59 100 100 99 5 68 100 100 96 100 100 97 100 100 100 100 100 100 100 19 34 77 77 100 100 100 88 81 98 71 97 100 100 100 100 100 100 100 100 100 100 100 100 100 100 100 100 100 100 100
100 100 93 14 33 92 100 98 5 100 100 100 100 98 98 100 100 100 100 100 92 88 100 79 51 52 48 8 5 100 80 88 96 88 100 100 100 100 95 100 100 100 100 100 100 100 100 100 100 100 100 100 100 100
100 100 100 6 5 85 100 42 98 85 100 100 100 100 97 100 100 100 100 100 100 100 100 72 14 32 41 5 5 100 80 100 85 100 100 100 88 100 100 100 100 100 100 100 100 100 100 100 100 100 100 100 100 100
100 100 86 61 43 99 100 100 100 100 100 100 100 100 100 100 100 100 100 87 95 100 100 99 23 5 8 5 14 97 89 100 97 100 100 100 100 100 100 100 100 100 100 100 100 100 100 100 100 100 96 100 100 100
98 92 7 5 100 100 100 100 99 100 100 100 100 100 100 100 100 100 100 100 100 100 100 97 64 7 68 87 97 100 100 96 31 92 100 87 100 100 100 100 100 100 100 100 100 100 100 100 100 100 100 100 100 83
99 11 5 99 100 100 100 100 100 100 100 100 100 100 100 100 100 100 100 100 100 100 100 92 86 78 100 98 59 95 28 100 82 100 100 68 95 88 100 100 100 100 81 100 100 100 100 100 100 100 100 100 99 96
5 21 100 100 100 100 100 100 100 100 100 100 100 100 100 100 100 100 100 100 100 100 100 100 58 100 52 100 100 98 100 100 100 100 98 97 100 100 100 100 97 97 90 91 100 100 100 100 93 82 92 98 100 100
68 100 100 100 100 100 100 100 100 100 100 100 100 100 100 100 100 100 100 100 100 100 100 100 94 100 100 99 100 100 98 99 100 100 99 100 97 100 100 99 97 96 97 90 96 100 100 100 100 100 100 100 100 100
100 100 100 100 100 100 100 100 100 100 100 100 97 100 100 100 100 100 100 100 100 78 100 100 100 100 100 100 100 100 100 100 100 100 100 99 100 100 100 100 100 89 50 89 94 100 100 99 100 100 100 100 100 100
100 100 100 100 100 100 100 100 100 100 100 100 100 100 100 100 100 100 89 100 100 100 100 100 100 100 100 100 100 100 100 100 100 100 100 100 100 100 100 100 91 53 46 65 100 100 100 100 100 98 100 100 100 100
100 100 100 100 100 100 100 100 100 100 100 100 100 100 100 100 94 100 100 100 100 100 100 100 100 100 100 100 100 100 100 100 100 92 100 100 100 100 100 87 99 91 100 100 98 100 100 100 100 100 100 87 75 87
100 100 100 100 100 100 100 100 100 100 100 100 100 100 100 100 100 100 100 100 100 100 100 100 100 100 100 100 100 92 100 100 100 99 92 96 100 100 90 66 100 100 100 100 100 92 99 91 100 100 100 100 100 100
100 100 100 100 100 100 100 100 100 100 100 100 100 100 99 100 99 96 100 99 100 100 100 100 99 94 100 83 92 99 100 100 100 100 99 98 100 95 70 45 79 82 74 83 62 33 38 47 86 99 85 68 63 27
100 100 100 100 100 100 100 100 100 97 90 44 100 88 81 76 92 100 100 100 100 95 97 14 60 94 79 28 64 89 64 60 89 98 93 52 60 78 61 83 78 69 67 55 54 68 95 96 62 56 85 99 91 71
100 100 100 100 100 100 100 91 98 100 100 100 100 100 100 100 100 99 99 100 92 76 16 69 11 62 92 31 89 99 98 99 95 87 93 94 86 99 98 98 83 74 69 65 68 71 73 72 76 96 83 74 70 77
100 100 100 100 88 88 99 100 100 100 100 100 100 100 100 100 100 100 100 100 100 100 100 100 100 100 100 98 94 99 89 96 98 91 84 94 98 96 83 88 87 88 84 84 87 91 98 100 99 98 100 99 96 94
100 100 100 99 89 85 100 100 100 100 100 100 100 100 100 100 100 100 100 100 100 100 100 100 100 100 100 100 100 99 89 81 80 95 100 89 80 84 95 100 100 100 100 100 100 100 100 100 100 100 100 100 100 100
100 100 100 100 100 100 100 82 60 57 84 100 100 100 100 100 100 100 100 100 100 100 100 100 100 100 99 100 88 60 67 23 53 24 63 95 91 81 79 86 93 95 94 98 100 100 100 100 100 100 98 91 78 80
100 100 100 98 90 95 88 89 76 86 100 100 100 100 100 100 100 100 95 100 100 100 98 96 100 100 97 96 100 99 88 64 71 72 62 48 94 94 99 91 98 97 96 88 83 76 68 70 70 67 75 96 66 71
100 100 100 96 75 67 97 79 92 85 97 73 94 93 90 92 99 100 95 75 94 95 90 95 100 82 86 100 76 80 92 95 82 84 83 92 91 90 86 90 97 95 90 88 77 95 95 98 98 88 92 87 83 83
100 97 98 100 90 83 51 61 64 69 62 95 82 86 94 56 69 80 99 100 100 96 77 84 78 77 64 26 90 100 92 70 82 91 82 58 78 99 81 87 81 90 83 83 69 96 95 100 93 98 94 85 92 82
100 100 100 99 39 11 42 38 43 38 60 66 68 100 85 71 88 96 98 100 100 100 100 100 100 95 88 100 95 90 21 54 5 79 93 54 83 73 87 93 100 100 94 48 88 99 100 97 99 100 99 95 100 99
61 54 68 81 95 90 86 56 53 65 46 83 67 60 78 99 95 100 96 75 96 92 94 94 99 98 95 50 37 55 42 41 5 32 87 67 46 20 86 84 90 83 84 70 64 83 75 96 99 96 100 100 99 98
11 43 37 42 53 27 54 33 58 100 92 97 92 81 100 99 100 100 100 99 94 97 100 100 100 92 37 40 30 64 68 27 19 6 40 15 74 83 96 100 100 78 81 75 77 93 86 47 78 95 100 100 100 100
54 12 19 56 38 36 44 58 70 92 97 81 79 95 100 100 100 94 80 75 97 100 100 100 93 75 50 40 50 16 40 35 40 23 15 12 79 82 86 96 98 84 76 93 71 90 99 86 33 57 80 91 87 99
54 56 10 57 24 53 99 94 100 100 98 62 72 100 100 100 100 100 100 100 88 82 78 74 100 65 86 94 93 85 63 7 5 97 99 100 96 23 79 100 100 83 81 68 93 87 72 88 84 88 95 99 100 96
32 21 40 61 63 100 98 100 99 100 99 85 86 93 100 100 100 100 96 67 48 39 57 38 88 23 84 67 100 100 95 100 67 70 100 97 55 24 100 100 100 100 67 87 94 55 58 91 97 90 84 100 98 100
51 34 28 47 99 97 100 99 81 77 68 84 77 81 100 100 100 100 92 48 66 92 92 100 65 52 54 66 93 100 93 51 100 85 8 72 98 100 100 100 100 100 100 98 60 85 99 100 100 100 100 96 97 99
8 46 58 74 86 99 95 92 90 95 98 98 87 74 90 99 100 99 96 99 100 100 100 92 95 100 100 100 100 100 92 79 100 92 83 100 100 100 100 50 74 81 100 100 93 71 79 100 100 100 100 100 100 100
75 59 95 97 97 100 68 87 100 100 99 100 100 100 100 100 99 100 100 100 100 100 100 100 100 100 100 100 100 100 100 100 100 100 100 100 100 100 98 96 98 78 82 100 100 71 76 50 96 100 100 100 100 91

GFSWCAN_prec_cloud_105.txt.gz
Cloud_Cover
30 94 100 100 100 100 100 100 100 100 100 100 100 100 86 59 96 100 100 100 100 100 93 90 58 100 100 100 86 100 100 90 85 100 84 99 100 99 98 100 100 81 100 100 100 100 100 100 100 96 100 100 100 100
100 100 100 100 99 98 7 64 100 100 100 33 30 100 19 98 100 100 100 100 100 100 96 66 28 68 100 94 99 100 99 100 100 99 97 100 100 100 97 100 95 95 100 100 100 100 100 100 100 100 100 100 100 100
81 100 100 100 100 97 8 74 46 100 94 5 12 100 15 85 99 100 100 100 100 100 99 93 31 90 100 100 100 99 83 62 91 100 100 100 100 100 100 100 100 100 100 100 100 100 100 100 100 100 100 100 100 100
9 77 90 100 100 98 34 72 81 100 81 5 68 98 94 84 100 100 100 100 100 100 95 69 18 96 99 82 81 92 39 77 53 44 70 85 93 93 99 100 98 100 100 100 100 100 100 100 100 100 97 94 100 100
5 8 85 95 100 100 85 72 100 100 11 5 88 92 70 99 100 100 100 100 100 100 63 48 47 12 79 21 6 100 95 86 87 91 98 57 86 85 99 100 100 100 100 100 100 100 100 100 100 100 100 100 100 100
5 6 74 93 100 100 22 6 59 100 5 9 97 94 100 100 100 100 100 100 100 100 100 71 79 100 22 5 5 81 100 90 83 87 100 100 99 100 99 100 100 100 100 100 100 100 100 100 100 100 100 100 94 100
5 6 25 97 100 83 5 72 93 85 5 48 98 100 100 100 100 100 100 100 99 89 100 99 100 50 45 7 30 99 100 97 86 36 99 100 91 77 99 100 100 100 100 100 100 100 100 100 100 100 100 99 92 100
12 72 100 100 100 51 6 68 100 100 100 100 100 100 100 100 100 100 100 100 100 99 100 100 42 5 57 79 100 99 100 88 100 90 100 100 92 59 100 100 100 100 100 100 100 100 100 100 100 100 100 97 81 100
5 22 7 100 93 50 21 100 100 100 100 100 100 100 100 100 100 100 100 100 100 86 100 100 100 93 100 100 99 100 100 100 74 97 100 100 85 75 100 99 100 100 100 100 100 100 100 100 100 100 100 100 96 98
5 5 84 100 61 6 83 100 100 100 100 100 100 100 100 100 100 100 100 100 100 100 100 100 99 100 93 100 100 100 100 96 100 100 62 92 90 100 100 97 100 100 100 100 100 100 100 100 100 100 100 100 100 100
7 74 94 9 86 100 100 100 100 100 100 100 100 100 100 100 100 100 100 100 100 100 88 100 40 48 82 89 99 100 100 59 100 70 88 90 100 100 100 100 100 100 100 100 98 100 100 100 100 100 100 100 100 100
98 47 82 100 100 100 100 100 100 100 100 100 100 100 100 100 100 100 95 96 100 33 66 100 99 99 99 100 100 100 100 99 100 100 100 100 100 100 100 100 100 100 100 97 97 100 97 99 100 100 100 100 100 100
79 100 100 100 100 100 100 100 100 100 100 100 100 100 100 100 100 78 82 100 100 20 54 96 100 100 100 100 100 100 100 100 97 100 100 99 100 100 100 100 100 100 90 78 100 98 100 100 80 94 100 100 100 100
100 100 100 100 100 100 100 100 100 100 100 100 100 100 100 100 98 100 100 50 97 100 100 100 100 100 100 100 100 100 100 100 100 100 100 100 100 100 100 98 100 93 99 81 99 94 100 95 100 94 86 80 93 100
100 100 100 100 100 100 100 100 100 100 100 100 100 100 100 100 100 100 100 100 99 100 100 100 100 100 100 100 100 98 95 100 100 100 100 100 100 100 100 99 100 100 100 100 89 88 91 95 100 100 100 100 98 100
100 100 100 100 100 100 100 100 100 100 100 100 94 100 100 100 100 100 100 99 100 100 100 92 100 100 100 100 100 100 100 92 85 100 100 100 100 100 93 86 100 100 99 95 96 97 88 92 98 100 100 88 82 88
100 100 100 100 100 100 100 100 100 95 100 100 100 100 81 73 98 93 84 99 100 97 96 100 100 97 51 31 48 92 53 70 96 100 99 96 76 91 84 95 90 93 98 100 100 100 100 100 100 100 100 100 99 86
100 100 100 100 100 96 91 100 100 100 100 99 99 100 89 94 92 97 100 100 97 81 59 21 5 8 46 66 74 93 100 100 100 100 100 99 98 94 86 85 76 78 82 87 94 99 100 100 100 100 100 100 100 100
100 100 100 90 82 64 64 59 31 66 96 91 100 88 76 81 91 97 100 100 100 100 100 100 100 100 100 98 98 100 97 88 97 100 100 100 100 98 100 100 100 100 100 90 100 99 99 99 100 100 100 100 100 100
100 100 100 100 94 99 97 99 100 100 100 100 100 100 100 100 100 100 100 100 100 100 100 100 100 100 100 99 99 100 100 100 100 92 100 100 96 62 61 39 77 83 88 96 99 99 100 100 100 100 100 100 100 100
99 100 100 100 100 100 100 100 100 100 100 100 100 100 100 100 100 100 100 100 100 100 100 100 100 100 100 100 79 58 5 5 5 5 22 95 96 74 85 91 88 100 88 96 100 100 100 100 100 100 100 100 100 99
100 100 100 100 100 100 100 98 95 97 100 100 100 100 100 100 100 100 100 100 100 100 100 100 100 100 100 90 100 33 32 34 64 54 46 29 85 90 100 99 97 97 92 91 94 93 100 100 92 78 39 67 73 86
100 100 98 100 88 64 100 79 45 67 78 94 98 100 100 100 100 100 100 100 100 100 100 99 100 92 100 100 100 94 93 52 84 94 89 99 100 96 97 93 94 98 97 100 100 100 100 84 83 81 84 93 95 99
100 100 99 93 96 85 58 41 18 37 63 98 100 100 100 100 100 100 97 100 100 100 90 99 91 99 100 92 91 99 93 65 94 100 88 37 88 100 100 100 100 100 95 94 67 97 100 94 85 81 96 88 81 23
60 36 51 51 28 58 28 29 27 9 76 76 100 100 99 99 100 98 85 100 100 100 100 100 100 91 89 100 100 99 90 7 5 50 99 6 93 95 98 100 100 100 82 5 32 92 100 100 97 99 99 96 96 87
100 91 50 77 76 94 70 70 63 59 34 76 99 92 94 100 93 100 98 79 94 97 100 100 100 100 100 100 100 92 96 15 5 24 94 58 5 5 5 36 68 87 89 76 55 55 80 99 100 85 90 92 88 92
100 95 63 54 59 45 26 6 11 40 95 98 85 88 72 99 100 94 68 79 99 100 100 92 86 90 81 91 93 91 83 7 5 15 75 78 85 80 74 89 95 81 76 72 64 35 6 24 80 100 100 99 93 90
64 91 64 60 55 44 72 59 29 45 99 78 42 63 100 100 100 100 100 100 100 100 94 74 55 6 5 20 60 30 66 51 60 38 24 58 72 64 35 62 93 70 86 91 84 94 46 5 5 9 51 82 95 99
38 11 12 61 9 44 98 98 98 100 99 46 51 100 100 100 100 100 100 100 95 64 68 61 97 50 74 60 42 84 83 98 100 52 62 19 41 5 90 100 65 43 73 96 98 68 83 81 25 65 70 79 91 100
34 12 32 58 46 98 99 99 99 100 99 95 63 82 96 100 100 99 100 95 69 43 65 30 85 23 46 59 96 100 100 100 99 97 55 72 22 10 98 100 89 40 82 54 23 45 85 81 98 84 96 97 100 100
24 5 28 47 100 97 100 100 90 36 51 74 73 63 98 100 100 100 100 69 72 75 75 79 100 72 69 100 100 100 100 100 100 100 72 9 74 100 100 100 100 100 99 90 30 5 60 78 98 100 98 99 100 99
22 65 57 66 79 84 82 84 78 89 95 59 79 79 99 83 100 100 100 100 100 100 100 100 100 100 100 100 100 100 100 100 100 100 94 98 96 100 98 68 84 100 98 97 72 36 63 85 100 99 96 95 100 100
78 71 96 97 94 100 69 79 57 62 99 98 79 99 99 100 99 100 100 100 100 100 100 100 100 100 100 100 100 100 100 100 100 100 100 100 100 99 88 97 91 74 79 99 98 57 63 46 71 80 97 100 100 92

GFSWCAN_prec_cloud_108.txt.gz
Cloud_Cover
100 61 99 100 100 100 100 100 100 100 100 100 100 100 100 100 100 100 100 100 100 94 68 69 14 39 43 100 94 88 81 84 90 94 100 100 75 90 72 100 100 100 100 100 100 100 94 86 100 100 100 100 100 100
77 45 5 100 100 100 100 100 100 100 100 100 100 100 100 100 100 100 100 100 100 100 99 72 19 17 45 92 100 100 84 79 91 96 90 84 98 33 62 96 100 100 95 100 100 100 100 100 100 100 100 100 100 100
35 5 65 24 100 100 97 46 5 28 97 100 90 84 90 98 80 72 100 100 100 100 99 87 29 5 5 15 59 99 87 82 64 64 64 96 73 100 100 100 97 100 100 88 100 100 100 100 100 100 100 100 100 100
5 5 14 100 100 100 100 99 5 27 5 100 79 5 46 99 18 85 100 100 100 100 98 47 5 5 39 8 5 5 27 64 52 97 94 100 97 74 86 88 100 78 69 100 100 100 100 100 100 100 100 100 100 100
5 5 5 20 100 100 100 100 73 58 21 100 66 5 77 99 82 85 100 100 100 100 94 43 5 5 4 8 59 6 40 98 100 95 84 98 87 60 98 85 100 100 100 100 100 100 100 100 100 100 100 100 100 100
6 5 5 4 39 100 100 100 100 85 84 96 5 5 94 100 100 100 100 100 100 100 100 81 8 3 4 4 9 49 56 100 100 100 96 48 68 100 100 100 100 100 100 100 100 100 100 100 100 100 100 100 99 95
5 22 5 5 5 50 100 100 100 9 5 5 5 10 99 100 100 100 100 65 100 100 100 83 39 5 81 53 100 100 100 100 100 100 87 49 78 97 100 99 100 100 100 100 100 100 100 100 100 100 100 100 100 100
5 5 5 5 5 36 100 100 24 5 92 94 54 100 100 100 100 100 100 100 100 100 100 99 35 59 100 100 99 97 100 100 100 88 76 100 98 67 95 100 100 100 100 100 100 100 100 100 100 100 100 100 100 97
5 5 5 5 5 29 100 96 5 42 100 100 100 100 100 100 100 100 100 100 100 100 97 100 87 90 68 100 78 99 99 100 40 63 78 50 87 96 100 100 100 100 100 100 100 100 100 100 100 100 100 98 100 100
5 5 5 5 56 81 100 97 11 100 100 100 100 100 100 100 100 100 100 100 100 100 98 97 71 100 100 100 100 95 56 100 100 59 48 74 97 100 100 100 99 100 100 100 100 100 100 100 100 100 100 100 100 100
2 5 5 5 19 100 100 36 99 100 100 100 100 100 100 100 100 100 100 97 90 92 99 92 60 76 66 99 97 100 99 96 98 64 100 100 100 100 100 100 99 100 100 100 100 98 100 100 100 100 100 100 100 100
5 5 9 82 100 99 31 100 100 100 100 100 100 100 100 100 100 100 100 91 99 100 100 100 93 100 85 100 74 94 100 94 100 64 83 97 100 100 100 99 100 95 99 100 99 99 97 100 100 100 100 99 100 100
5 26 70 68 80 98 100 100 100 100 100 100 100 100 100 100 100 81 100 100 100 98 100 100 93 98 93 98 100 100 100 100 91 99 100 100 100 100 100 100 86 72 84 99 96 100 100 100 100 100 100 100 100 100
43 77 94 100 100 100 100 100 100 100 100 100 100 100 100 100 59 99 100 99 49 84 74 82 99 96 98 100 100 100 100 96 97 100 100 100 100 100 100 100 100 100 100 100 100 100 100 100 100 100 100 100 100 100
100 100 100 100 100 100 100 100 100 100 100 100 100 91 100 100 100 100 100 100 99 100 90 100 100 100 100 100 100 100 100 100 93 100 100 100 100 100 100 100 100 100 100 100 100 100 100 100 100 100 100 100 100 100
100 100 100 100 100 100 100 100 100 100 100 100 100 100 100 100 100 100 99 92 100 100 100 100 100 100 90 96 100 98 90 95 100 100 100 100 100 100 100 100 100 100 100 100 100 100 100 100 100 100 100 100 100 100
100 100 100 100 100 100 100 100 100 100 100 100 100 100 100 97 96 98 100 100 100 99 94 19 74 83 36 63 68 96 100 100 100 100 100 100 100 100 100 100 100 100 100 100 100 100 100 100 100 100 100 100 100 100
100 100 100 100 100 100 100 100 100 100 98 100 100 100 100 100 100 100 100 92 95 100 90 82 60 9 68 57 97 100 100 100 100 100 100 100 100 100 100 100 100 100 100 100 100 100 100 100 100 100 100 100 100 100
100 100 100 100 100 100 99 100 94 96 100 100 100 100 100 100 100 100 100 100 100 100 100 69 68 78 93 100 100 100 100 100 100 100 100 100 100 100 100 100 100 100 100 100 100 100 100 100 100 100 100 100 100 100
100 100 100 88 100 99 98 100 92 61 99 98 100 100 100 100 100 100 100 100 100 91 90 79 92 98 100 100 98 100 100 100 100 100 100 100 100 100 100 98 100 100 100 99 100 94 100 100 100 100 100 98 100 100
100 82 72 41 49 36 66 61 44 79 81 96 95 90 88 91 98 96 78 93 100 100 98 100 100 100 100 100 100 100 100 100 100 100 98 100 100 100 100 100 100 100 100 100 100 92 88 100 100 100 100 100 100 100
100 100 100 100 100 100 100 100 100 100 100 100 89 38 82 95 99 100 100 100 100 100 100 99 100 100 98 87 89 93 97 73 48 45 66 69 100 100 100 100 100 100 100 100 100 100 100 100 100 100 100 100 100 100
100 100 97 90 78 35 79 79 89 94 91 95 89 92 97 100 100 100 100 99 100 100 99 100 100 100 100 94 91 90 78 81 100 99 100 100 100 100 100 100 100 100 100 100 100 100 100 62 76 100 100 100 100 100
100 100 100 98 67 96 55 39 58 54 86 100 100 100 100 100 100 100 94 100 100 100 100 100 100 100 100 97 100 100 96 100 96 100 98 100 100 100 100 100 100 100 99 100 100 100 100 100 52 99 100 100 100 100
97 90 84 53 5 5 5 16 50 72 100 100 100 100 100 100 100 97 71 100 100 100 100 100 100 100 92 100 100 98 85 98 95 86 90 99 99 100 100 99 100 100 100 100 100 100 100 100 100 100 100 100 100 100
31 78 56 61 34 34 13 35 49 52 80 100 100 100 96 86 87 98 100 100 100 100 98 96 99 97 98 86 88 81 75 75 70 53 58 70 80 100 100 100 100 99 89 93 100 100 100 100 100 100 100 100 87 99
51 91 60 6 51 9 46 69 52 82 67 53 80 64 35 98 100 100 100 100 100 100 100 100 92 84 71 45 49 75 8 11 64 76 76 63 72 82 99 100 99 97 90 99 100 100 100 100 100 100 100 100 100 100
76 12 16 44 20 22 5 13 30 51 73 61 71 67 66 99 100 100 100 100 98 76 66 70 84 98 74 14 61 80 79 64 58 58 56 52 67 74 80 92 81 41 74 95 100 100 100 100 99 83 100 100 100 100
16 5 5 5 5 33 91 66 80 100 100 74 96 96 100 100 100 100 99 96 92 77 84 93 98 97 97 100 98 86 61 40 36 71 56 62 71 95 79 93 74 58 94 99 97 82 100 98 100 100 100 100 100 100
27 28 5 5 7 34 100 99 100 100 100 97 92 94 97 100 100 100 100 100 93 82 92 74 84 54 73 63 61 91 89 72 93 93 97 75 98 98 100 100 100 97 100 100 100 96 86 98 100 100 100 100 100 100
27 29 25 74 97 100 100 100 92 88 98 94 95 96 97 100 100 100 100 100 100 100 100 100 100 99 100 100 100 79 41 55 100 99 100 100 100 100 100 100 100 100 100 100 100 100 98 95 100 100 100 100 99 90
38 42 5 32 98 98 100 98 81 96 91 100 100 99 100 100 100 100 100 100 100 100 96 99 100 100 100 100 100 100 65 75 100 100 100 100 100 100 100 100 100 100 100 100 100 96 69 79 99 100 100 100 100 100
76 80 91 93 98 100 94 99 37 60 63 76 99 96 90 73 95 100 100 100 100 92 100 100 100 100 100 100 100 100 94 90 100 100 100 100 100 100 85 91 90 91 80 100 100 98 83 74 76 75 78 78 86 84

GFSWCAN_prec_cloud_111.txt.gz
Cloud_Cover
98 96 100 100 100 100 100 100 100 100 100 100 100 100 100 64 100 100 100 99 100 100 100 61 85 91 99 100 100 61 14 84 90 84 95 100 99 100 88 100 100 100 100 100 100 100 99 15 60 100 100 100 100 100
81 99 74 9 76 96 100 100 100 100 100 100 100 94 95 100 100 100 100 100 100 100 96 43 15 18 48 94 87 98 58 93 58 100 100 89 100 80 86 100 80 98 89 100 100 100 100 100 100 100 100 100 100 100
100 100 100 78 98 100 100 88 99 100 100 100 100 100 100 100 100 100 100 100 100 100 99 79 5 22 5 5 16 87 85 79 96 84 98 92 95 73 82 100 100 100 68 98 61 100 100 100 100 100 100 100 100 100
99 100 100 46 5 65 100 100 100 8 5 62 100 100 100 100 100 100 100 100 100 100 83 62 9 5 5 5 10 34 79 86 91 98 100 99 84 100 94 90 95 95 100 80 97 100 100 100 100 100 100 100 100 100
6 34 81 99 34 8 84 100 100 96 5 5 97 100 5 14 80 74 85 99 89 98 98 80 64 83 57 6 5 42 100 100 99 96 76 100 85 51 81 48 100 92 94 88 100 100 100 100 100 100 100 100 100 100
73 66 11 15 5 37 98 100 100 100 12 8 95 92 5 5 100 83 99 99 97 100 100 74 98 26 5 5 60 73 100 100 100 100 99 79 70 83 82 99 100 100 100 100 100 100 100 100 100 100 100 100 100 100
5 38 13 25 5 18 74 100 100 98 12 5 30 9 5 8 100 100 99 100 100 100 100 72 98 85 73 93 100 99 100 100 100 100 90 99 80 91 56 95 100 100 100 100 100 100 100 100 100 100 100 100 100 100
9 5 5 5 3 4 5 92 100 100 36 5 46 87 5 75 99 100 85 100 100 100 100 99 66 77 56 96 99 100 100 100 79 49 83 29 23 68 99 97 93 100 100 100 100 100 100 100 100 100 100 100 100 100
93 65 27 5 5 5 5 24 100 99 79 43 100 100 74 85 100 87 100 100 100 100 100 96 93 99 78 80 78 100 100 100 74 88 91 92 100 100 100 100 100 100 100 100 100 100 100 100 100 100 100 100 100 100
5 5 79 81 17 0 2 55 100 40 5 43 79 100 100 100 79 88 100 100 100 100 86 100 45 93 38 83 73 93 70 98 100 50 87 98 98 100 100 100 97 95 100 96 100 100 100 100 100 100 100 100 100 100
5 5 4 10 76 6 22 100 100 89 25 100 100 100 100 100 100 100 100 99 84 89 69 38 58 99 49 43 100 93 99 87 86 71 66 89 100 100 100 100 100 100 100 100 100 96 96 100 100 100 100 100 100 100
5 5 1 6 100 14 99 100 100 23 85 99 100 100 100 100 100 100 96 89 100 82 95 97 99 71 95 63 54 88 99 76 92 90 100 99 100 100 100 100 100 98 98 99 100 100 98 99 99 96 100 98 100 100
5 5 2 46 92 62 99 100 84 90 100 100 100 100 100 100 99 80 98 98 87 100 87 75 70 74 73 39 87 81 99 100 100 96 100 100 100 100 100 100 99 96 99 96 92 100 100 100 100 100 100 100 100 100
5 5 13 48 54 100 100 99 100 100 100 100 100 100 100 92 39 66 100 100 100 98 76 100 83 91 97 68 92 100 100 100 100 100 100 100 100 100 100 96 93 96 100 100 100 100 100 100 100 100 100 100 100 100
5 5 10 45 88 100 100 100 100 100 100 100 100 100 94 100 100 100 100 100 75 100 90 98 81 100 89 86 100 100 100 100 96 100 100 100 100 100 100 100 100 100 100 100 100 100 100 100 100 100 100 100 100 100
5 24 53 99 98 100 100 100 100 100 100 100 100 100 100 100 100 100 100 99 90 100 98 80 93 100 100 100 100 99 100 100 100 100 100 100 100 100 100 100 100 100 100 100 100 100 100 100 100 100 100 100 100 100
95 100 100 100 100 100 100 100 100 100 100 100 100 100 100 100 100 100 100 100 94 100 100 100 96 98 58 93 92 92 100 100 100 100 100 100 100 100 100 100 100 100 100 100 100 100 100 100 100 100 100 100 100 100
100 100 100 100 100 100 100 100 100 100 100 100 100 100 100 100 100 100 100 99 100 100 86 46 54 29 85 98 99 100 100 100 100 100 100 100 100 100 100 100 100 100 100 100 100 100 100 100 100 100 100 100 100 100
100 100 100 100 100 100 100 100 100 100 100 100 100 100 100 100 100 100 100 91 92 97 99 47 64 94 100 95 100 100 100 100 100 100 100 100 100 100 100 100 100 100 100 100 100 100 100 100 100 100 100 100 100 100
100 100 100 100 100 100 100 100 100 100 100 99 99 100 100 100 100 99 99 96 100 100 100 91 98 100 100 100 100 100 100 100 100 100 100 100 100 100 100 100 100 100 100 100 100 84 100 100 100 100 100 98 100 100
100 100 100 100 100 100 90 99 92 98 100 100 100 100 100 100 100 100 99 100 100 81 97 100 100 100 100 100 100 100 100 100 100 95 100 100 100 100 100 100 100 100 100 100 100 92 69 100 100 100 100 100 100 100
100 100 100 100 99 95 98 92 86 93 100 100 100 100 100 100 100 98 84 91 97 100 100 100 100 100 98 99 100 100 95 87 82 90 99 91 100 100 100 100 100 100 100 100 100 100 100 100 100 100 100 100 100 100
100 95 89 79 45 41 85 94 97 100 99 100 90 88 97 96 60 54 91 100 100 100 100 100 100 100 99 95 95 87 95 95 100 100 100 100 100 100 100 100 100 100 100 100 100 100 100 44 74 100 100 99 100 100
100 100 100 98 38 100 84 98 97 93 99 98 74 34 59 70 20 83 100 100 100 100 100 100 98 100 94 99 98 100 98 100 100 100 100 100 100 100 100 100 100 100 100 100 100 100 100 100 51 98 100 100 100 100
100 99 81 45 40 83 95 84 76 80 98 94 100 96 59 62 60 58 81 100 100 100 100 100 100 100 97 100 100 97 90 100 100 98 94 100 97 100 100 100 100 100 100 100 100 100 100 100 100 100 100 100 100 100
100 97 80 87 65 81 70 50 49 43 5 59 75 36 28 32 97 100 100 100 100 100 100 100 100 100 100 100 100 99 86 74 81 89 83 92 97 100 99 100 100 100 99 99 100 100 100 100 100 100 100 100 67 79
61 97 70 6 86 52 68 37 7 12 8 24 27 53 46 98 100 100 100 100 100 99 99 97 100 100 100 100 100 90 76 66 50 63 85 67 51 49 100 100 98 100 100 100 100 100 100 100 100 100 100 100 100 100
68 89 66 61 44 19 5 6 14 23 38 52 38 94 100 100 79 89 99 100 100 99 100 100 96 81 82 97 99 100 96 80 88 81 44 90 89 94 100 100 88 48 90 87 100 100 100 100 100 100 100 100 100 100
94 60 6 5 5 33 46 63 71 81 93 77 79 45 71 97 100 98 99 100 100 100 98 93 98 87 90 99 100 100 94 90 57 72 63 52 95 97 97 100 100 96 100 100 57 95 98 98 99 100 100 100 100 100
81 79 9 5 8 43 99 95 100 100 93 85 55 63 92 100 100 98 100 100 100 99 98 98 100 100 100 100 100 100 100 100 100 58 79 73 88 99 100 100 100 100 100 100 100 100 63 80 91 96 94 100 100 100
67 91 56 86 98 100 100 100 100 99 100 93 97 95 95 100 100 100 100 100 100 100 100 100 100 100 100 100 100 100 100 100 100 99 96 98 100 100 100 100 100 100 100 100 100 100 100 96 100 100 100 100 99 93
62 72 37 75 100 100 100 100 100 100 100 100 100 98 100 100 100 99 99 100 100 100 100 100 100 100 100 100 100 100 100 100 100 100 100 100 100 100 100 100 100 100 100 100 100 100 94 98 100 100 100 100 100 100
86 75 90 100 100 100 99 100 95 99 99 100 100 100 100 100 97 100 100 100 100 100 100 100 100 100 100 100 100 100 100 100 100 100 100 100 100 100 100 100 100 100 100 100 100 100 92 69 93 95 93 85 91 98

GFSWCAN_prec_cloud_114.txt.gz
Cloud_Cover
82 100 100 100 100 100 100 100 100 100 100 100 100 100 100 100 100 100 100 100 99 99 85 41 51 6 53 78 98 26 16 96 53 42 94 86 89 71 60 97 86 100 95 88 68 78 100 100 99 100 100 100 100 100
100 99 100 100 100 100 100 100 100 100 100 100 100 100 100 100 100 100 100 100 95 100 61 39 6 5 6 8 75 65 48 8 74 85 76 77 70 66 82 98 100 94 95 100 100 100 100 100 100 100 100 100 98 100
100 87 99 100 100 100 100 100 100 100 100 100 100 100 100 100 100 100 68 98 100 100 90 62 11 28 5 8 13 68 45 73 98 82 88 90 89 47 84 73 100 90 100 98 100 100 100 100 100 100 100 100 100 100
63 45 82 44 32 67 74 100 100 100 100 100 100 100 100 100 100 92 99 84 99 100 99 62 61 79 5 5 40 57 70 40 63 60 54 91 94 46 57 88 94 83 58 100 100 98 98 100 100 100 100 100 100 100
100 100 100 98 88 100 100 100 100 100 94 100 98 100 100 100 100 100 100 100 100 100 100 100 100 10 71 5 45 100 100 98 100 58 64 98 72 35 31 73 100 90 100 81 100 100 100 100 100 100 100 100 100 100
100 100 100 100 100 100 100 100 100 100 97 10 10 99 58 8 7 10 95 98 100 100 100 57 56 36 35 6 91 89 84 52 50 69 72 35 6 82 94 65 100 100 100 100 100 100 100 100 100 100 100 100 100 100
89 6 20 55 100 85 5 80 99 100 100 10 5 92 82 5 6 95 100 100 100 100 100 65 77 77 21 29 37 66 62 45 30 32 12 53 50 96 49 82 96 100 100 100 100 100 100 100 100 100 100 100 100 100
17 9 5 96 100 96 14 53 100 100 99 5 5 21 100 5 7 15 57 100 100 100 100 79 61 62 41 90 95 100 100 53 53 82 80 75 88 60 100 98 100 100 100 100 100 100 100 100 100 100 100 100 100 100
5 5 5 5 37 100 94 100 95 100 100 95 6 88 67 9 26 47 36 100 97 100 100 86 86 69 91 90 94 86 93 91 36 99 92 84 66 100 100 100 100 91 89 99 100 100 100 100 100 100 100 100 100 100
7 5 2 0 5 16 94 15 7 100 100 36 30 66 99 89 99 68 93 100 100 100 100 88 39 62 47 69 99 81 84 82 98 100 100 99 100 100 100 95 100 89 97 93 100 100 100 100 100 100 100 100 100 100
98 100 46 4 0 0 2 4 60 100 98 48 75 96 61 98 98 100 100 100 100 95 20 6 34 23 94 85 60 47 100 69 94 99 99 96 100 100 99 98 99 92 98 96 98 78 98 98 100 100 100 100 100 100
6 44 79 100 79 5 49 8 100 88 87 49 70 94 99 100 100 100 98 73 89 58 29 11 49 83 100 100 50 78 89 66 77 96 98 99 100 100 100 100 100 95 100 100 100 98 97 99 99 100 100 100 100 100
5 6 55 89 99 99 14 50 100 100 38 93 96 100 100 100 100 85 98 100 91 100 100 76 86 32 44 16 25 63 97 68 46 100 100 100 100 100 100 100 100 100 100 100 100 98 100 100 100 98 100 100 100 100
5 5 5 59 68 100 89 100 100 92 89 100 100 100 100 100 78 63 92 100 100 100 88 100 56 72 87 63 93 100 64 76 100 100 100 100 100 100 100 100 99 93 99 100 100 100 100 100 100 100 100 100 99 100
7 5 5 6 93 100 98 100 100 77 100 100 100 100 94 100 98 100 100 100 83 34 32 64 79 76 97 92 93 47 60 100 100 100 100 100 100 100 100 100 100 100 98 100 99 100 100 99 99 100 98 100 100 100
5 6 4 41 87 83 100 100 100 100 100 100 100 100 100 100 100 100 100 100 67 79 85 66 54 96 61 75 82 91 100 100 100 100 100 100 100 100 100 100 100 100 99 97 100 99 100 100 95 87 100 82 90 90
2 5 5 8 66 100 100 100 100 99 91 100 100 100 100 100 100 100 100 98 85 72 89 99 85 90 63 91 98 96 98 100 100 100 100 99 100 100 100 99 100 98 100 100 100 100 100 94 100 100 100 100 98 73
6 5 5 30 100 100 100 100 96 88 100 100 100 100 100 100 100 100 100 98 100 97 80 96 49 33 84 97 97 90 100 100 100 100 100 100 99 100 100 100 100 100 100 95 87 69 30 84 100 93 70 27 100 98
87 41 82 86 68 58 100 97 100 100 100 100 100 100 100 87 96 85 92 100 100 91 98 11 29 95 93 99 98 98 94 100 100 100 100 100 100 97 97 98 96 99 53 61 100 100 80 35 71 100 100 100 100 80
100 100 100 100 100 100 100 100 100 100 100 100 100 100 99 97 100 100 98 100 100 100 99 78 99 100 100 100 100 100 100 100 100 100 100 100 100 100 93 96 100 98 97 43 40 64 91 98 100 100 79 44 100 100
100 100 100 100 100 100 100 100 100 100 100 100 100 94 100 96 100 100 100 100 100 99 98 100 100 100 100 100 100 100 96 91 97 94 96 100 92 100 100 98 47 99 100 100 100 67 82 99 99 98 100 100 100 100
100 100 100 100 100 100 100 100 92 100 92 100 100 100 100 100 100 99 98 97 96 99 100 99 100 100 76 59 77 98 77 100 98 49 98 98 99 100 100 97 100 100 100 100 100 100 100 97 65 99 99 84 75 71
100 100 100 100 100 100 100 100 100 97 99 100 100 95 97 99 91 42 94 94 93 88 98 92 99 98 93 97 93 89 95 90 98 93 77 99 100 100 97 100 100 100 100 94 71 95 81 37 14 74 45 63 99 81
100 100 100 100 92 100 99 100 100 100 100 100 98 94 100 95 32 72 100 99 96 99 100 100 93 91 91 89 64 54 96 90 82 93 98 92 100 98 94 97 95 99 96 100 98 98 74 93 13 84 82 98 90 71
100 97 89 76 79 98 100 99 95 99 100 100 34 75 72 48 91 96 99 98 94 97 100 93 100 83 89 91 100 100 100 100 98 100 88 87 86 82 97 99 100 99 64 69 92 99 98 20 90 95 100 99 100 70
100 96 69 98 87 88 95 95 93 90 89 80 80 29 13 81 62 46 41 69 97 100 100 100 100 100 100 100 100 100 100 100 100 100 99 82 78 67 84 71 74 86 28 42 84 80 97 33 72 83 89 56 31 11
100 100 72 18 94 94 82 52 80 43 21 9 67 64 47 45 76 93 100 100 100 88 85 90 95 83 82 97 100 99 97 95 84 90 83 78 75 78 84 85 90 89 90 85 76 95 91 100 70 76 89 96 100 74
76 97 69 87 67 59 89 42 37 17 41 38 58 92 100 100 99 100 100 96 99 100 100 90 99 100 89 92 100 100 100 98 96 81 99 94 85 79 68 93 96 100 81 100 100 100 66 70 99 51 60 92 100 66
100 80 8 5 47 63 86 93 94 70 28 63 98 100 98 96 100 93 100 99 100 98 100 100 100 100 100 100 100 100 100 100 100 100 100 100 100 97 98 78 72 100 100 100 100 100 98 92 78 92 92 85 100 85
90 100 24 5 9 96 98 98 100 99 95 92 41 23 80 100 100 99 100 100 100 100 100 100 100 100 100 100 100 100 100 100 100 100 100 100 100 100 100 100 100 88 100 100 100 100 100 61 11 6 12 18 37 97
90 99 100 97 100 100 100 98 97 100 100 93 98 100 100 100 100 96 100 100 100 100 100 99 99 100 100 100 100 100 100 100 100 100 100 100 100 100 100 100 100 100 100 100 100 100 100 67 93 98 100 96 95 57
99 96 71 98 100 97 100 100 100 100 99 100 100 92 100 100 100 100 97 100 100 100 100 100 100 100 100 100 100 100 100 100 100 100 100 100 100 100 100 100 100 100 100 100 100 100 100 66 81 94 93 72 90 86
94 88 98 97 100 100 92 100 98 100 100 100 100 100 100 100 100 100 100 100 100 100 100 100 100 100 100 100 100 100 100 100 100 100 100 100 100 100 100 100 100 100 100 100 100 100 100 94 90 69 34 25 45 10

GFSWCAN_prec_cloud_117.txt.gz
Cloud_Cover
100 100 100 100 100 100 100 100 100 100 100 100 100 100 100 100 94 90 100 100 100 100 100 100 100 81 11 43 16 5 3 14 4 6 70 5 42 4 21 99 99 87 81 98 100 100 100 100 92 98 100 100 100 100
90 100 100 100 100 100 100 100 100 100 100 100 100 100 100 100 94 100 100 100 100 100 100 100 55 18 5 9 32 5 8 6 84 6 20 5 5 80 20 99 100 99 62 82 98 100 100 100 100 100 100 100 100 100
99 100 100 100 100 100 100 100 100 100 100 100 100 100 100 100 100 100 100 100 94 100 95 38 62 19 5 5 0 5 5 28 69 46 5 37 19 40 67 47 95 97 6 55 93 100 100 100 100 100 100 100 100 98
100 73 100 100 100 100 100 100 100 100 100 100 100 100 100 100 98 64 47 90 99 100 96 81 44 61 38 11 5 5 6 91 78 65 5 5 5 16 5 5 78 91 62 45 74 86 100 100 100 100 100 99 74 100
100 100 100 47 100 100 100 100 100 100 100 100 100 100 100 100 100 100 100 100 64 96 100 25 19 72 51 14 6 5 6 20 51 5 51 5 5 5 4 45 98 100 98 99 98 96 100 100 100 98 100 100 80 85
100 100 100 50 41 100 100 100 100 100 100 100 100 100 100 96 98 99 100 81 91 99 92 92 92 94 51 62 36 75 86 63 5 5 5 5 1 5 64 78 87 100 100 100 100 98 90 99 100 100 100 100 100 100
100 100 100 100 98 89 5 35 100 100 100 100 100 100 100 99 54 80 82 98 100 97 99 90 37 81 68 42 5 18 88 83 94 35 5 0 0 7 56 97 90 100 100 100 99 100 100 100 96 100 100 100 100 100
100 100 100 100 100 100 100 100 100 100 100 5 7 61 56 94 27 20 100 100 100 100 97 100 17 20 5 24 27 5 62 100 21 5 5 5 15 81 97 100 100 100 100 100 98 100 100 100 100 96 100 100 100 100
100 100 100 100 100 100 100 100 100 100 100 68 29 87 81 8 5 2 72 100 99 100 100 100 59 73 37 77 33 52 61 82 9 74 5 15 5 99 100 100 100 100 98 99 100 100 100 100 100 100 100 100 100 100
3 5 66 98 100 100 100 100 99 99 100 96 59 24 44 72 54 2 78 100 100 100 100 100 5 5 6 62 81 38 98 100 94 22 32 83 100 100 100 100 100 100 100 98 99 96 100 100 100 100 100 100 100 100
61 94 97 68 55 22 22 5 42 100 100 93 65 94 48 56 98 83 100 100 100 100 98 50 4 4 5 79 86 23 95 90 74 80 100 100 100 100 99 100 100 96 88 63 65 71 75 100 100 100 91 100 100 100
5 7 43 92 100 100 100 91 95 84 76 12 29 92 100 49 99 100 100 51 82 6 3 60 6 1 20 86 100 93 85 76 83 78 100 100 100 95 84 62 65 57 8 5 64 42 56 94 61 74 99 100 99 100
100 58 5 5 2 3 66 49 91 92 95 59 70 100 100 100 100 100 94 87 10 46 99 82 7 34 86 91 96 44 98 89 5 97 100 100 98 99 80 36 46 52 46 32 92 97 85 38 58 97 77 73 64 95
96 100 100 74 4 1 79 83 100 100 98 82 96 58 82 100 83 7 5 6 93 100 99 97 73 5 17 42 68 100 51 87 92 96 100 94 87 79 67 8 6 38 5 5 5 22 68 67 88 100 100 100 75 90
34 72 87 100 100 82 69 98 100 97 94 70 98 76 77 100 96 93 98 100 100 100 80 100 48 36 51 75 100 98 100 95 94 98 100 100 58 96 42 6 7 23 58 59 31 35 62 23 32 59 80 88 100 100
40 23 52 59 100 100 100 100 100 96 97 92 92 87 100 100 100 100 100 100 93 100 41 49 30 89 59 97 92 60 90 62 100 100 100 83 81 50 15 15 50 78 95 93 100 100 100 100 100 99 95 61 8 19
15 98 78 33 96 100 99 100 100 95 40 63 96 100 100 100 100 100 100 100 99 52 80 85 82 91 81 48 95 96 88 91 88 99 57 44 58 76 98 100 100 98 62 51 10 6 6 27 48 88 81 48 5 5
6 5 6 23 99 100 100 95 70 89 92 100 100 98 100 100 100 100 100 100 100 96 63 90 70 70 82 99 78 91 95 100 98 100 100 93 81 33 6 19 41 5 5 5 5 27 77 85 92 21 8 97 87 93
4 5 6 36 98 100 100 85 97 100 100 100 100 100 100 100 100 91 94 100 100 100 100 98 74 82 97 49 85 86 100 97 94 96 67 70 76 77 86 96 76 54 26 64 96 66 50 68 34 82 98 99 100 100
30 83 30 92 100 74 88 100 100 100 100 100 100 100 100 100 100 84 100 100 100 100 100 96 92 71 71 92 93 41 33 51 77 100 100 100 69 65 82 88 91 60 63 26 16 10 74 78 100 51 5 8 86 92
60 53 100 100 100 100 100 100 100 100 100 100 100 100 100 71 77 80 76 95 100 85 65 65 75 79 38 38 25 9 31 64 84 93 100 98 93 89 83 88 23 45 36 77 93 32 29 53 31 38 42 74 42 5
100 100 100 100 100 100 100 100 100 100 100 100 94 90 98 98 100 96 53 99 77 13 32 57 69 47 17 44 73 86 90 84 88 88 95 94 98 100 99 94 83 100 97 42 69 94 36 5 50 30 9 14 20 29
100 100 100 100 100 100 100 100 99 86 65 94 100 97 89 91 67 30 94 88 45 21 8 15 54 70 68 55 43 66 96 100 100 98 100 94 81 68 67 72 100 43 70 70 6 16 17 7 6 6 5 33 79 74
100 100 100 100 100 100 100 100 94 100 99 95 100 97 100 100 95 82 91 58 45 96 70 47 74 97 79 98 100 100 100 100 100 92 87 80 89 98 79 99 100 100 94 93 75 45 26 22 27 6 34 6 23 24
100 90 100 100 98 100 99 95 100 98 100 100 100 93 87 37 46 74 86 94 95 91 96 90 99 100 100 100 100 98 90 82 92 96 100 100 100 100 100 100 99 100 100 100 98 86 79 77 48 59 68 33 77 91
100 100 100 100 100 100 100 100 97 100 100 93 31 9 5 36 93 56 16 45 85 100 100 100 100 100 100 99 97 100 100 97 100 100 100 100 100 100 95 80 90 86 99 100 100 100 81 100 97 64 25 36 16 7
100 100 100 98 100 100 99 99 98 40 14 35 64 10 38 60 23 10 80 90 100 100 100 100 100 100 95 97 100 100 100 100 100 100 100 100 100 100 100 100 83 86 69 90 97 100 100 100 100 100 49 68 90 32
100 100 100 97 81 93 97 87 44 17 63 50 44 63 23 36 68 97 100 100 100 100 100 100 100 80 100 100 100 100 100 100 100 100 100 100 100 100 100 100 100 95 65 76 94 100 100 100 100 100 100 57 100 56
100 99 93 87 46 11 28 87 99 40 19 34 39 38 49 100 100 100 100 100 100 100 100 100 100 100 100 100 100 100 100 100 100 100 100 100 100 100 100 100 100 100 98 100 91 100 100 100 100 100 100 91 26 15
43 84 18 29 45 99 98 80 89 14 11 45 88 94 98 87 100 100 100 98 100 100 100 100 100 100 100 100 100 100 100 100 100 100 100 100 100 100 100 100 100 100 100 100 95 87 100 100 100 100 100 100 74 81
67 96 84 93 97 92 42 5 5 16 58 96 91 77 71 76 99 100 99 100 100 100 100 100 100 100 100 100 100 100 100 100 100 100 100 100 100 100 100 100 100 100 100 100 100 100 100 100 100 100 100 100 99 96
55 77 42 97 95 5 38 95 97 99 35 80 66 73 72 74 76 99 100 100 100 100 100 100 100 100 100 100 100 99 100 100 100 100 100 100 100 100 100 100 100 100 100 100 100 100 100 100 100 100 100 100 100 100
7 5 16 58 82 96 35 87 100 83 100 100 98 100 100 99 90 100 100 100 100 100 100 100 97 100 100 100 100 100 100 100 100 100 100 100 100 100 100 100 100 100 100 100 100 100 100 100 100 100 100 100 100 100

GFSWCAN_prec_cloud_120.txt.gz
Cloud_Cover
100 100 100 100 100 100 100 100 100 100 100 100 100 100 100 100 100 100 100 100 100 100 99 32 32 34 68 72 10 57 5 34 5 5 8 5 5 39 7 100 90 64 87 100 83 85 100 100 100 96 100 98 100 100
100 100 100 100 100 100 100 100 100 100 100 100 100 100 100 100 100 100 100 100 100 100 91 96 90 73 77 82 6 12 6 5 55 5 9 6 15 5 52 60 100 93 69 92 100 96 100 99 100 100 100 100 94 75
98 100 100 100 100 100 100 100 100 100 100 100 100 100 100 100 100 100 100 100 88 98 87 81 100 98 16 7 26 6 5 21 45 5 5 19 32 5 5 5 5 74 9 68 97 99 100 100 100 100 100 100 96 100
100 100 100 100 100 100 100 100 100 100 100 100 100 100 100 93 100 100 100 100 100 97 90 63 21 38 24 5 15 5 6 100 89 12 5 17 12 6 5 4 11 80 49 72 97 100 100 100 100 100 100 94 99 100
100 87 100 100 100 100 100 100 100 100 100 100 100 100 100 100 52 74 100 91 100 56 61 92 29 5 5 56 27 5 26 5 7 5 7 8 4 5 5 31 75 75 98 61 47 72 98 100 100 81 99 100 72 100
100 100 100 100 100 100 100 100 100 100 100 100 100 100 100 100 63 100 98 75 100 100 87 87 25 34 44 48 26 86 36 98 82 5 5 5 5 5 8 94 100 100 100 100 100 88 53 98 90 100 100 100 100 100
100 100 100 100 100 100 100 100 100 100 100 100 100 100 100 100 89 94 100 100 69 85 100 96 96 79 39 55 86 82 99 100 90 98 46 5 1 4 31 90 57 93 100 100 98 100 43 89 96 98 100 100 100 100
100 100 100 100 100 100 100 100 100 100 100 100 100 100 100 100 100 100 100 100 98 100 84 88 62 86 82 94 73 5 68 100 100 50 8 5 5 15 79 90 89 100 100 100 98 88 94 90 63 100 100 100 100 100
100 100 99 100 100 100 100 100 100 100 100 100 100 100 100 100 100 100 100 100 100 100 97 100 63 66 81 74 6 30 21 69 25 11 9 17 7 97 100 99 100 100 100 100 100 99 49 5 46 64 93 100 100 100
6 85 100 100 100 100 100 100 100 100 100 100 100 100 100 100 86 68 93 100 100 100 83 96 33 64 21 45 87 41 86 89 74 51 74 51 84 91 88 98 100 100 100 100 95 97 93 95 67 82 91 100 100 100
92 96 100 100 100 100 100 100 100 97 91 87 100 100 100 69 47 74 96 96 100 99 100 100 5 5 5 66 40 26 92 90 92 36 96 97 95 94 95 94 100 100 100 98 94 100 100 93 86 86 91 100 100 100
0 52 100 100 100 100 100 100 100 94 100 98 100 100 99 86 85 100 100 98 99 8 31 52 14 4 5 22 10 95 92 97 97 98 100 81 99 77 70 89 62 60 37 33 44 79 96 97 92 96 100 99 98 98
44 3 24 100 100 100 100 100 100 100 100 100 100 100 98 42 98 100 100 100 80 5 8 5 5 5 9 12 93 45 99 100 46 100 86 100 92 86 5 5 24 46 59 64 67 72 82 77 74 64 59 62 52 69
77 100 65 24 32 35 79 96 98 100 97 78 92 100 100 84 46 5 5 5 5 5 4 5 5 77 92 92 61 10 48 99 99 97 35 100 61 5 5 5 6 22 5 5 18 6 53 76 96 60 68 42 50 87
83 79 100 100 100 100 100 100 99 96 63 89 100 90 78 98 100 68 92 95 100 13 11 72 42 10 64 85 100 92 100 100 52 5 62 97 50 5 5 5 5 5 51 60 60 71 70 55 58 99 89 67 33 5
99 63 17 12 34 66 70 100 100 72 90 82 97 84 100 88 97 100 100 100 99 89 22 78 94 75 94 84 100 100 99 34 14 79 91 76 54 5 7 21 31 31 10 47 58 58 57 37 34 26 47 36 49 5
100 100 99 56 6 86 100 100 94 100 100 65 91 99 97 100 100 100 100 100 100 100 98 100 87 93 84 100 93 99 61 19 96 100 98 22 53 80 46 55 54 44 37 8 56 18 25 14 50 38 25 5 7 5
77 55 99 100 98 100 100 100 94 37 11 5 100 100 100 100 100 100 100 100 100 97 88 89 72 74 90 94 54 85 100 100 96 93 99 76 47 29 51 70 71 64 29 56 15 38 44 90 95 82 96 52 70 71
6 8 80 100 100 100 100 100 95 56 5 96 100 100 100 100 100 100 100 90 100 100 100 100 29 38 54 80 90 95 95 87 93 96 92 70 49 41 40 37 60 72 73 65 71 26 59 26 34 52 64 53 84 92
7 44 82 100 100 100 100 95 44 69 98 100 100 100 100 97 92 100 100 92 100 100 100 88 49 75 44 68 51 30 7 24 69 100 100 99 79 92 99 88 75 70 64 61 74 65 93 77 68 36 62 18 76 83
8 28 100 100 100 100 100 100 100 100 100 100 100 100 100 59 50 94 99 72 93 88 87 80 72 86 78 57 6 5 5 6 74 98 100 100 92 89 78 78 66 80 83 73 85 86 84 73 70 34 63 96 12 5
67 94 97 100 100 100 98 100 100 100 100 100 100 95 56 87 100 88 89 95 88 53 56 78 82 79 59 25 33 61 61 65 96 100 99 87 92 97 84 100 100 87 72 71 74 61 63 74 70 69 62 73 38 30
100 80 100 100 100 100 100 100 100 99 93 64 86 62 91 75 37 54 75 43 65 48 50 60 14 36 74 73 47 56 90 100 100 100 100 100 100 100 91 86 99 99 98 100 78 67 30 74 74 51 48 83 9 31
100 100 100 100 99 100 84 88 99 84 80 82 78 79 89 93 99 99 73 59 22 55 17 61 38 26 53 90 100 100 100 100 100 100 100 100 100 100 99 100 99 90 85 96 78 72 68 47 49 48 53 96 91 90
100 100 100 100 100 100 86 86 98 82 64 71 99 64 84 92 80 82 43 45 99 83 73 69 53 79 100 100 100 100 100 100 88 74 79 91 100 100 99 100 100 100 85 100 92 70 85 82 70 59 97 100 87 69
100 100 100 100 100 100 100 99 86 93 75 100 77 32 46 51 85 54 13 60 92 100 100 99 96 100 100 100 100 99 91 87 100 100 100 100 100 100 100 100 100 100 91 80 100 95 91 83 61 67 100 100 100 100
92 99 100 100 100 97 96 89 91 92 90 35 97 77 39 99 89 59 72 73 77 65 96 97 100 100 100 96 87 93 100 100 100 100 100 100 100 100 100 100 100 100 100 69 96 98 78 99 92 86 95 100 100 100
100 100 100 100 100 91 93 100 97 82 73 66 24 72 73 57 98 85 80 61 62 100 100 100 100 100 100 95 100 100 100 100 100 100 100 100 100 100 100 100 100 100 100 100 100 100 100 100 94 85 98 100 100 100
100 100 100 100 98 100 99 99 97 86 71 83 61 73 99 96 100 100 94 80 100 100 100 100 100 100 100 100 100 100 100 99 100 96 100 100 100 100 100 100 100 100 100 100 100 100 100 100 100 100 100 100 100 100
100 100 100 100 100 100 97 91 85 65 40 58 70 75 56 99 100 100 100 100 100 100 100 100 100 95 100 94 100 100 100 100 98 100 100 100 100 100 100 100 100 100 100 100 100 100 100 100 100 100 100 100 100 100
100 100 100 93 98 89 97 97 91 80 77 87 94 94 100 94 100 100 100 100 100 100 100 100 100 100 98 98 91 96 100 97 100 100 100 100 100 100 100 100 100 100 100 100 100 100 100 100 100 100 100 100 100 100
100 100 98 94 91 55 74 95 89 70 56 65 82 87 70 94 91 95 98 100 99 97 100 100 100 100 100 100 100 85 100 100 100 100 100 100 100 100 100 100 100 100 100 100 100 100 100 100 100 100 100 100 100 100
100 92 72 92 84 83 56 76 87 85 100 99 89 99 97 50 89 82 99 100 100 100 100 100 100 100 100 100 100 76 74 99 100 100 100 100 100 100 100 100 100 100 100 100 100 100 100 100 100 100 100 100 100 100

GFSWCAN_prec_cloud_123.txt.gz
Cloud_Cover
100 100 100 100 100 100 100 100 100 100 100 100 100 100 100 100 100 100 100 100 100 100 100 96 100 100 100 34 7 5 18 38 10 29 5 5 5 5 32 23 83 91 96 100 100 100 100 100 100 100 100 100 100 100
100 89 100 100 100 100 100 100 100 100 100 100 100 100 100 100 100 100 100 100 100 100 100 100 100 100 64 57 31 48 34 5 5 5 13 14 29 6 8 43 27 70 91 90 99 100 100 100 100 100 100 100 100 100
100 100 100 100 100 100 100 100 100 100 100 100 100 100 100 100 100 100 100 100 100 100 100 100 100 100 100 90 36 64 29 6 5 5 5 22 84 5 25 4 5 34 38 78 84 81 100 100 100 100 100 98 94 99
100 100 100 100 100 100 100 100 100 100 100 100 100 100 100 100 100 100 100 100 100 100 100 100 100 100 100 89 27 20 14 99 90 5 5 18 16 5 5 5 10 84 50 72 100 87 87 98 100 100 100 90 91 77
100 100 100 100 100 100 100 100 100 100 100 100 100 100 100 100 100 100 100 100 100 100 100 98 70 91 85 54 35 41 14 84 16 14 9 28 5 5 5 5 90 88 97 66 90 98 98 100 100 94 79 100 100 100
100 100 100 100 100 100 100 100 100 100 100 100 100 100 100 100 100 100 100 100 100 100 100 64 79 73 30 75 54 77 9 100 87 73 13 5 0 3 12 78 65 100 100 100 100 100 90 95 96 82 99 84 88 74
97 100 100 100 100 100 100 100 100 100 100 100 100 100 100 100 100 100 100 100 99 92 83 61 17 30 94 97 64 94 100 100 100 100 43 5 5 5 76 85 43 85 100 100 99 100 92 99 96 84 100 93 100 100
100 100 100 100 100 100 100 100 100 100 100 100 100 100 100 100 100 100 100 100 74 88 97 90 100 86 100 100 98 88 100 100 100 100 79 5 5 33 70 89 93 100 100 100 100 72 69 71 56 78 80 90 94 98
100 93 96 100 100 100 100 100 100 100 100 100 100 100 100 100 100 100 100 100 64 98 99 100 74 70 95 100 80 5 12 89 77 26 5 8 28 76 77 98 100 100 100 99 90 64 19 100 85 87 84 70 78 100
79 100 100 100 100 100 100 94 100 100 100 100 100 100 100 100 100 100 100 100 98 100 100 100 99 99 81 60 97 36 79 78 97 44 47 56 74 95 86 83 92 92 72 100 96 97 95 72 80 87 83 78 87 100
44 96 100 100 100 100 100 100 96 99 100 100 100 100 100 100 100 100 99 97 100 100 100 100 76 34 36 25 69 67 90 91 98 70 95 73 76 90 89 95 88 73 64 64 75 96 92 83 85 69 79 99 100 100
41 99 96 100 100 100 100 99 100 91 97 100 100 100 100 100 100 83 74 98 100 100 100 100 68 12 18 7 13 95 89 100 100 92 100 90 75 93 48 60 69 29 5 5 6 67 63 85 53 27 80 98 97 78
59 81 100 100 100 100 100 100 100 100 100 100 100 100 100 97 98 91 99 100 100 100 89 48 12 2 32 8 68 82 99 100 72 96 42 48 93 84 14 5 22 5 5 5 49 30 7 14 5 5 56 87 55 90
0 5 98 100 100 100 100 100 98 74 100 100 100 100 99 99 89 65 88 76 53 38 13 6 35 8 20 24 52 9 21 96 100 99 27 79 68 56 5 5 5 31 5 5 53 21 54 53 100 99 99 76 33 64
1 11 100 100 100 100 100 100 100 100 100 100 100 68 74 86 97 91 29 66 47 96 5 11 10 14 84 91 100 76 94 100 36 5 25 70 18 5 5 5 5 5 32 62 60 73 99 75 86 100 100 64 6 35
58 9 74 100 100 100 100 100 100 100 100 100 96 88 66 86 90 65 100 97 100 59 32 99 94 43 79 57 100 100 97 46 5 57 82 80 63 34 25 5 5 5 5 59 58 45 55 64 38 60 59 35 51 16
100 100 98 93 99 100 100 100 100 99 76 66 86 98 96 84 97 100 99 99 100 99 100 97 74 94 93 100 100 100 48 5 80 99 99 7 6 24 22 5 32 44 76 88 81 64 70 63 57 22 5 5 15 12
100 94 100 100 100 100 100 100 100 90 82 94 100 80 100 100 100 100 100 100 100 100 93 73 7 26 100 77 5 43 88 99 98 95 62 50 10 15 55 71 41 46 80 82 75 79 100 85 64 87 57 31 60 67
95 98 91 87 100 100 100 100 99 97 100 93 98 100 100 100 100 100 87 100 100 100 85 96 60 34 5 29 20 85 82 92 82 88 94 62 34 56 60 64 82 92 79 79 78 76 78 77 89 87 69 64 77 82
100 100 100 98 93 100 80 47 12 9 41 99 100 100 100 100 100 100 96 100 99 100 98 63 10 5 8 23 15 61 36 8 56 96 100 99 75 93 97 99 96 93 77 66 74 74 82 85 78 71 84 69 79 98
58 100 100 100 100 100 100 68 31 5 9 100 100 100 100 100 94 58 67 73 100 80 98 69 76 78 99 72 47 5 5 5 5 5 52 97 99 100 100 100 100 93 72 74 81 92 89 72 67 62 75 76 66 74
97 100 100 100 100 89 100 55 45 60 100 89 100 100 100 100 100 93 75 96 72 24 30 69 44 87 96 72 55 5 11 23 60 81 99 100 100 100 100 100 100 100 98 100 100 98 81 84 74 65 68 34 18 29
100 100 100 98 93 88 48 63 96 100 98 100 97 95 96 96 56 63 70 64 12 36 52 68 53 26 14 72 34 62 75 93 100 100 100 100 100 100 100 100 100 100 100 94 91 66 63 79 83 67 83 66 32 42
100 99 96 71 51 97 90 100 99 100 62 88 100 95 62 72 66 75 70 45 14 77 84 71 8 73 53 71 72 96 100 100 100 100 100 100 89 100 100 100 100 100 100 94 70 54 92 88 75 70 90 100 42 6
29 13 50 40 73 88 100 100 100 100 100 96 76 60 66 49 66 87 41 7 94 91 90 64 46 75 80 100 100 100 100 100 100 100 100 100 100 100 100 100 100 100 100 100 96 67 52 74 68 59 61 100 98 100
100 100 100 100 100 100 90 77 93 99 67 98 75 46 72 68 94 57 7 98 92 100 100 99 100 100 100 100 100 100 100 100 96 100 100 100 100 100 100 100 93 90 89 97 100 88 57 38 52 26 43 59 67 72
87 100 100 100 100 100 98 95 99 93 93 76 61 68 59 99 94 60 99 99 98 88 81 100 100 76 70 77 97 100 100 100 100 99 86 87 93 100 100 100 96 82 90 100 100 100 100 99 90 78 77 94 100 100
100 100 96 100 100 100 100 100 100 100 98 88 61 70 87 85 70 59 83 71 99 92 68 100 100 100 100 100 99 97 99 97 93 88 99 77 88 100 100 100 100 100 100 100 100 100 100 100 100 100 100 100 100 100
100 100 97 91 100 100 88 78 76 67 67 92 83 70 96 99 94 89 83 95 97 99 99 100 100 100 100 100 100 100 100 100 92 76 73 98 100 100 100 100 100 100 100 100 100 100 100 100 100 100 100 100 100 100
100 100 94 89 99 98 70 80 87 93 87 90 98 84 84 99 100 100 100 99 97 100 86 96 100 99 98 100 99 100 100 100 100 99 100 100 100 100 100 100 100 100 100 100 100 100 100 100 100 100 100 100 100 100
100 100 100 100 99 99 91 97 100 100 100 97 98 100 100 100 100 100 100 100 100 98 100 100 100 100 100 100 100 100 100 100 100 92 100 100 100 100 100 100 100 100 100 100 100 100 100 100 100 100 100 100 100 100
100 100 100 100 100 100 100 98 92 81 100 100 100 100 100 100 93 100 98 100 100 100 98 92 100 100 100 100 100 100 100 100 100 100 100 100 100 95 100 100 100 100 100 100 100 100 100 100 100 100 100 100 100 100
100 100 100 100 100 99 78 73 98 93 92 95 97 93 98 82 96 90 99 93 100 100 100 100 100 100 100 100 100 100 100 100 100 100 100 89 100 100 100 100 100 100 100 100 100 100 100 100 100 100 100 100 100 100

GFSWCAN_prec_cloud_129.txt.gz
Cloud_Cover
100 100 87 79 95 100 100 100 100 100 100 100 100 100 100 100 100 100 100 100 100 100 97 100 100 100 100 100 100 100 99 77 96 100 33 6 5 5 40 50 90 45 80 98 96 82 29 23 90 96 100 100 100 100
100 100 100 100 100 100 100 100 100 100 100 100 100 100 100 100 100 100 100 100 100 99 88 100 100 100 100 100 100 100 96 100 100 76 43 77 17 11 5 96 29 94 62 90 70 96 98 100 91 98 98 98 99 100
100 100 92 100 100 100 100 100 100 100 100 100 100 100 100 100 100 100 100 100 100 94 100 100 100 100 100 100 100 100 100 100 100 100 100 88 6 5 5 5 16 97 100 100 60 99 100 100 93 95 99 100 96 98
100 98 95 42 100 100 100 100 100 100 100 100 100 100 100 100 100 100 100 100 100 100 100 100 100 100 100 100 100 100 100 100 100 100 100 12 5 5 5 5 7 18 65 95 97 100 98 97 100 94 87 62 89 86
100 100 99 82 100 100 100 100 100 100 100 100 100 100 100 100 100 100 100 100 100 100 100 100 100 100 100 100 100 100 100 100 100 100 32 10 5 5 5 8 74 45 95 79 82 93 94 98 100 100 100 100 95 100
75 100 100 100 100 100 100 100 100 100 100 100 100 100 100 100 100 100 100 100 100 100 100 100 100 100 100 100 100 100 100 100 100 52 34 8 5 5 5 5 71 100 75 100 94 100 100 100 100 98 100 100 96 85
100 100 100 98 100 100 100 100 100 100 100 100 100 100 100 100 100 100 100 100 100 100 100 100 100 100 100 100 100 100 100 88 84 62 9 5 5 12 99 81 97 100 100 100 100 100 98 100 97 94 100 96 86 98
100 100 100 100 100 100 100 100 100 100 100 100 100 100 100 100 100 100 100 100 100 100 100 100 100 100 100 100 100 100 100 92 69 29 26 5 5 5 10 30 81 100 100 96 67 18 49 83 94 95 86 96 71 95
100 100 100 100 100 100 100 100 100 100 100 100 100 100 100 100 100 100 100 100 100 100 100 100 100 100 100 63 98 100 100 92 54 16 5 36 9 31 5 80 100 96 100 100 55 5 6 6 48 32 42 5 62 100
100 100 100 100 100 100 100 100 100 100 100 100 100 100 100 100 100 100 100 100 100 100 100 100 43 100 68 67 97 77 99 95 96 49 35 78 40 37 29 99 100 95 100 79 78 100 87 86 71 22 44 6 70 93
100 100 100 100 100 100 100 100 100 100 100 100 100 100 100 100 100 100 100 100 100 100 100 71 77 72 73 28 96 84 100 99 96 81 92 61 47 68 81 100 100 94 98 86 94 87 73 68 12 21 88 88 66 37
100 100 100 100 100 100 99 100 100 100 100 100 100 100 100 100 100 100 100 100 100 100 100 59 88 48 95 55 70 89 92 95 70 75 96 85 20 90 95 86 96 82 74 26 5 5 5 5 5 5 10 27 13 52
100 100 100 100 100 100 100 100 100 100 100 100 100 100 100 100 100 100 100 100 100 91 78 94 92 83 87 79 94 100 98 80 14 96 80 5 62 98 90 53 30 5 5 5 43 18 5 22 5 5 47 65 6 31
100 100 100 100 100 100 100 98 100 100 100 100 100 100 100 100 100 100 100 100 75 90 89 100 89 91 49 57 77 68 79 73 69 73 5 5 65 91 15 5 5 5 5 47 41 5 5 10 90 77 50 70 20 5
100 100 100 100 100 100 100 67 79 99 100 100 100 100 100 100 100 100 100 100 100 100 100 100 64 34 47 72 55 67 73 90 6 5 5 5 60 32 5 5 5 15 8 9 10 5 41 80 75 98 66 62 68 40
100 100 100 100 100 94 100 100 24 56 100 100 100 100 100 100 100 100 100 100 100 100 100 99 82 23 42 79 83 44 48 5 5 5 5 43 76 22 5 5 5 5 5 15 24 60 56 49 65 71 61 67 62 59
42 100 100 100 100 100 100 100 100 67 8 46 100 100 100 100 100 100 100 100 100 100 100 100 84 69 82 99 58 5 5 5 5 5 18 11 8 5 5 5 5 5 5 18 50 68 70 72 65 60 89 99 95 69
59 100 100 100 100 100 100 100 100 18 5 80 7 93 100 100 100 100 100 100 100 100 100 99 49 38 97 92 5 5 5 41 71 15 56 26 5 5 5 5 5 5 8 50 68 65 70 76 100 100 100 100 95 81
100 100 100 100 100 100 95 73 20 5 8 12 33 82 99 38 83 100 100 100 100 100 100 95 72 100 86 5 5 5 42 18 38 83 82 47 5 5 5 5 5 14 43 50 39 62 100 100 100 97 94 87 62 67
81 100 100 100 100 100 91 85 22 36 100 100 75 94 97 74 94 100 99 100 100 99 95 94 80 14 5 5 5 5 5 5 35 95 100 97 60 5 5 5 35 40 45 69 99 91 75 84 100 88 51 19 89 91
100 59 77 99 16 42 40 100 100 100 100 94 80 98 29 72 100 100 92 100 100 96 29 8 5 5 26 68 5 5 5 5 5 5 5 78 92 5 10 41 19 54 76 92 78 98 100 100 100 92 70 81 78 65
100 100 97 94 100 100 100 100 100 93 92 93 99 78 74 99 100 100 98 82 98 95 59 25 28 99 96 63 12 5 5 5 5 12 5 5 91 86 89 53 71 82 80 69 100 100 100 100 90 73 89 79 70 61
100 100 100 100 67 59 90 100 47 64 79 78 100 89 100 100 94 100 100 90 76 82 84 91 97 82 38 77 35 14 5 5 5 5 5 5 39 55 62 73 84 69 100 100 100 100 100 100 100 99 79 91 91 75
54 24 80 100 99 100 99 100 100 100 100 100 100 98 100 100 98 94 88 92 99 100 98 96 98 80 68 64 33 51 5 5 5 5 18 48 67 86 90 98 74 68 96 100 100 100 100 100 100 100 100 100 90 75
85 89 87 98 98 98 100 97 100 97 100 100 96 73 100 100 100 95 69 100 98 99 100 100 100 100 94 77 62 16 5 5 18 55 56 55 55 99 98 77 84 100 100 100 100 100 100 82 96 100 100 100 100 100
100 100 100 93 81 91 100 100 100 100 100 100 100 100 100 100 100 100 100 94 94 87 98 100 100 100 100 100 94 77 77 57 16 5 28 50 96 99 100 100 100 100 100 100 100 100 100 100 100 100 100 100 100 100
100 100 92 89 100 100 100 100 100 100 100 100 100 100 100 100 100 98 98 96 94 92 100 100 100 100 100 100 95 100 100 93 52 44 68 100 94 100 100 99 100 100 100 100 100 94 99 100 100 100 100 100 100 100
100 100 100 100 100 100 100 100 100 100 100 100 100 100 100 97 99 87 98 86 100 100 100 100 100 100 100 100 100 100 95 88 96 79 85 100 100 99 97 99 100 100 100 100 99 80 33 67 98 100 100 100 100 100
100 100 100 100 100 100 100 100 100 100 100 96 95 100 98 100 100 99 98 99 100 100 94 69 83 90 93 100 100 100 100 100 100 100 100 99 92 71 100 90 66 62 90 81 55 26 53 91 100 100 100 100 100 100
100 100 98 100 97 84 85 96 81 95 94 96 97 89 90 94 100 100 100 100 100 100 100 100 100 88 91 72 87 97 100 100 100 100 100 100 93 89 100 100 100 100 99 100 100 95 90 99 100 100 100 100 100 100
100 100 98 77 79 92 100 100 94 100 100 100 95 98 97 96 99 100 98 100 99 100 100 100 83 87 85 88 98 78 96 97 98 100 99 92 92 100 100 100 100 100 100 100 100 100 100 100 100 100 100 100 100 100
100 100 93 88 78 87 81 85 88 92 84 99 95 89 98 97 99 89 84 94 99 100 98 98 100 83 97 100 98 100 99 98 98 100 99 100 100 100 99 98 100 100 100 100 100 100 100 100 100 100 100 100 100 100
100 100 100 100 100 100 100 100 100 100 97 97 96 100 100 100 92 99 100 100 100 100 100 100 100 100 100 100 100 100 97 98 98 90 82 78 69 50 59 75 99 100 100 100 100 100 100 100 100 100 100 100 100 100